[[{"header":{"parameterUnit":"m.s-1","parameterCategory":1,"la1":31.0,"la2":29.5877,"lo1":-88.7671,"lo2":-86.6584,"dy":0.0162,"dx":0.0185,"nx":115,"ny":88,"refTime":"2024-05-24T06:00:00:Z","depth":0,"parameterNumber":2,"parameterNumberName":"U-component_of_WINDS"},"data":[0.0,0.0,0.0,0.0,0.0,0.0,0.0,0.0,0.0,0.0,0.0,0.0,0.0,0.0,0.0,0.0,0.0,0.0,0.0,0.0,0.0,0.0,0.0,0.0,0.0,0.0,0.0,0.0,0.0,0.0,0.0,0.0,0.0,0.0,0.0,0.0,0.0,0.0,0.0,0.0,0.0,0.0,0.0,0.0,0.0,0.0,0.0,0.0,0.0,0.0,0.0,0.0,0.0,0.0,0.0,0.0,0.0,0.0,0.0,0.0,0.0,0.0,0.0,0.0,0.0,0.0,0.0,0.0,0.0,0.0,0.0,0.0,0.0,0.0,0.0,0.0,0.0,0.0,0.0,0.0,0.0,0.0,0.0,0.0,0.0,0.0,0.0,0.0,0.0,0.0,0.0,0.0,0.0,0.0,0.0,0.0,0.0,0.0,0.0,0.0,0.0,0.0,0.0,0.0,0.0,0.0,0.0,0.0,0.0,0.0,0.0,0.0,0.0,0.0,0.0,0.0,0.0,0.0,0.0,0.0,0.0,0.0,0.0,0.0,0.0,0.0,0.0,0.0,0.0,0.0,0.0,0.0,0.0,0.0,0.0,0.0,0.0,0.0,0.0,0.0,0.0,0.0,0.0,0.0,0.0,0.0,0.0,0.0,0.0,0.0,0.0,0.0,0.0,0.0,0.0,0.0,0.0,0.0,0.0,0.0,0.0,0.0,0.0,0.0,0.0,0.0,0.0,0.0,0.0,0.0,0.0,0.0,0.0,0.0,0.0,0.0,0.0,0.0,0.0,0.0,0.0,0.0,0.0,0.0,0.0,0.0,0.0,0.0,0.0,0.0,0.0,0.0,0.0,0.0,0.0,0.0,0.0,0.0,0.0,0.0,0.0,0.0,0.0,0.0,0.0,0.0,0.0,0.0,0.0,0.0,0.0,0.0,0.0,0.0,0.0,0.0,0.0,0.0,0.0,0.0,0.0,0.0,0.0,0.0,0.0,0.0,0.0,0.0,0.0,0.0,0.0,0.0,0.0,0.0,0.0,0.0,0.0,0.0,0.0,0.0,0.0,0.0,0.0,0.0,0.0,0.0,0.0,0.0,0.0,0.0,0.0,0.0,0.0,0.0,0.0,0.0,0.0,0.0,0.0,0.0,0.0,0.0,0.0,0.0,0.0,0.0,0.0,0.0,0.0,0.0,0.0,0.0,0.0,0.0,0.0,0.0,0.0,0.0,0.0,0.0,0.0,0.0,0.0,0.0,0.0,0.0,0.0,0.0,0.0,0.0,0.0,0.0,0.0,0.0,0.0,0.0,0.0,0.0,0.0,0.0,0.0,0.0,0.0,0.0,0.0,0.0,0.0,0.0,0.0,0.0,0.0,0.0,0.0,0.0,0.0,0.0,0.0,0.0,0.0,0.0,0.0,0.0,0.0,0.0,0.0,0.0,0.0,0.0,0.0,0.0,0.0,0.0,0.0,0.0,0.0,0.0,0.0,0.0,0.0,0.0,0.0,0.0,0.0,0.0,0.0,0.0,0.0,0.0,0.0,0.0,0.0,0.0,0.0,0.0,0.0,0.0,0.0,0.0,0.0,0.0,0.0,0.0,0.0,0.0,0.0,0.0,0.0,0.0,0.0,0.0,0.0,0.0,0.0,0.0,0.0,0.0,0.0,0.0,0.0,0.0,0.0,0.0,0.0,0.0,0.0,0.0,0.0,0.0,0.0,0.0,0.0,0.0,0.0,0.0,0.0,0.0,0.0,0.0,0.0,0.0,0.0,0.0,0.0,0.0,0.0,0.0,0.0,0.0,0.0,0.0,0.0,0.0,0.0,0.0,0.0,0.0,0.0,0.0,0.0,0.0,0.0,0.0,0.0,0.0,0.0,0.0,0.0,0.0,0.0,0.0,0.0,0.0,0.0,0.0,0.0,0.0,0.0,0.0,0.0,0.0,0.0,0.0,0.0,0.0,0.0,0.0,0.0,0.0,0.0,0.0,0.0,0.0,0.0,0.0,0.0,0.0,0.0,0.0,0.0,0.0,0.0,0.0,0.0,0.0,0.0,0.0,0.0,0.0,0.0,0.0,0.0,0.0,0.0,0.0,0.0,0.0,0.0,0.0,0.0,0.0,0.0,0.0,0.0,0.0,0.0,0.0,0.0,0.0,0.0,0.0,0.0,0.0,0.0,0.0,0.0,0.0,0.0,0.0,0.0,0.0,0.0,0.0,0.0,0.0,0.0,0.0,0.0,0.0,0.0,0.0,0.0,0.0,0.0,0.0,0.0,0.0,0.0,0.0,0.0,0.0,0.0,0.0,0.0,0.0,0.0,0.0,0.0,0.0,0.0,0.0,0.0,0.0,0.0,0.0,0.0,0.0,0.0,0.0,0.0,0.0,0.0,0.0,0.0,0.0,0.0,0.0,0.0,0.0,0.0,0.0,0.0,0.0,0.0,0.0,0.0,0.0,0.0,0.0,0.0,0.0,0.0,0.0,0.0,0.0,0.0,0.0,0.0,0.0,0.0,0.0,0.0,0.0,0.0,0.0,0.0,0.0,0.0,0.0,0.0,0.0,0.0,0.0,0.0,0.0,0.0,0.0,0.0,0.0,0.0,0.0,0.0,0.0,0.0,0.0,0.0,0.0,0.0,0.0,0.0,0.0,0.0,0.0,0.0,0.0,0.0,0.0,0.0,0.0,0.0,0.0,0.0,0.0,0.0,0.0,0.0,0.0,0.0,0.0,0.0,0.0,0.0,0.0,0.0,0.0,0.0,0.0,0.0,0.0,0.0,0.0,0.0,0.0,0.0,0.0,0.0,0.0,0.0,0.0,0.0,0.0,0.0,0.0,0.0,0.0,0.0,0.0,0.0,0.0,0.0,0.0,0.0,0.0,0.0,0.0,0.0,0.0,0.0,0.0,0.0,0.0,0.0,0.0,0.0,0.0,0.0,0.0,0.0,0.0,0.0,0.0,0.0,0.0,0.0,0.0,0.0,0.0,0.0,0.0,0.0,0.0,0.0,0.0,0.0,0.0,0.0,0.0,0.0,0.0,0.0,0.0,0.0,0.0,0.0,0.0,0.0,0.0,0.0,0.0,0.0,0.0,0.0,0.0,0.0,0.0,0.0,0.0,0.0,0.0,0.0,0.0,0.0,0.0,0.0,0.0,0.0,0.0,0.0,0.0,0.0,0.0,0.0,0.0,0.0,0.0,0.0,0.0,0.0,0.0,0.0,0.0,0.0,0.0,0.0,0.0,0.0,0.0,0.0,0.0,0.0,0.0,0.0,0.0,0.0,0.0,0.0,0.0,0.0,0.0,0.0,0.0,0.0,0.0,0.0,0.0,0.0,0.0,0.0,0.0,0.0,0.0,0.0,0.0,0.0,0.0,0.0,0.0,0.0,0.0,0.0,0.0,0.0,0.0,0.0,0.0,0.0,0.0,0.0,0.0,0.0,0.0,0.0,0.0,0.0,0.0,0.0,0.0,0.0,0.0,0.0,0.0,0.0,0.0,0.0,0.0,0.0,0.0,0.0,0.0,0.0,0.0,0.0,0.0,0.0,0.0,0.0,0.0,0.0,0.0,0.0,0.0,0.0,0.0,0.0,0.0,0.0,0.0,0.0,0.0,0.0,0.0,0.0,0.0,0.0,0.0,0.0,0.0,0.0,0.0,0.0,0.0,0.0,0.0,0.0,0.0,0.0,0.0,0.0,0.0,0.0,0.0,0.0,0.0,0.0,0.0,0.0,0.0,0.0,0.0,0.0,0.0,0.0,0.0,0.0,0.0,0.0,0.0,0.0,0.0,0.0,0.0,0.0,0.0,0.0,0.0,0.0,0.0,0.0,0.0,0.0,0.0,0.0,0.0,0.0,0.0,0.0,0.0,0.0,0.0,0.0,0.0,0.0,0.0,0.0,0.0,0.0,0.0,0.0,0.0,0.0,0.0,0.0,0.0,0.0,0.0,0.0,0.0,0.0,0.0,0.0,0.0,0.0,0.0,0.0,0.0,0.0,0.0,0.0,0.0,0.0,0.0,0.0,0.0,0.0,0.0,0.0,0.0,0.0,0.0,0.0,0.0,0.0,0.0,0.0,0.0,0.0,0.0,0.0,0.0,0.0,0.0,0.0,0.0,0.0,0.0,0.0,0.0,0.0,0.0,0.0,0.0,0.0,0.0,0.0,0.0,0.0,0.0,0.0,0.0,0.0,0.0,0.0,0.0,0.0,0.0,0.0,0.0,0.0,0.0,0.0,0.0,0.0,0.0,0.0,0.0,0.0,0.0,-2.4637,0.0,0.0,0.0,0.0,0.0,0.0,0.0,0.0,0.0,0.0,0.0,0.0,0.0,0.0,0.0,0.0,0.0,0.0,0.0,0.0,0.0,0.0,0.0,0.0,0.0,0.0,0.0,0.0,0.0,0.0,0.0,0.0,0.0,0.0,0.0,0.0,0.0,0.0,0.0,0.0,0.0,0.0,0.0,0.0,0.0,0.0,0.0,0.0,0.0,0.0,0.0,0.0,0.0,0.0,0.0,0.0,0.0,0.0,0.0,0.0,0.0,0.0,0.0,0.0,0.0,0.0,0.0,0.0,0.0,0.0,0.0,0.0,0.0,0.0,0.0,0.0,0.0,0.0,0.0,0.0,0.0,0.0,0.0,0.0,0.0,0.0,0.0,0.0,0.0,0.0,0.0,0.0,0.0,0.0,0.0,0.0,0.0,0.0,0.0,0.0,0.0,0.0,0.0,0.0,0.0,0.0,0.0,0.0,0.0,0.0,-2.6919,-2.5933,-2.5481,-2.5142,-2.4872,0.0,0.0,0.0,0.0,0.0,0.0,0.0,0.0,0.0,0.0,0.0,0.0,0.0,0.0,0.0,0.0,0.0,0.0,0.0,0.0,0.0,0.0,0.0,0.0,0.0,0.0,0.0,0.0,0.0,0.0,0.0,0.0,0.0,0.0,0.0,0.0,0.0,0.0,0.0,0.0,0.0,0.0,0.0,0.0,0.0,0.0,0.0,0.0,0.0,0.0,0.0,0.0,0.0,0.0,0.0,0.0,0.0,0.0,0.0,0.0,0.0,0.0,0.0,0.0,0.0,0.0,0.0,0.0,0.0,0.0,0.0,0.0,0.0,0.0,0.0,0.0,0.0,0.0,0.0,0.0,0.0,0.0,0.0,0.0,0.0,0.0,0.0,0.0,0.0,0.0,0.0,0.0,0.0,0.0,0.0,0.0,0.0,0.0,0.0,0.0,0.0,0.0,0.0,0.0,0.0,0.0,0.0,0.0,0.0,0.0,0.0,0.0,-2.5841,-2.5512,-2.5496,0.0,0.0,0.0,0.0,0.0,0.0,0.0,0.0,0.0,0.0,0.0,0.0,0.0,0.0,0.0,0.0,0.0,0.0,0.0,0.0,0.0,0.0,0.0,0.0,0.0,0.0,0.0,0.0,0.0,0.0,0.0,0.0,0.0,0.0,0.0,0.0,0.0,0.0,0.0,0.0,0.0,0.0,0.0,0.0,0.0,0.0,0.0,0.0,0.0,0.0,0.0,0.0,0.0,0.0,0.0,0.0,0.0,0.0,0.0,0.0,0.0,0.0,0.0,0.0,0.0,0.0,0.0,0.0,0.0,0.0,0.0,0.0,0.0,0.0,0.0,0.0,0.0,0.0,0.0,0.0,0.0,0.0,0.0,0.0,0.0,0.0,0.0,0.0,0.0,0.0,0.0,0.0,0.0,0.0,0.0,0.0,0.0,0.0,0.0,0.0,0.0,0.0,0.0,0.0,0.0,0.0,0.0,0.0,0.0,0.0,-2.6479,-2.6418,-2.6287,0.0,-2.6204,0.0,0.0,0.0,0.0,0.0,0.0,0.0,0.0,0.0,0.0,0.0,0.0,0.0,0.0,0.0,0.0,0.0,0.0,0.0,0.0,0.0,0.0,0.0,0.0,0.0,0.0,0.0,0.0,0.0,0.0,0.0,0.0,0.0,0.0,0.0,0.0,0.0,0.0,0.0,0.0,0.0,0.0,0.0,0.0,0.0,0.0,0.0,0.0,0.0,0.0,0.0,0.0,0.0,0.0,0.0,0.0,0.0,0.0,0.0,0.0,0.0,0.0,0.0,0.0,0.0,0.0,0.0,0.0,0.0,0.0,0.0,0.0,0.0,0.0,0.0,0.0,0.0,0.0,0.0,0.0,0.0,0.0,0.0,0.0,0.0,0.0,0.0,0.0,0.0,0.0,0.0,0.0,0.0,0.0,0.0,0.0,0.0,0.0,0.0,0.0,0.0,0.0,0.0,0.0,0.0,0.0,0.0,0.0,0.0,0.0,-2.6795,-2.6395,-2.6364,-2.6364,0.0,0.0,0.0,0.0,0.0,0.0,0.0,0.0,0.0,0.0,0.0,0.0,0.0,0.0,0.0,0.0,0.0,0.0,0.0,0.0,0.0,0.0,0.0,0.0,0.0,0.0,0.0,0.0,0.0,0.0,0.0,0.0,0.0,0.0,0.0,0.0,0.0,0.0,0.0,0.0,0.0,0.0,0.0,0.0,0.0,0.0,0.0,0.0,0.0,0.0,0.0,0.0,0.0,0.0,0.0,0.0,0.0,0.0,0.0,0.0,0.0,0.0,0.0,0.0,0.0,0.0,0.0,0.0,0.0,0.0,0.0,0.0,0.0,0.0,0.0,0.0,0.0,0.0,0.0,0.0,0.0,0.0,0.0,0.0,0.0,0.0,0.0,0.0,0.0,0.0,0.0,0.0,0.0,0.0,0.0,0.0,0.0,0.0,0.0,0.0,0.0,0.0,0.0,0.0,0.0,0.0,0.0,0.0,0.0,0.0,-2.7442,0.0,-2.6965,-2.6972,-2.6765,-2.638,0.0,0.0,0.0,0.0,0.0,0.0,0.0,0.0,0.0,0.0,0.0,0.0,0.0,0.0,0.0,0.0,0.0,0.0,0.0,0.0,0.0,0.0,0.0,0.0,0.0,0.0,0.0,0.0,0.0,0.0,0.0,0.0,0.0,0.0,0.0,0.0,0.0,0.0,0.0,0.0,0.0,0.0,0.0,0.0,0.0,0.0,0.0,0.0,0.0,0.0,0.0,0.0,0.0,0.0,0.0,0.0,0.0,0.0,0.0,0.0,0.0,0.0,0.0,0.0,0.0,0.0,0.0,0.0,0.0,0.0,0.0,0.0,0.0,0.0,0.0,0.0,0.0,0.0,0.0,0.0,0.0,0.0,0.0,0.0,0.0,0.0,0.0,0.0,0.0,0.0,0.0,0.0,0.0,0.0,0.0,0.0,0.0,0.0,0.0,0.0,0.0,0.0,0.0,0.0,0.0,0.0,0.0,0.0,0.0,-2.8334,-2.7703,-2.8304,-2.8304,-2.7703,0.0,0.0,0.0,0.0,0.0,0.0,0.0,0.0,0.0,0.0,0.0,0.0,0.0,0.0,0.0,0.0,0.0,0.0,0.0,0.0,0.0,0.0,0.0,0.0,0.0,0.0,0.0,0.0,0.0,0.0,0.0,0.0,0.0,0.0,0.0,0.0,0.0,0.0,0.0,0.0,0.0,0.0,0.0,0.0,0.0,0.0,0.0,0.0,0.0,0.0,0.0,0.0,0.0,0.0,0.0,0.0,0.0,0.0,0.0,0.0,0.0,0.0,0.0,0.0,0.0,0.0,0.0,0.0,0.0,0.0,0.0,0.0,0.0,0.0,0.0,0.0,0.0,0.0,0.0,0.0,0.0,0.0,0.0,0.0,0.0,0.0,0.0,0.0,0.0,0.0,0.0,0.0,0.0,0.0,0.0,0.0,0.0,0.0,0.0,0.0,0.0,0.0,0.0,0.0,0.0,0.0,0.0,0.0,0.0,-2.7119,-2.6819,-2.7664,-2.951,-2.8042,-2.7272,0.0,0.0,0.0,0.0,0.0,0.0,0.0,0.0,0.0,0.0,0.0,0.0,0.0,0.0,0.0,0.0,0.0,0.0,0.0,0.0,0.0,0.0,0.0,0.0,0.0,0.0,0.0,0.0,0.0,0.0,0.0,0.0,0.0,0.0,0.0,0.0,0.0,0.0,0.0,0.0,0.0,0.0,0.0,0.0,0.0,0.0,0.0,0.0,0.0,0.0,0.0,0.0,0.0,0.0,0.0,0.0,0.0,0.0,0.0,0.0,0.0,0.0,0.0,0.0,0.0,0.0,0.0,0.0,0.0,0.0,0.0,0.0,0.0,0.0,0.0,0.0,0.0,0.0,0.0,0.0,0.0,0.0,0.0,0.0,0.0,0.0,0.0,0.0,0.0,0.0,0.0,0.0,0.0,0.0,0.0,0.0,0.0,0.0,0.0,0.0,0.0,0.0,0.0,0.0,0.0,0.0,0.0,0.0,0.0,-2.6349,0.0,-2.8326,0.0,-2.8011,-2.7072,0.0,0.0,0.0,0.0,0.0,0.0,0.0,0.0,0.0,0.0,0.0,0.0,0.0,0.0,0.0,0.0,0.0,0.0,0.0,0.0,0.0,0.0,0.0,0.0,0.0,0.0,0.0,0.0,0.0,0.0,0.0,0.0,0.0,0.0,0.0,0.0,0.0,0.0,0.0,0.0,0.0,0.0,0.0,0.0,0.0,0.0,0.0,0.0,0.0,0.0,0.0,0.0,0.0,0.0,0.0,0.0,0.0,0.0,0.0,0.0,0.0,0.0,0.0,0.0,0.0,0.0,0.0,0.0,0.0,0.0,0.0,0.0,0.0,0.0,0.0,0.0,0.0,0.0,0.0,0.0,0.0,0.0,0.0,0.0,0.0,0.0,0.0,0.0,0.0,0.0,0.0,0.0,0.0,0.0,0.0,0.0,0.0,0.0,0.0,0.0,0.0,0.0,0.0,0.0,0.0,0.0,0.0,0.0,-2.7057,-2.8319,-2.9587,-2.9679,-2.8519,-2.8365,-2.7103,0.0,0.0,0.0,0.0,0.0,0.0,0.0,0.0,0.0,0.0,0.0,0.0,0.0,0.0,0.0,0.0,0.0,0.0,0.0,0.0,0.0,0.0,0.0,0.0,0.0,0.0,0.0,0.0,0.0,0.0,0.0,0.0,0.0,0.0,0.0,0.0,0.0,0.0,0.0,0.0,0.0,0.0,0.0,0.0,0.0,0.0,0.0,0.0,0.0,0.0,0.0,0.0,0.0,0.0,0.0,0.0,0.0,0.0,0.0,0.0,0.0,0.0,0.0,0.0,0.0,0.0,0.0,0.0,0.0,0.0,0.0,0.0,0.0,0.0,0.0,0.0,0.0,0.0,0.0,0.0,0.0,0.0,0.0,0.0,0.0,0.0,0.0,0.0,0.0,0.0,0.0,0.0,0.0,0.0,0.0,0.0,0.0,0.0,0.0,0.0,0.0,0.0,0.0,0.0,0.0,0.0,0.0,0.0,0.0,-2.7019,-2.8756,-2.9966,-3.0366,-2.8211,-2.7288,0.0,0.0,0.0,0.0,0.0,0.0,0.0,0.0,0.0,0.0,0.0,0.0,0.0,0.0,0.0,0.0,0.0,0.0,0.0,0.0,0.0,0.0,0.0,0.0,0.0,0.0,0.0,0.0,0.0,0.0,0.0,0.0,0.0,0.0,0.0,0.0,0.0,0.0,0.0,0.0,0.0,0.0,0.0,0.0,0.0,0.0,0.0,0.0,0.0,0.0,0.0,0.0,0.0,0.0,0.0,0.0,0.0,0.0,0.0,0.0,0.0,0.0,0.0,0.0,0.0,0.0,0.0,0.0,0.0,0.0,0.0,0.0,0.0,0.0,0.0,0.0,0.0,0.0,0.0,0.0,0.0,0.0,0.0,0.0,0.0,0.0,0.0,0.0,0.0,0.0,0.0,0.0,0.0,0.0,0.0,0.0,0.0,0.0,0.0,0.0,0.0,0.0,0.0,0.0,0.0,0.0,0.0,0.0,0.0,-2.8719,-3.0366,-3.1443,-3.1751,-2.9243,-2.8119,-2.8581,0.0,0.0,0.0,0.0,0.0,0.0,0.0,0.0,0.0,0.0,0.0,0.0,0.0,0.0,0.0,0.0,0.0,0.0,0.0,0.0,0.0,0.0,0.0,0.0,0.0,0.0,0.0,0.0,0.0,0.0,0.0,0.0,0.0,0.0,0.0,0.0,0.0,0.0,0.0,0.0,0.0,0.0,0.0,0.0,0.0,0.0,0.0,0.0,0.0,0.0,0.0,0.0,0.0,0.0,0.0,0.0,0.0,0.0,0.0,0.0,0.0,0.0,0.0,0.0,0.0,0.0,0.0,0.0,0.0,0.0,0.0,0.0,0.0,0.0,0.0,0.0,0.0,0.0,0.0,0.0,0.0,0.0,0.0,0.0,0.0,0.0,0.0,0.0,0.0,0.0,0.0,0.0,0.0,0.0,0.0,0.0,0.0,0.0,0.0,0.0,0.0,0.0,0.0,0.0,0.0,0.0,0.0,0.0,-3.2567,-3.3894,-3.3927,-3.269,-3.1228,-2.9581,0.0,0.0,0.0,0.0,0.0,0.0,0.0,0.0,0.0,0.0,0.0,0.0,0.0,0.0,0.0,0.0,0.0,0.0,0.0,0.0,0.0,0.0,0.0,0.0,0.0,0.0,0.0,0.0,0.0,0.0,0.0,0.0,0.0,0.0,0.0,0.0,0.0,0.0,0.0,0.0,0.0,0.0,0.0,0.0,0.0,0.0,0.0,0.0,0.0,0.0,0.0,0.0,0.0,0.0,0.0,0.0,0.0,0.0,0.0,0.0,0.0,0.0,0.0,0.0,0.0,0.0,0.0,0.0,0.0,0.0,0.0,0.0,0.0,0.0,0.0,0.0,0.0,0.0,0.0,0.0,0.0,0.0,0.0,0.0,0.0,0.0,0.0,0.0,0.0,0.0,0.0,0.0,0.0,0.0,0.0,0.0,0.0,0.0,0.0,0.0,0.0,0.0,0.0,0.0,0.0,0.0,0.0,0.0,0.0,-3.4601,-3.535,-3.5615,-3.5384,-3.2644,-3.0889,0.0,0.0,0.0,0.0,0.0,0.0,0.0,0.0,0.0,0.0,0.0,0.0,0.0,0.0,0.0,0.0,0.0,0.0,0.0,0.0,0.0,0.0,0.0,0.0,0.0,0.0,0.0,0.0,0.0,0.0,0.0,0.0,0.0,0.0,0.0,0.0,0.0,0.0,0.0,0.0,0.0,0.0,0.0,0.0,0.0,0.0,0.0,0.0,0.0,0.0,0.0,0.0,0.0,0.0,0.0,0.0,0.0,0.0,0.0,0.0,0.0,0.0,0.0,0.0,0.0,0.0,0.0,0.0,0.0,0.0,0.0,0.0,0.0,0.0,0.0,0.0,0.0,0.0,0.0,0.0,0.0,0.0,0.0,0.0,0.0,0.0,0.0,0.0,0.0,0.0,0.0,0.0,0.0,0.0,0.0,0.0,0.0,0.0,0.0,0.0,0.0,0.0,0.0,0.0,0.0,0.0,0.0,0.0,-3.3575,-3.6565,-3.686,-3.7001,-3.7143,-3.4484,-3.2352,0.0,0.0,0.0,0.0,0.0,0.0,0.0,0.0,0.0,0.0,0.0,0.0,0.0,0.0,0.0,0.0,0.0,0.0,0.0,0.0,0.0,0.0,0.0,0.0,0.0,0.0,0.0,0.0,0.0,0.0,0.0,0.0,0.0,0.0,0.0,0.0,0.0,0.0,0.0,0.0,0.0,0.0,0.0,0.0,0.0,0.0,0.0,0.0,0.0,0.0,0.0,0.0,0.0,0.0,0.0,0.0,0.0,0.0,0.0,0.0,0.0,0.0,0.0,0.0,0.0,0.0,0.0,0.0,0.0,0.0,0.0,0.0,0.0,0.0,0.0,0.0,0.0,0.0,0.0,0.0,0.0,0.0,0.0,0.0,0.0,0.0,0.0,0.0,0.0,0.0,0.0,0.0,0.0,0.0,0.0,0.0,0.0,0.0,0.0,0.0,0.0,0.0,0.0,0.0,0.0,0.0,0.0,0.0,-3.4892,-3.7996,-3.806,-3.8025,-3.7947,-3.6143,-3.3728,0.0,0.0,0.0,0.0,0.0,0.0,0.0,0.0,0.0,0.0,0.0,0.0,0.0,0.0,0.0,0.0,0.0,0.0,0.0,0.0,0.0,0.0,0.0,0.0,0.0,0.0,0.0,0.0,0.0,0.0,0.0,0.0,0.0,0.0,0.0,0.0,0.0,0.0,0.0,0.0,0.0,0.0,0.0,0.0,0.0,0.0,0.0,0.0,0.0,0.0,0.0,0.0,0.0,0.0,0.0,0.0,0.0,0.0,0.0,0.0,0.0,0.0,0.0,0.0,0.0,0.0,0.0,0.0,0.0,0.0,0.0,0.0,0.0,0.0,0.0,0.0,0.0,0.0,0.0,0.0,0.0,0.0,0.0,0.0,0.0,0.0,0.0,0.0,0.0,0.0,0.0,0.0,0.0,0.0,0.0,0.0,0.0,0.0,0.0,0.0,0.0,0.0,0.0,0.0,0.0,0.0,0.0,0.0,-3.4904,-3.7194,-3.7503,-3.7687,-3.7836,-3.5625,-3.3652,0.0,0.0,0.0,0.0,0.0,0.0,0.0,0.0,0.0,0.0,0.0,0.0,0.0,0.0,0.0,0.0,0.0,0.0,0.0,0.0,0.0,0.0,0.0,0.0,0.0,0.0,0.0,0.0,0.0,0.0,0.0,0.0,0.0,0.0,0.0,0.0,0.0,0.0,0.0,0.0,0.0,0.0,0.0,0.0,0.0,0.0,0.0,0.0,-2.2789,0.0,0.0,0.0,0.0,0.0,0.0,0.0,0.0,0.0,0.0,0.0,0.0,0.0,0.0,0.0,0.0,0.0,0.0,0.0,0.0,0.0,0.0,0.0,0.0,0.0,0.0,0.0,0.0,0.0,0.0,0.0,0.0,0.0,0.0,0.0,0.0,0.0,0.0,0.0,0.0,0.0,0.0,0.0,0.0,0.0,0.0,0.0,0.0,0.0,0.0,0.0,0.0,0.0,0.0,0.0,0.0,0.0,0.0,0.0,-3.5784,-3.7741,-3.7607,-3.7533,-3.7565,-3.5868,-3.3936,0.0,0.0,0.0,0.0,0.0,0.0,0.0,0.0,0.0,0.0,0.0,0.0,0.0,0.0,0.0,0.0,0.0,0.0,0.0,0.0,0.0,0.0,0.0,0.0,0.0,0.0,0.0,0.0,0.0,0.0,0.0,0.0,0.0,0.0,0.0,0.0,0.0,0.0,0.0,0.0,0.0,0.0,0.0,0.0,0.0,0.0,0.0,0.0,0.0,0.0,0.0,0.0,0.0,0.0,0.0,0.0,0.0,0.0,0.0,0.0,0.0,0.0,0.0,0.0,0.0,0.0,0.0,0.0,0.0,0.0,0.0,0.0,0.0,0.0,0.0,0.0,0.0,0.0,0.0,0.0,0.0,0.0,0.0,0.0,0.0,0.0,0.0,0.0,0.0,0.0,0.0,0.0,0.0,0.0,0.0,0.0,0.0,0.0,0.0,0.0,0.0,0.0,0.0,0.0,0.0,0.0,0.0,-3.4203,-3.6473,-3.8406,-3.8016,-3.7718,-3.7485,-3.6442,-3.4421,-3.1444,0.0,0.0,0.0,0.0,0.0,0.0,0.0,0.0,0.0,0.0,0.0,0.0,0.0,0.0,0.0,0.0,0.0,0.0,0.0,0.0,0.0,0.0,0.0,0.0,0.0,0.0,0.0,0.0,0.0,0.0,0.0,0.0,0.0,0.0,0.0,0.0,0.0,0.0,-2.3598,-2.4799,0.0,0.0,0.0,0.0,0.0,0.0,0.0,0.0,-2.35,0.0,0.0,0.0,0.0,0.0,0.0,0.0,0.0,0.0,0.0,0.0,0.0,0.0,0.0,0.0,0.0,0.0,0.0,0.0,0.0,0.0,0.0,0.0,0.0,0.0,0.0,0.0,0.0,0.0,0.0,0.0,0.0,0.0,0.0,0.0,0.0,0.0,0.0,0.0,0.0,0.0,0.0,0.0,0.0,0.0,0.0,0.0,0.0,0.0,0.0,0.0,0.0,0.0,0.0,0.0,0.0,-3.2799,-3.3714,-3.5353,-3.7629,-3.8534,-3.8545,-3.7526,-3.6836,-3.4841,-3.1463,0.0,0.0,0.0,0.0,0.0,0.0,0.0,0.0,0.0,0.0,0.0,0.0,0.0,0.0,0.0,0.0,0.0,0.0,0.0,0.0,0.0,0.0,0.0,0.0,0.0,0.0,0.0,0.0,0.0,0.0,0.0,0.0,0.0,0.0,0.0,0.0,0.0,0.0,0.0,-2.5775,-2.6286,0.0,0.0,0.0,0.0,0.0,0.0,0.0,0.0,-2.4489,0.0,0.0,0.0,0.0,0.0,0.0,0.0,0.0,0.0,0.0,0.0,0.0,0.0,0.0,0.0,0.0,0.0,0.0,0.0,0.0,0.0,0.0,0.0,0.0,0.0,0.0,0.0,0.0,0.0,0.0,0.0,0.0,0.0,0.0,0.0,0.0,0.0,0.0,0.0,0.0,0.0,0.0,0.0,0.0,0.0,0.0,0.0,0.0,0.0,0.0,0.0,0.0,0.0,0.0,0.0,-3.2164,-3.4556,-3.6482,-3.7905,-3.8857,-3.8735,-3.7526,-3.6293,-3.4299,0.0,0.0,0.0,0.0,0.0,0.0,0.0,0.0,0.0,0.0,0.0,0.0,0.0,0.0,0.0,0.0,0.0,0.0,0.0,0.0,0.0,0.0,0.0,0.0,0.0,0.0,0.0,0.0,0.0,0.0,0.0,0.0,0.0,0.0,0.0,0.0,0.0,0.0,0.0,0.0,-2.6239,-2.6941,-2.7641,0.0,0.0,0.0,0.0,0.0,0.0,-2.579,-2.5331,0.0,0.0,0.0,0.0,0.0,0.0,0.0,0.0,0.0,0.0,0.0,0.0,0.0,0.0,0.0,0.0,0.0,0.0,0.0,0.0,0.0,0.0,0.0,0.0,0.0,0.0,0.0,0.0,0.0,0.0,0.0,0.0,0.0,0.0,0.0,0.0,0.0,0.0,0.0,0.0,0.0,0.0,0.0,0.0,0.0,0.0,0.0,0.0,0.0,0.0,0.0,0.0,0.0,0.0,0.0,-3.1382,-3.5058,-3.7418,-3.8396,-3.9007,-3.8735,-3.7512,-3.5967,-3.3905,0.0,0.0,0.0,0.0,0.0,0.0,0.0,0.0,0.0,0.0,0.0,0.0,0.0,0.0,0.0,0.0,0.0,0.0,0.0,0.0,0.0,0.0,0.0,0.0,0.0,0.0,0.0,0.0,0.0,0.0,0.0,0.0,0.0,0.0,0.0,0.0,0.0,0.0,0.0,0.0,0.0,-2.8112,-2.9129,-2.8193,0.0,0.0,0.0,0.0,-2.743,-2.723,0.0,0.0,0.0,0.0,0.0,0.0,0.0,0.0,0.0,0.0,0.0,0.0,0.0,0.0,0.0,0.0,0.0,0.0,0.0,0.0,0.0,0.0,0.0,0.0,0.0,0.0,0.0,0.0,0.0,0.0,0.0,0.0,0.0,0.0,0.0,0.0,0.0,0.0,0.0,0.0,0.0,0.0,0.0,0.0,0.0,0.0,0.0,0.0,0.0,0.0,0.0,0.0,0.0,0.0,0.0,0.0,-3.1287,-3.3824,-3.6171,-3.8271,-3.8993,-3.8735,-3.7526,-3.6782,-3.4543,0.0,0.0,0.0,0.0,0.0,0.0,0.0,0.0,0.0,0.0,0.0,0.0,0.0,0.0,0.0,0.0,0.0,0.0,0.0,0.0,0.0,0.0,0.0,0.0,0.0,0.0,0.0,0.0,0.0,0.0,0.0,0.0,0.0,0.0,0.0,0.0,0.0,0.0,0.0,0.0,0.0,-3.0269,-2.8885,-2.8967,-2.917,0.0,0.0,-2.9279,-2.9903,-3.0378,0.0,0.0,0.0,0.0,0.0,0.0,0.0,0.0,0.0,0.0,0.0,0.0,0.0,0.0,0.0,0.0,0.0,0.0,0.0,0.0,0.0,0.0,0.0,0.0,0.0,0.0,0.0,0.0,0.0,0.0,0.0,0.0,0.0,0.0,0.0,0.0,0.0,0.0,0.0,0.0,0.0,0.0,0.0,0.0,0.0,0.0,0.0,0.0,0.0,0.0,0.0,0.0,0.0,0.0,0.0,-3.0079,-3.1829,-3.4814,-3.7147,-3.8844,-3.9169,-3.8735,-3.7526,-3.5913,-3.3582,0.0,0.0,0.0,0.0,0.0,0.0,0.0,0.0,0.0,0.0,0.0,0.0,0.0,0.0,0.0,0.0,0.0,0.0,0.0,0.0,0.0,0.0,0.0,0.0,0.0,0.0,0.0,0.0,0.0,0.0,0.0,0.0,0.0,0.0,0.0,0.0,0.0,0.0,0.0,0.0,0.0,0.0,-3.1078,-3.0819,0.0,0.0,0.0,-3.0717,-3.1327,0.0,0.0,0.0,0.0,0.0,0.0,0.0,0.0,0.0,0.0,0.0,0.0,0.0,0.0,0.0,0.0,0.0,0.0,0.0,0.0,0.0,0.0,0.0,0.0,0.0,0.0,0.0,0.0,0.0,0.0,0.0,0.0,0.0,0.0,0.0,0.0,0.0,0.0,0.0,0.0,0.0,0.0,0.0,0.0,0.0,0.0,0.0,0.0,0.0,0.0,0.0,0.0,0.0,0.0,0.0,0.0,0.0,-3.2259,-3.571,-3.8068,-3.9251,-3.9305,-3.8722,-3.7499,-3.5453,0.0,0.0,0.0,0.0,0.0,0.0,0.0,0.0,0.0,0.0,0.0,0.0,0.0,0.0,0.0,0.0,0.0,0.0,0.0,0.0,0.0,0.0,0.0,0.0,0.0,0.0,0.0,-1.8683,0.0,0.0,0.0,0.0,0.0,0.0,0.0,0.0,0.0,0.0,0.0,0.0,0.0,0.0,-3.101,-3.2653,-3.2467,-3.244,0.0,0.0,-3.2277,-3.2576,-3.2508,-3.1626,0.0,0.0,0.0,0.0,0.0,0.0,0.0,0.0,0.0,0.0,0.0,0.0,0.0,0.0,0.0,0.0,0.0,0.0,0.0,0.0,0.0,0.0,0.0,0.0,0.0,0.0,0.0,0.0,0.0,0.0,0.0,0.0,0.0,0.0,0.0,0.0,0.0,0.0,0.0,0.0,0.0,0.0,0.0,0.0,0.0,0.0,0.0,0.0,0.0,0.0,0.0,0.0,0.0,0.0,0.0,-3.2259,-3.571,-3.8098,-3.9251,-3.9305,-3.8735,-3.7512,-3.628,-3.3959,0.0,0.0,0.0,0.0,0.0,0.0,0.0,0.0,0.0,0.0,0.0,0.0,0.0,0.0,0.0,0.0,0.0,0.0,0.0,0.0,0.0,0.0,0.0,0.0,0.0,0.0,0.0,0.0,0.0,0.0,0.0,0.0,0.0,0.0,0.0,0.0,0.0,0.0,0.0,0.0,0.0,-3.2707,-3.2327,-3.358,-3.4382,0.0,0.0,-3.4382,-3.3867,-3.4666,-3.4244,-3.0839,0.0,0.0,0.0,0.0,0.0,0.0,0.0,0.0,0.0,0.0,0.0,0.0,0.0,0.0,0.0,0.0,0.0,0.0,0.0,0.0,0.0,0.0,0.0,0.0,0.0,0.0,0.0,0.0,0.0,0.0,0.0,0.0,0.0,0.0,0.0,0.0,0.0,0.0,0.0,0.0,0.0,0.0,0.0,0.0,0.0,0.0,0.0,0.0,0.0,0.0,0.0,0.0,0.0,-3.0575,-3.2748,-3.5886,-3.8068,-3.9251,-3.9305,-3.8749,-3.7526,-3.6306,-3.4217,0.0,0.0,0.0,0.0,0.0,0.0,0.0,0.0,0.0,0.0,0.0,0.0,0.0,0.0,0.0,0.0,0.0,0.0,0.0,0.0,0.0,0.0,0.0,0.0,0.0,0.0,0.0,0.0,-1.9484,-1.9888,-2.074,0.0,0.0,0.0,0.0,0.0,0.0,0.0,0.0,0.0,0.0,-3.2735,-3.365,-3.4368,0.0,0.0,-3.4883,-3.4843,-3.5018,-3.4761,-3.3758,-3.1341,-3.0323,0.0,0.0,0.0,0.0,0.0,0.0,0.0,0.0,0.0,0.0,0.0,0.0,0.0,0.0,0.0,0.0,0.0,0.0,0.0,0.0,0.0,0.0,0.0,0.0,0.0,0.0,0.0,0.0,0.0,0.0,0.0,0.0,0.0,0.0,0.0,0.0,0.0,0.0,0.0,0.0,0.0,0.0,0.0,0.0,0.0,0.0,0.0,0.0,0.0,0.0,0.0,0.0,-3.0697,-3.3074,-3.6008,-3.8068,-3.9278,-3.9305,-3.8749,-3.7512,-3.6482,-3.4502,0.0,0.0,0.0,0.0,0.0,0.0,0.0,0.0,0.0,0.0,0.0,0.0,0.0,0.0,0.0,0.0,0.0,0.0,0.0,0.0,0.0,0.0,0.0,0.0,0.0,0.0,0.0,0.0,-2.0609,-2.0856,-2.1237,0.0,0.0,0.0,0.0,0.0,0.0,0.0,0.0,0.0,0.0,-3.3106,-3.4829,-3.5059,-3.5209,-3.5655,-3.5331,-3.5209,-3.5655,-3.4939,-3.3856,-3.2345,0.0,0.0,0.0,0.0,0.0,0.0,0.0,0.0,0.0,0.0,0.0,0.0,0.0,0.0,0.0,0.0,0.0,0.0,0.0,0.0,0.0,0.0,0.0,0.0,0.0,0.0,0.0,-2.2264,0.0,0.0,-2.1423,0.0,0.0,0.0,0.0,0.0,0.0,0.0,0.0,0.0,0.0,0.0,0.0,0.0,0.0,0.0,0.0,0.0,0.0,0.0,0.0,0.0,0.0,-3.0697,-3.3088,-3.6008,-3.8068,-3.9264,-3.9305,-3.8749,-3.7526,-3.6917,-3.4909,-3.1368,0.0,0.0,0.0,0.0,0.0,0.0,0.0,0.0,0.0,0.0,0.0,0.0,0.0,0.0,0.0,0.0,0.0,0.0,0.0,0.0,0.0,0.0,0.0,0.0,0.0,0.0,-2.0658,-2.0699,-2.0725,0.0,0.0,0.0,0.0,0.0,0.0,0.0,0.0,0.0,0.0,-3.2644,-3.4301,-3.5466,-3.5696,-3.5683,-3.5737,-3.571,-3.5656,-3.5723,-3.5467,-3.4996,0.0,0.0,0.0,0.0,0.0,0.0,0.0,0.0,0.0,0.0,0.0,0.0,0.0,0.0,0.0,0.0,0.0,0.0,0.0,0.0,0.0,0.0,0.0,0.0,0.0,0.0,0.0,-2.5412,-2.4123,0.0,0.0,0.0,0.0,0.0,0.0,0.0,0.0,0.0,0.0,0.0,-3.0988,-3.1417,0.0,0.0,0.0,0.0,0.0,0.0,0.0,0.0,0.0,0.0,0.0,0.0,-3.0853,-3.3582,-3.6171,-3.8068,-3.9264,-3.9305,-3.8735,-3.7526,-3.6931,-3.4478,-3.0036,0.0,0.0,0.0,0.0,0.0,0.0,0.0,0.0,0.0,0.0,0.0,0.0,0.0,0.0,0.0,0.0,0.0,0.0,0.0,0.0,0.0,0.0,0.0,0.0,0.0,-2.082,0.0,0.0,0.0,0.0,0.0,0.0,0.0,0.0,0.0,0.0,0.0,-2.9503,-3.1646,-3.3048,-3.4273,-3.5373,-3.5521,-3.5697,0.0,0.0,0.0,0.0,0.0,0.0,0.0,0.0,0.0,0.0,0.0,0.0,0.0,0.0,-3.1681,-2.8985,-2.7939,-2.7539,-2.7791,0.0,0.0,0.0,0.0,0.0,0.0,0.0,0.0,0.0,0.0,0.0,0.0,0.0,0.0,-2.7583,0.0,-2.6226,0.0,0.0,0.0,0.0,0.0,0.0,0.0,0.0,-3.1246,-3.2562,-3.3132,-3.3702,-3.3783,0.0,-3.301,-3.13,0.0,0.0,0.0,0.0,0.0,0.0,0.0,0.0,-3.1463,-3.4165,-3.6374,-3.8111,-3.9224,-3.9088,-3.8532,-3.7512,-3.613,-3.3758,-3.0354,-2.8897,-2.7157,0.0,0.0,0.0,0.0,0.0,0.0,0.0,0.0,0.0,0.0,0.0,0.0,0.0,0.0,0.0,0.0,0.0,0.0,0.0,0.0,0.0,0.0,0.0,-2.1532,0.0,0.0,0.0,0.0,0.0,0.0,0.0,0.0,0.0,-2.6927,-2.8878,-3.1027,-3.2985,-3.3874,-3.4604,-3.5463,0.0,0.0,0.0,0.0,0.0,0.0,0.0,-3.5346,-3.4902,-3.4727,-3.43,-3.3357,-3.4098,-3.4774,-3.4512,0.0,0.0,-3.1324,-3.0325,-2.9996,-3.0177,-3.0342,-3.0385,-3.0222,-3.0622,-3.092,0.0,0.0,0.0,0.0,0.0,0.0,0.0,0.0,-2.8912,-2.9509,0.0,-2.8668,0.0,0.0,0.0,0.0,-2.7131,-2.993,0.0,0.0,-3.4312,-3.5398,-3.4965,-3.5547,-3.5791,-3.5751,-3.5778,-3.4855,-3.3033,-2.9672,0.0,0.0,0.0,0.0,0.0,0.0,-3.2508,-3.4788,-3.6618,-3.8095,-3.9237,-3.8722,-3.8082,-3.7418,-3.4665,-3.2847,-3.2169,-3.0161,-2.8396,-2.6884,-2.4722,0.0,0.0,0.0,0.0,0.0,0.0,0.0,0.0,0.0,0.0,0.0,0.0,0.0,0.0,0.0,0.0,0.0,0.0,0.0,0.0,-2.1706,0.0,0.0,0.0,0.0,0.0,0.0,0.0,0.0,0.0,0.0,-2.8917,-3.0827,-3.2869,-3.4586,0.0,0.0,0.0,0.0,-3.5949,-3.5976,-3.6428,-3.6804,-3.6844,-3.6817,-3.6834,-3.7061,0.0,0.0,-3.5018,-3.5545,-3.5886,-3.5213,-3.5817,-3.6128,-3.4969,-3.3489,-3.2701,-3.3167,-3.2737,-3.2498,-3.3047,-3.3393,-3.3799,-3.3132,0.0,0.0,0.0,0.0,-3.1213,-3.2359,-3.4272,-3.3851,-3.3145,-3.23,-3.1797,0.0,0.0,0.0,0.0,0.0,0.0,-3.2616,-3.3813,-3.514,-3.6266,-3.735,-3.7512,-3.7636,-3.765,-3.7636,-3.6931,-3.556,-3.4122,-3.1517,-2.7881,0.0,0.0,0.0,0.0,-3.3563,-3.5398,-3.7088,-3.827,-3.8984,-3.8458,-3.7706,-3.6681,-3.4432,-3.2986,-3.2423,-3.1146,-2.9583,-2.7828,-2.6792,0.0,0.0,0.0,0.0,0.0,0.0,0.0,0.0,0.0,0.0,0.0,0.0,0.0,0.0,0.0,0.0,0.0,0.0,0.0,-2.2074,-2.186,-2.2538,0.0,0.0,0.0,0.0,0.0,0.0,0.0,0.0,0.0,-3.2149,-3.3092,-3.4088,0.0,0.0,-3.5779,-3.5709,-3.6055,-3.6522,-3.712,-3.699,0.0,-3.7359,-3.7097,-3.6787,-3.6701,-3.6784,-3.6865,-3.6983,-3.686,-3.669,-3.6424,-3.6306,-3.6079,-3.5808,-3.5286,-3.4845,-3.4633,-3.454,-3.4524,-3.4739,-3.4994,-3.5154,-3.7202,-3.5221,-3.3688,-3.3457,-3.4095,-3.3973,-3.495,-3.6578,-3.6225,-3.5723,-3.5193,-3.4704,-3.3495,-3.1748,-3.1395,0.0,0.0,0.0,-3.4285,-3.556,-3.6361,-3.7365,-3.8396,-3.8667,-3.8776,-3.8762,-3.8518,-3.803,-3.7324,-3.6727,-3.4707,-3.149,0.0,0.0,-3.1287,-3.2915,-3.4651,-3.6361,-3.7617,-3.8368,-3.8691,-3.7809,-3.6905,-3.5813,-3.418,-3.318,-3.2936,-3.185,-3.0619,-2.9287,-2.8224,-2.6716,0.0,0.0,0.0,0.0,0.0,0.0,0.0,0.0,0.0,0.0,0.0,-2.0369,-1.9588,0.0,0.0,0.0,-2.1681,-2.2616,-2.3729,-2.3801,0.0,0.0,0.0,0.0,0.0,0.0,0.0,-3.1287,-3.2816,-3.4031,-3.4842,-3.5234,-3.5574,-3.5926,-3.6044,-3.6114,-3.6153,0.0,-3.6871,-3.736,-3.732,-3.736,-3.7717,-3.7555,-3.7334,-3.7202,-3.7358,-3.752,-3.7795,-3.7586,-3.7364,-3.7312,-3.705,-3.6737,-3.6515,-3.6407,-3.6122,-3.5438,-3.5473,-3.5517,-3.533,-3.544,-3.5602,-4.0798,-4.0038,-3.7284,-3.6117,-3.613,-3.6605,-3.6836,-3.6877,-3.6849,-3.7419,-3.8315,-3.7243,-3.6714,-3.6564,-3.4924,0.0,-3.5032,-3.5655,-3.6225,-3.6795,-3.7948,-3.8477,-3.8518,-3.9034,-3.9305,-3.9278,-3.8749,-3.8491,-3.845,-3.7892,-3.7038,-3.5913,-3.4312,-3.3702,-3.407,-3.4694,-3.5846,-3.7582,-3.8149,-3.8393,-3.8242,-3.6949,-3.5853,-3.5032,-3.386,-3.3326,-3.3467,-3.227,-3.1402,-3.0931,-2.9159,-2.7594,-2.6343,0.0,0.0,0.0,0.0,0.0,0.0,0.0,0.0,0.0,0.0,0.0,0.0,0.0,0.0,0.0,-2.2932,0.0,-2.6188,-2.6699,0.0,0.0,0.0,-2.9289,-3.0642,-3.1468,-3.2411,-3.3652,0.0,0.0,-3.6867,-3.7037,-3.7077,-3.7077,-3.6593,-3.6436,-3.6933,-3.7024,-3.7077,-3.7148,-3.7534,-3.7874,-3.788,-3.7978,-3.8062,-3.8062,-3.8167,-3.8063,-3.7933,-3.7887,-3.7887,-3.7861,-3.7887,-3.7717,-3.7168,-3.705,-3.6781,-3.591,-3.5794,-3.5736,-3.5312,-3.529,-3.5399,-4.1028,-4.0838,-4.0133,-3.9563,-3.9102,-3.879,-3.8925,-3.9292,-3.8857,-3.8572,-3.8396,-3.8111,-3.7731,-3.7241,-3.6835,-3.6713,-3.6875,-3.7458,-3.7853,-3.8016,-3.8749,-3.9088,-3.9102,-3.9251,-3.9305,-3.9292,-3.9156,-3.9088,-3.9088,-3.8952,-3.8505,-3.7786,-3.7351,-3.6524,-3.5344,-3.6306,-3.7282,-3.8193,-3.86,-3.8263,-3.7173,-3.6125,-3.5083,-3.4204,-3.3317,-3.279,-3.2699,-3.1843,-3.1193,-3.0775,-2.9772,-2.845,-2.685,-2.4807,0.0,0.0,0.0,0.0,0.0,0.0,0.0,0.0,0.0,-2.3413,-2.0909,0.0,-2.4534,0.0,-2.4619,-2.5888,-2.7436,-2.7446,0.0,0.0,-3.0443,-3.0906,-3.3772,-3.3575,-3.377,-3.5325,-3.6149,-3.6698,-3.6972,-3.7403,-3.7678,-3.7691,-3.756,-3.7351,-3.709,-3.7416,-3.7691,-3.7691,-3.7795,-3.79,-3.79,-3.7946,-3.7992,-3.7965,-3.7992,-3.7933,-3.79,-3.79,-3.79,-3.79,-3.79,-3.7835,-3.7704,-3.7691,-3.7416,-3.6799,-3.6117,-3.563,-3.5471,-3.5322,-3.5208,-4.191,-4.191,-4.1896,-4.1707,-4.1327,-4.0472,-4.0309,-4.0567,-4.0255,-3.9929,-3.9559,-3.9332,-3.8884,-3.8328,-3.8328,-3.8271,-3.8342,-3.8667,-3.8817,-3.883,-3.9142,-3.9305,-3.9305,-3.9203,-3.9203,-3.9305,-3.9203,-3.9203,-3.9305,-3.9305,-3.9129,-3.8803,-3.8817,-3.8315,-3.7365,-3.7718,-3.8176,-3.8803,-3.8725,-3.8132,-3.7,-3.6088,-3.5073,-3.3951,-3.3119,-3.245,-3.1925,-3.1341,-3.0794,-3.033,-2.9723,-2.8797,-2.7497,-2.5946,-2.4657,0.0,0.0,0.0,0.0,0.0,0.0,0.0,0.0,0.0,0.0,0.0,-2.6279,-2.6134,-2.7027,-2.8285,-2.9961,-3.0239,-3.1253,-3.341,-3.2935,-3.3287,-3.543,-3.5103,-3.5168,-3.6358,-3.6789,-3.7116,-3.7377,-3.7691,-3.79,-3.79,-3.79,-3.7782,-3.7521,-3.7704,-3.79,-3.79,-3.79,-3.79,-3.79,-3.79,-3.79,-3.79,-3.79,-3.79,-3.79,-3.79,-3.79,-3.79,-3.79,-3.79,-3.79,-3.79,-3.7769,-3.7416,-3.6773,-3.61,-3.5562,-3.5418,-3.5336,-4.29,-4.29,-4.29,-4.29,-4.2806,-4.1788,-4.1313,-4.1232,-4.1164,-4.1123,-4.1096,-4.054,-4.0024,-3.9536,-3.9441,-3.9414,-3.9414,-3.9346,-3.9305,-3.9305,-3.9305,-3.9305,-3.9305,-3.9069,-3.9056,-3.9305,-3.9056,-3.9042,-3.9305,-3.9305,-3.9305,-3.9305,-3.9305,-3.9305,-3.9292,-3.879,-3.8776,-3.9278,-3.8678,-3.8036,-3.7322,-3.6467,-3.535,-3.3991,-3.3159,-3.2266,-3.1257,-3.0927,-3.0508,-2.9957,-2.9589,-2.9074,-2.8372,-2.7011,-2.5813,0.0,-2.3989,0.0,0.0,0.0,0.0,0.0,0.0,0.0,0.0,-2.729,-2.8076,-2.8777,-2.9736,-3.0989,-3.2691,-3.3502,-3.4411,-3.5397,-3.548,-3.5613,-3.6149,-3.6214,-3.6449,-3.705,-3.7116,-3.7325,-3.7795,-3.79,-3.79,-3.79,-3.79,-3.7887,-3.7887,-3.7887,-3.79,-3.79,-3.79,-3.79,-3.79,-3.79,-3.79,-3.79,-3.79,-3.79,-3.79,-3.79,-3.79,-3.79,-3.79,-3.79,-3.79,-3.79,-3.79,-3.7848,-3.7416,-3.6763,-3.5905,-3.5562,-3.5455,-4.29,-4.29,-4.29,-4.29,-4.286,-4.2643,-4.2276,-4.1802,-4.1327,-4.1123,-4.111,-4.1001,-4.0879,-4.0743,-4.0241,-4.0024,-3.9997,-3.9522,-3.9305,-3.9305,-3.9305,-3.9305,-3.9305,-3.9247,-3.9247,-3.9305,-3.9247,-3.9247,-3.9305,-3.9305,-3.9305,-3.9305,-3.9305,-3.9305,-3.9305,0.0,0.0,0.0,-3.8533,-3.8064,-3.7873,-3.6668,-3.5392,-3.4179,-3.3344,0.0,-3.091,-3.1063,-3.0983,-3.0557,-3.0459,0.0,0.0,0.0,0.0,0.0,0.0,0.0,0.0,0.0,0.0,0.0,-2.8845,-2.8536,-2.739,-2.9394,-3.0891,-3.1231,-3.1969,-3.2749,-3.3609,-3.404,-3.457,-3.5293,-3.5734,-3.6188,-3.675,-3.6828,-3.7063,-3.7652,-3.7717,-3.7769,-3.7861,-3.79,-3.79,-3.79,-3.79,-3.79,-3.79,-3.79,-3.79,-3.79,-3.79,-3.79,-3.79,-3.79,-3.79,-3.79,-3.79,-3.79,-3.79,-3.79,-3.79,-3.79,-3.79,-3.79,-3.79,-3.79,-3.79,-3.79,-3.7808,-3.7521,-3.6815,-3.5983,-3.5388,-4.29,-4.29,-4.29,-4.29,0.0,-4.29,-4.2711,-4.2412,-4.2127,-4.1842,-4.1557,-4.1544,-4.1394,-4.1096,-4.0798,-4.0648,-4.0635,-4.0336,-4.0201,-4.0187,-3.9888,-3.9739,-3.9712,-3.9293,-3.9145,-3.9305,-3.9145,-3.9145,-3.9305,-3.9305,-3.9305,-3.9305,-3.9305,-3.9305,-3.9305,-3.9305,-3.9305,-3.9305,-3.8918,-3.8533,-3.8222,-3.7144,-3.5999,-3.4821,-3.3609,0.0,0.0,0.0,0.0,0.0,0.0,0.0,0.0,0.0,0.0,-2.8438,-2.8018,-2.7913,-2.8274,-2.8563,-2.9194,-3.0173,-3.1086,-3.1137,-3.0089,-3.1592,-3.272,-3.3015,-3.3395,-3.3834,-3.443,-3.4794,-3.5234,-3.5824,-3.6302,-3.6789,-3.7325,-3.7456,-3.756,-3.7835,-3.79,-3.79,-3.79,-3.79,-3.79,-3.79,-3.79,-3.79,-3.79,-3.79,-3.79,-3.79,-3.79,-3.79,-3.79,-3.79,-3.79,-3.79,-3.79,-3.79,-3.79,-3.79,-3.79,-3.79,-3.79,-3.79,-3.79,-3.79,-3.79,-3.79,-3.79,-3.7835,-3.7469,-3.675,-3.5996,-4.3423,-4.3437,-4.3389,-4.3437,-4.3437,-4.3437,-4.3437,-4.3375,0.0,0.0,0.0,-4.2168,-4.1883,-4.1435,-4.1327,-4.1226,-4.1259,-4.1164,-4.1123,-4.111,-4.0594,-4.035,-4.0323,-3.9487,-3.9338,-3.9663,-3.9185,-3.9176,-3.9499,-3.9394,-3.9305,-3.9305,-3.9305,-3.9305,-3.9305,-3.9305,-3.9305,-3.9305,-3.9305,-3.9074,-3.8529,-3.7679,-3.6718,-3.5615,-3.4073,-3.2721,-3.162,-3.1369,-3.0962,-3.0366,-3.0691,-3.0893,-3.088,-3.0618,-3.0427,-3.0333,-3.0323,-3.0328,-3.0411,-3.0505,-3.0953,-3.1798,-3.282,-3.3325,-3.3071,-3.3517,-3.3924,-3.4353,-3.4313,-3.4512,-3.5138,-3.5471,-3.591,-3.6546,-3.6936,-3.7377,-3.7808,-3.79,-3.7874,-3.79,-3.79,-3.79,-3.79,-3.79,-3.79,-3.79,-3.79,-3.79,-3.79,-3.79,-3.79,-3.79,-3.79,-3.79,-3.79,-3.79,-3.79,-3.79,-3.79,-3.79,-3.79,-3.79,-3.79,-3.79,-3.79,-3.79,-3.79,-3.79,-3.79,-3.79,-3.7808,-3.7743,-3.7691,-3.726,-3.6559,-4.5372,-4.5372,-4.5372,-4.5386,-4.5386,-4.5417,-4.5372,-4.5235,-4.36,-4.2846,-4.2778,-4.2765,-4.2724,-4.2616,-4.2114,-4.1883,-4.1842,-4.1354,-4.1123,-4.1123,-4.1028,-4.0987,-4.0947,-4.0304,-4.0443,-4.1054,-3.9878,-3.9662,-4.0273,-3.9675,-3.9305,-3.9305,-3.9305,-3.9305,-3.9305,-3.9305,-3.9305,-3.9305,-3.9305,-3.9251,-3.9156,-3.8068,-3.7118,-3.6428,-3.5036,-3.3775,-3.2659,-3.3033,-3.2993,-3.2428,-3.2573,-3.2735,-3.2707,-3.2196,-3.1658,-3.1211,-3.1604,-3.1816,-3.1684,-3.2142,-3.2896,-3.3946,-3.4372,-3.4545,-3.4505,-3.4429,-3.4606,-3.517,-3.4898,-3.4916,-3.5484,-3.5811,-3.6219,-3.682,-3.7462,-3.7821,-3.79,-3.79,-3.79,-3.79,-3.79,-3.79,-3.79,-3.79,-3.79,-3.79,-3.79,-3.79,-3.79,-3.79,-3.79,-3.79,-3.79,-3.79,-3.79,-3.79,-3.79,-3.79,-3.79,-3.79,-3.79,-3.79,-3.79,-3.79,-3.79,-3.79,-3.79,-3.79,-3.7874,-3.7835,-3.7508,-3.7194,-3.7142,-3.6645,-3.6175,-4.5824,-4.5824,-4.5824,-4.5824,-4.5824,-4.5824,-4.5824,-4.5734,-4.4883,-4.4466,-4.4434,-4.3918,-4.3648,-4.3573,-4.2828,-4.248,-4.2466,-4.2736,-4.2832,-4.2837,-4.3069,-4.3172,-4.304,-4.2001,-4.1664,-4.1934,-4.0488,-3.999,-4.0291,-3.9619,-3.9305,-3.9349,-3.9736,-3.9779,-3.9336,-3.9779,-3.9793,-3.9336,-3.9793,-3.9984,-3.997,-3.8809,-3.809,-3.7785,-3.5709,-3.4283,-3.3745,-3.3703,-3.3555,-3.3286,-3.3425,-3.3539,-3.3525,-3.3295,-3.2972,-3.2766,-3.2945,-3.3057,-3.2995,-3.3549,-3.4103,-3.4643,-3.506,-3.5316,-3.5276,-3.5116,-3.5063,-3.5209,-3.4962,-3.4861,-3.5152,-3.5729,-3.6227,-3.6488,-3.7338,-3.7887,-3.79,-3.79,-3.79,-3.79,-3.79,-3.79,-3.79,-3.79,-3.79,-3.79,-3.79,-3.79,-3.79,-3.79,-3.79,-3.79,-3.79,-3.79,-3.79,-3.79,-3.79,-3.79,-3.79,-3.79,-3.79,-3.79,-3.79,-3.79,-3.79,-3.79,-3.79,-3.79,-3.7782,-3.7416,-3.7233,-3.6933,-3.658,-3.6057,-3.5717,-4.6432,-4.6447,-4.6447,-4.6447,-4.6447,-4.6447,-4.6447,-4.6447,-4.6447,-4.6447,-4.6255,-4.5175,-4.4624,-4.4545,-4.3885,-4.3566,-4.3662,-4.4312,-4.4624,-4.4674,-4.4958,-4.5097,-4.498,-4.3651,-4.3115,-4.3133,-4.1798,-4.1093,-4.1046,-4.044,-4.0062,-3.9996,-4.0575,-4.0489,-3.9631,-4.0273,-4.0201,-3.9424,-4.0374,-4.0817,-4.0561,-3.9243,-3.8613,-3.861,-3.6195,-3.4753,-3.474,-3.4362,-3.4158,-3.4145,-3.4101,-3.4165,-3.4287,-3.4179,-3.4097,-3.4097,-3.4111,-3.4111,-3.4138,-3.4666,-3.4992,-3.5005,-3.5452,-3.571,-3.5683,-3.5548,-3.5399,-3.5195,-3.4962,-3.485,-3.5086,-3.565,-3.6149,-3.6332,-3.7246,-3.7874,-3.79,-3.79,-3.79,-3.79,-3.79,-3.79,-3.79,-3.79,-3.79,-3.79,-3.79,-3.79,-3.79,-3.79,-3.79,-3.79,-3.79,-3.79,-3.79,-3.79,-3.79,-3.79,-3.79,-3.79,-3.79,-3.79,-3.79,-3.79,-3.79,-3.79,-3.79,-3.79,-3.7665,-3.7207,-3.6894,-3.6528,-3.5809,-3.5378,-3.5103,-4.8297,-4.8339,-4.8256,-4.8339,-4.8271,-4.8256,-4.8256,-4.8256,-4.8339,-4.8355,-4.8072,-4.6447,-4.5689,-4.5629,-4.5508,-4.5432,-4.5463,-4.5598,-4.5644,-4.5689,-4.5721,-4.5737,-4.5739,-4.4994,-4.5098,-4.5528,-4.4268,-4.3557,-4.3664,-4.2918,-4.229,-4.1841,-4.1811,-4.1436,-4.0617,-4.0603,-4.0187,-3.938,-4.0986,-4.1463,-4.0519,-3.8653,-3.7992,-3.8749,-3.6754,-3.5602,-3.5601,-3.5547,-3.5507,-3.548,-3.4992,-3.4951,-3.5371,-3.5005,-3.4707,-3.4707,-3.4707,-3.4707,-3.4748,-3.5303,-3.5615,-3.5588,-3.5655,-3.571,-3.571,-3.5669,-3.5588,-3.5358,-3.5003,-3.5009,-3.5453,-3.5873,-3.6292,-3.6724,-3.7456,-3.79,-3.79,-3.79,-3.79,-3.79,-3.79,-3.79,-3.79,-3.79,-3.79,-3.79,-3.79,-3.79,-3.79,-3.79,-3.79,-3.79,-3.79,-3.79,-3.79,-3.79,-3.79,-3.79,-3.79,-3.79,-3.79,-3.79,-3.79,-3.79,-3.79,-3.79,-3.79,-3.7874,-3.7639,-3.6972,-3.6449,-3.5848,-3.4894,-3.458,-3.4554,-4.8604,-4.8604,-4.8604,-4.8604,-4.8604,-4.8604,-4.8604,-4.8604,-4.8604,-4.8604,-4.8521,-4.7776,-4.7146,-4.6623,-4.6048,-4.5824,-4.5824,-4.6359,-4.6638,-4.6711,-4.7204,-4.7463,-4.739,-4.6633,-4.6456,-4.6655,-4.5272,-4.4573,-4.4436,-4.3566,-4.2671,-4.2146,-4.2508,-4.2304,-4.1532,-4.1947,-4.174,-4.093,-4.1603,-4.2058,-4.205,-4.105,-4.0358,-4.008,-3.8227,-3.6855,-3.6403,-3.5991,-3.571,-3.5696,-3.5453,-3.5465,-3.5696,-3.5453,-3.5317,-3.5317,-3.5317,-3.5317,-3.5357,-3.5588,-3.571,-3.571,-3.571,-3.571,-3.571,-3.571,-3.5629,-3.5562,-3.5318,-3.5247,-3.536,-3.5917,-3.6402,-3.6585,-3.7312,-3.79,-3.79,-3.79,-3.79,-3.79,-3.79,-3.79,-3.79,-3.79,-3.79,-3.79,-3.79,-3.79,-3.79,-3.79,-3.79,-3.79,-3.79,-3.79,-3.79,-3.79,-3.79,-3.79,-3.79,-3.79,-3.79,-3.79,-3.79,-3.79,-3.79,-3.79,-3.79,-3.7534,-3.7181,-3.6554,-3.5678,-3.492,-3.4463,-3.4397,-3.4397,-4.8604,-4.8604,-4.8604,-4.8604,-4.8604,-4.8604,-4.8604,-4.8604,-4.8604,-4.8604,-4.8604,-4.8604,-4.8256,-4.7548,-4.6842,-4.6564,-4.6652,-4.7291,-4.7591,-4.7634,-4.8297,-4.8563,-4.8521,-4.7946,-4.7591,-4.7445,-4.6496,-4.5825,-4.5544,-4.4347,-4.3489,-4.3142,-4.3453,-4.3205,-4.2522,-4.3006,-4.2886,-4.2058,-4.2222,-4.267,-4.3185,-4.3109,-4.2575,-4.1556,-3.9265,-3.7707,-3.7231,-3.622,-3.571,-3.571,-3.571,-3.571,-3.571,-3.571,-3.571,-3.571,-3.571,-3.571,-3.571,-3.571,-3.571,-3.571,-3.571,-3.571,-3.571,-3.571,-3.571,-3.5683,-3.5548,-3.5399,-3.5315,-3.5968,-3.6388,-3.6306,-3.7226,-3.7887,-3.79,-3.79,-3.79,-3.79,-3.79,-3.79,-3.79,-3.79,-3.79,-3.79,-3.79,-3.79,-3.79,-3.79,-3.79,-3.79,-3.79,-3.79,-3.79,-3.79,-3.79,-3.79,-3.79,-3.79,-3.79,-3.79,-3.79,-3.79,-3.79,-3.7756,-3.756,-3.7168,-3.6698,-3.5966,-3.5142,-3.4476,-3.441,-3.4397,-3.4397,-4.8604,-4.8604,-4.8604,-4.8604,-4.8604,-4.8604,-4.8604,-4.8604,-4.8604,-4.8604,-4.8604,-4.8604,-4.8563,-4.848,-4.8297,-4.8423,-4.8438,-4.8438,-4.8438,-4.8438,-4.8563,-4.8604,-4.8604,-4.8563,-4.8521,-4.8381,-4.8221,-4.7884,-4.7298,-4.6082,-4.5494,-4.5394,-4.4772,-4.4127,-4.3409,-4.3354,-4.2886,-4.236,-4.2886,-4.3269,-4.3403,-4.409,-4.3724,-4.2299,-3.9549,-3.8119,-3.7805,-3.6533,-3.5723,-3.571,-3.571,-3.571,-3.571,-3.571,-3.571,-3.571,-3.571,-3.571,-3.571,-3.571,-3.571,-3.571,-3.571,-3.571,-3.571,-3.571,-3.571,-3.571,-3.5669,-3.5588,-3.552,-3.6093,-3.6541,-3.6573,-3.7342,-3.7821,-3.79,-3.79,-3.79,-3.79,-3.79,-3.79,-3.79,-3.79,-3.79,-3.79,-3.79,-3.79,-3.79,-3.79,-3.79,-3.7946,-3.7946,-3.7913,-3.7946,-3.79,-3.79,-3.79,-3.79,-3.7979,-3.79,-3.79,-3.79,-3.7933,-3.79,-3.7736,-3.7246,-3.6776,-3.6292,-3.5652,-3.4959,-3.4463,-3.4397,-3.4397,-3.4439,-4.902,-4.862,-4.8604,-4.8604,-4.8604,-4.8604,-4.8604,-4.8604,-4.8604,-4.8604,-4.8604,-4.8604,-4.8604,-4.8604,-4.8604,-4.8604,-4.8604,-4.8604,-4.8604,-4.8604,-4.8604,-4.8604,-4.8604,-4.8604,-4.8604,-4.8604,-4.8604,-4.8266,-4.765,-4.708,-4.665,-4.6172,-4.5596,-4.5048,-4.4739,-4.4334,-4.3966,-4.3717,-4.4004,-4.4135,-4.4135,-4.4458,-4.4319,-4.3754,-4.185,-4.014,-3.8798,-3.7746,-3.675,-3.5777,-3.571,-3.571,-3.571,-3.571,-3.571,-3.571,-3.571,-3.571,-3.571,-3.571,-3.571,-3.571,-3.571,-3.571,-3.571,-3.571,-3.571,-3.571,-3.571,-3.5724,-3.6031,-3.642,-3.6804,-3.7091,-3.7539,-3.79,-3.79,-3.79,-3.79,-3.79,-3.79,-3.79,-3.7946,-3.79,-3.79,-3.79,-3.79,-3.7933,-3.79,-3.79,-3.7979,-3.8024,-3.8349,-3.8715,-3.8715,-3.8181,-3.79,-3.79,-3.7933,-3.8258,-3.8381,-3.8103,-3.807,-3.8185,-3.8121,-3.7676,-3.7195,-3.6354,-3.5864,-3.5371,-3.4686,-3.4645,-3.4397,-3.4758,-3.4758,-4.9266,-4.8666,-4.8604,-4.8604,-4.8604,-4.8604,-4.8604,-4.8604,-4.8604,-4.8604,-4.8604,-4.8604,-4.8604,-4.8604,-4.8604,-4.8604,-4.8604,-4.8604,-4.8604,-4.8604,-4.8604,-4.8604,-4.8604,-4.8604,-4.8604,-4.8604,-4.8604,-4.8358,-4.7958,-4.7711,-4.7373,-4.6896,-4.6234,-4.5788,-4.5541,-4.5126,-4.4833,-4.4671,-4.461,-4.4572,-4.461,-4.461,-4.461,-4.4472,-4.3617,-4.2233,-4.0297,-3.8818,-3.7578,-3.6601,-3.6207,-3.6097,-3.6057,-3.5817,-3.571,-3.571,-3.571,-3.571,-3.571,-3.571,-3.571,-3.571,-3.571,-3.571,-3.571,-3.571,-3.571,-3.5737,-3.594,-3.617,-3.6612,-3.6949,-3.7152,-3.7382,-3.7683,-3.7887,-3.79,-3.79,-3.79,-3.79,-3.79,-3.8024,-3.8272,-3.8304,-3.853,-3.8711,-3.8742,-3.8697,-3.8395,-3.8621,-3.8607,-3.8485,-3.9149,-3.9563,-3.9637,-3.9326,-3.8729,-3.8652,-3.8194,-3.8517,-3.8792,-3.8459,-3.832,-3.8457,-3.8172,-3.7683,-3.6955,-3.6055,-3.5546,-3.5139,-3.5073,-3.5087,-3.5114,-3.5264,-3.5223,-4.9266,-4.865,-4.8604,-4.8604,-4.8604,-4.8604,-4.8604,-4.8604,-4.8604,-4.8604,-4.8604,-4.8604,-4.8604,-4.8604,-4.8604,-4.8604,-4.8604,-4.8604,-4.8604,-4.8604,-4.8604,-4.8604,-4.8604,-4.8604,-4.8604,-4.8604,-4.8604,-4.8589,-4.8496,-4.8004,-4.7665,-4.7511,-4.6942,-4.6357,-4.568,-4.5588,-4.5218,-4.4825,-4.4671,-4.461,-4.461,-4.461,-4.461,-4.461,-4.4472,-4.3777,-4.2368,-3.9675,-3.815,-3.7833,-3.7262,-3.6925,-3.673,-3.6177,-3.575,-3.571,-3.571,-3.571,-3.571,-3.571,-3.571,-3.571,-3.571,-3.571,-3.571,-3.5764,-3.5805,-3.5886,-3.6307,-3.6821,-3.7304,-3.7541,-3.7551,-3.7421,-3.7736,-3.7887,-3.79,-3.79,-3.79,-3.79,-3.79,-3.8272,-3.8912,-3.9033,-3.9299,-4.0,-4.026,-4.0,-3.9431,-3.9752,-4.0,-3.9637,-3.9942,-4.056,-4.0589,-4.0546,-3.9986,-3.9519,-3.8819,-3.8639,-3.9094,-3.9081,-3.8857,-3.8842,-3.8009,-3.7453,-3.7184,-3.6387,-3.6225,-3.5883,-3.5776,-3.5629,-3.5534,-3.5615,-3.5696,-4.9266,-4.8635,-4.8604,-4.8604,-4.8604,-4.8604,-4.8604,-4.8604,-4.8604,-4.8604,-4.8604,-4.8604,-4.8604,-4.8604,-4.8604,-4.8604,-4.8604,-4.8604,-4.8604,-4.8604,-4.8604,-4.8604,-4.8604,-4.8604,-4.8604,-4.8604,-4.8604,-4.8604,-4.8573,-4.8389,-4.8296,-4.8158,-4.7619,-4.7204,-4.688,-4.608,-4.5434,-4.5264,-4.4856,-4.461,-4.461,-4.461,-4.461,-4.461,-4.461,-4.4335,-4.3838,-4.1494,-3.9516,-3.819,-3.7681,-3.7347,-3.6957,-3.6663,-3.6296,-3.579,-3.571,-3.571,-3.571,-3.5723,-3.5737,-3.5723,-3.5723,-3.571,-3.5778,-3.6103,-3.6348,-3.6429,-3.6835,-3.736,-3.7554,-3.7647,-3.7896,-3.8148,-3.8011,-3.79,-3.79,-3.7946,-3.79,-3.79,-3.79,-3.8317,-3.8957,-3.9241,-3.9724,-4.0546,-4.0717,-4.0504,-4.0332,-4.0504,-4.056,-4.0289,-4.0986,-4.1561,-4.1547,-4.1532,-4.1281,-4.0675,-3.9927,-3.9295,-3.961,-3.9863,-3.9616,-3.892,-3.8087,-3.7455,-3.7165,-3.6926,-3.671,-3.6699,-3.6621,-3.632,-3.5883,-3.5976,-3.6255,-4.9651,-4.9004,-4.8727,-4.8604,-4.8604,-4.8604,-4.8604,-4.8604,-4.8604,-4.8604,-4.8604,-4.8604,-4.8604,-4.8604,-4.8604,-4.8604,-4.8604,-4.8604,-4.8604,-4.8604,-4.8604,-4.8604,-4.8604,-4.8604,-4.8604,-4.8604,-4.8604,-4.8604,-4.8604,-4.8604,-4.8604,-4.8512,-4.8189,-4.7819,-4.7542,-4.6542,-4.588,-4.5557,-4.4926,-4.461,-4.461,-4.461,-4.461,-4.461,-4.461,-4.461,-4.4465,-4.2865,-4.1207,-3.9733,-3.8846,-3.8282,-3.8141,-3.772,-3.7102,-3.6688,-3.6322,-3.6177,-3.6151,-3.6129,-3.6049,-3.6103,-3.6511,-3.6837,-3.6906,-3.7249,-3.7387,-3.7483,-3.7656,-3.7973,-3.8285,-3.8523,-3.8824,-3.9445,-3.8498,-3.7992,-3.7946,-3.8181,-3.8395,-3.8517,-3.8729,-3.9295,-3.9956,-4.0246,-4.0589,-4.1365,-4.1616,-4.1365,-4.1338,-4.1449,-4.1365,-4.1463,-4.1935,-4.2319,-4.2456,-4.2496,-4.2482,-4.1879,-4.1155,-4.0646,-4.0546,-4.0732,-4.0672,-3.9456,-3.8506,-3.7728,-3.7391,-3.7292,-3.7169,-3.7271,-3.7525,-3.7271,-3.7039,-3.7116,-3.7323,-5.0266,-4.9574,-4.8897,-4.8604,-4.8604,-4.8604,-4.8604,-4.8604,-4.8604,-4.8604,-4.8604,-4.8604,-4.8604,-4.8604,-4.8604,-4.8604,-4.8604,-4.8604,-4.8604,-4.8604,-4.8604,-4.8604,-4.8604,-4.8604,-4.8604,-4.8604,-4.8604,-4.8604,-4.8604,-4.8604,-4.8604,-4.8589,-4.8527,-4.8312,-4.7727,-4.6988,-4.6326,-4.5726,-4.5033,-4.4733,-4.4625,-4.461,-4.461,-4.461,-4.461,-4.461,-4.4427,-4.3735,-4.3004,-4.2168,-4.0318,-3.9654,-3.9981,-3.9039,-3.8423,-3.8202,-3.7475,-3.7303,-3.71,-3.6999,-3.6962,-3.7153,-3.7907,-3.883,-3.8689,-3.8801,-3.8927,-3.8929,-3.8879,-3.8925,-3.9477,-3.9754,-4.0202,-4.0546,-3.9367,-3.8408,-3.8194,-3.8836,-3.9224,-3.9431,-4.0073,-4.0901,-4.1561,-4.1728,-4.2196,-4.278,-4.2996,-4.2618,-4.236,-4.236,-4.2659,-4.2754,-4.2739,-4.2835,-4.2875,-4.2875,-4.2875,-4.2659,-4.214,-4.1838,-4.1419,-4.1536,-4.1204,-4.0025,-3.8999,-3.8232,-3.7787,-3.781,-3.8098,-3.8472,-3.8523,-3.8352,-3.8127,-3.7962,-3.791,-4.9989,-4.8897,-4.8696,-4.8604,-4.8604,-4.8604,-4.8604,-4.8604,-4.8604,-4.8604,-4.8604,-4.8604,-4.8604,-4.8604,-4.8604,-4.8604,-4.8604,-4.8604,-4.8604,-4.8604,-4.8604,-4.8604,-4.8604,-4.8604,-4.8604,-4.8604,-4.8604,-4.8604,-4.8604,-4.8604,-4.8604,-4.8604,-4.8604,-4.8543,-4.825,-4.7635,-4.7004,-4.6342,-4.5664,-4.5049,-4.4702,-4.4641,-4.461,-4.461,-4.461,-4.461,-4.461,-4.4419,-4.3623,-4.2404,-4.142,-4.0867,-4.1078,-4.0718,-4.0201,-3.9691,-3.9441,-3.9328,-3.9147,-3.8613,-3.8564,-3.9088,-3.9114,-3.9088,-3.9783,-4.0256,-4.0458,-4.0536,-4.064,-4.0703,-4.0774,-4.0788,-4.0816,-4.0631,-4.023,-3.9839,-3.9796,-4.0043,-4.0246,-4.0289,-4.0504,-4.1155,-4.1769,-4.2114,-4.2415,-4.309,-4.3305,-4.325,-4.2955,-4.2955,-4.305,-4.313,-4.317,-4.321,-4.3265,-4.3265,-4.325,-4.321,-4.2996,-4.2875,-4.2507,-4.2336,-4.1581,-4.0484,-3.9594,-3.8821,-3.8616,-3.8538,-3.9031,-3.9337,-3.9192,-3.8848,-3.8389,-3.8127,-3.8188,-5.0051,-4.9035,-4.8727,-4.8604,-4.8604,-4.8604,-4.8604,-4.8604,-4.8604,-4.8604,-4.8604,-4.8604,-4.8604,-4.8604,-4.8604,-4.8604,-4.8604,-4.8604,-4.8604,-4.8604,-4.8604,-4.8604,-4.8604,-4.8604,-4.8604,-4.8604,-4.8604,-4.8604,-4.8604,-4.8604,-4.8604,-4.8604,-4.8604,-4.8604,-4.8527,-4.7942,-4.7434,-4.6973,-4.6357,-4.568,-4.5064,-4.5041,-4.4841,-4.4702,-4.461,-4.461,-4.461,-4.4572,-4.4129,-4.3343,-4.2705,-4.2326,-4.2281,-4.2016,-4.1693,-4.1196,-4.0929,-4.0669,-4.0626,-4.0105,-4.0038,-4.051,-4.0466,-4.0989,-4.1449,-4.1863,-4.2014,-4.2033,-4.1828,-4.1726,-4.1893,-4.1908,-4.1908,-4.1852,-4.174,-4.1407,-4.0774,-4.0901,-4.1155,-4.1239,-4.1532,-4.1879,-4.2496,-4.2537,-4.2795,-4.313,-4.3305,-4.3305,-4.3265,-4.3305,-4.3305,-4.3305,-4.3305,-4.3305,-4.3305,-4.3305,-4.3305,-4.3305,-4.3305,-4.3305,-4.3125,-4.2821,-4.2028,-4.1039,-4.0208,-3.9547,-3.9284,-3.9106,-3.9141,-3.9337,-3.9388,-3.928,-3.8811,-3.8516,-3.8538,-5.0189,-4.9512,-4.8866,-4.8604,-4.8604,-4.8604,-4.8604,-4.8604,-4.8604,-4.8604,-4.8604,-4.8604,-4.8604,-4.8604,-4.8604,-4.8604,-4.8604,-4.8604,-4.8604,-4.8604,-4.8604,-4.8604,-4.8604,-4.8604,-4.8604,-4.8604,-4.8604,-4.8604,-4.8604,-4.8604,-4.8604,-4.8604,-4.8604,-4.8604,-4.8527,-4.8035,-4.7711,-4.745,-4.7004,-4.6372,-4.5772,-4.5541,-4.5234,-4.488,-4.4603,-4.461,-4.461,-4.461,-4.4488,-4.4556,-4.4024,-4.3673,-4.3565,-4.3057,-4.2836,-4.2705,-4.2251,-4.1904,-4.1745,-4.1602,-4.1412,-4.1764,-4.2659,-4.3364,-4.3253,-4.3307,-4.3322,-4.3322,-4.2493,-4.2441,-4.2673,-4.305,-4.305,-4.2996,-4.313,-4.2441,-4.1505,-4.163,-4.2114,-4.217,-4.282,-4.321,-4.3305,-4.3305,-4.3305,-4.321,-4.3305,-4.3305,-4.3305,-4.3305,-4.3305,-4.3305,-4.3305,-4.3305,-4.3305,-4.3305,-4.3305,-4.3305,-4.3305,-4.329,-4.3215,-4.2895,-4.2297,-4.1569,-4.0872,-4.0233,-3.969,-3.9561,-3.9427,-3.9337,-3.9388,-3.9388,-3.9316,-3.9119,-3.9046,-4.9481,-4.882,-4.8681,-4.8604,-4.8604,-4.8604,-4.8604,-4.8604,-4.8604,-4.8604,-4.8604,-4.8604,-4.8604,-4.8604,-4.8604,-4.8604,-4.8604,-4.8604,-4.8604,-4.8604,-4.8604,-4.8604,-4.8604,-4.8604,-4.8604,-4.8604,-4.8604,-4.8604,-4.8604,-4.8604,-4.8604,-4.8604,-4.8604,-4.8604,-4.8558,-4.8419,-4.8096,-4.7681,-4.745,-4.7065,-4.6388,-4.588,-4.5526,-4.5234,-4.4818,-4.4625,-4.461,-4.461,-4.461,-4.4564,-4.4471,-4.4317,-4.4286,-4.4178,-4.4018,-4.3965,-4.392,-4.38,-4.3747,-4.3184,-4.3124,-4.3592,-4.3449,-4.36,-4.4289,-4.4251,-4.4289,-4.4251,-4.3942,-4.3512,-4.3438,-4.3344,-4.3344,-4.3305,-4.3305,-4.317,-4.2835,-4.2835,-4.2915,-4.301,-4.313,-4.3305,-4.3305,-4.3305,-4.3305,-4.3305,-4.3305,-4.3305,-4.3305,-4.3305,-4.3305,-4.3305,-4.3305,-4.3305,-4.3305,-4.3305,-4.3305,-4.3305,-4.3305,-4.3305,-4.323,-4.311,-4.2641,-4.2132,-4.1639,-4.0935,-4.0187,-3.9723,-3.9538,-3.9463,-3.9388,-3.9388,-3.9388,-3.9388,-3.9388,-4.9266,-4.862,-4.8604,-4.8604,-4.8604,-4.8604,-4.8604,-4.8604,-4.8604,-4.8604,-4.8604,-4.8604,-4.8604,-4.8604,-4.8604,-4.8604,-4.8604,-4.8604,-4.8604,-4.8604,-4.8604,-4.8604,-4.8604,-4.8604,-4.8604,-4.8604,-4.8604,-4.8604,-4.8604,-4.8604,-4.8604,-4.8604,-4.8604,-4.8604,-4.8604,-4.8604,-4.8419,-4.8189,-4.8081,-4.7758,-4.708,-4.6419,-4.5618,-4.5257,-4.481,-4.461,-4.461,-4.461,-4.461,-4.461,-4.461,-4.461,-4.461,-4.461,-4.461,-4.461,-4.461,-4.461,-4.4404,-4.4212,-4.4066,-4.4534,-4.412,-4.4251,-4.4496,-4.461,-4.461,-4.4534,-4.4396,-4.4143,-4.3769,-4.3596,-4.3463,-4.3344,-4.3305,-4.3305,-4.3305,-4.3305,-4.3305,-4.3305,-4.3305,-4.3305,-4.3305,-4.3305,-4.3305,-4.3305,-4.3305,-4.3305,-4.3305,-4.3305,-4.3305,-4.3305,-4.3305,-4.3305,-4.3305,-4.3305,-4.3305,-4.3305,-4.3305,-4.3305,-4.3275,-4.317,-4.306,-4.2536,-4.2021,-4.1309,-4.0606,-4.0157,-3.9679,-3.9463,-3.9388,-3.9388,-3.9388,-3.9388,-3.9388,-4.9174,-4.8604,-4.8604,-4.8604,-4.8604,-4.8604,-4.8604,-4.8604,-4.8604,-4.8604,-4.8604,-4.8604,-4.8604,-4.8604,-4.8604,-4.8604,-4.8604,-4.8604,-4.8604,-4.8604,-4.8604,-4.8604,-4.8604,-4.8604,-4.8604,-4.8604,-4.8604,-4.8604,-4.8604,-4.8604,-4.8604,-4.8604,-4.8604,-4.8604,-4.8604,-4.8604,-4.8573,-4.8496,-4.8496,-4.8327,-4.7742,-4.708,-4.6157,-4.5126,-4.4664,-4.461,-4.461,-4.461,-4.461,-4.461,-4.461,-4.461,-4.461,-4.461,-4.461,-4.461,-4.461,-4.461,-4.461,-4.4518,-4.4518,-4.461,-4.4572,-4.4572,-4.4572,-4.461,-4.461,-4.4534,-4.4435,-4.4181,-4.3808,-4.369,-4.3557,-4.3384,-4.3305,-4.3305,-4.3305,-4.3305,-4.3305,-4.3305,-4.3305,-4.3305,-4.3305,-4.3305,-4.3305,-4.3305,-4.3305,-4.3305,-4.3305,-4.3305,-4.3305,-4.3305,-4.3305,-4.3305,-4.3305,-4.3305,-4.3305,-4.3305,-4.3305,-4.3305,-4.3305,-4.3245,-4.3095,-4.2806,-4.2252,-4.1624,-4.101,-4.0487,-4.0038,-3.9649,-3.9388,-3.9388,-3.9388,-3.9388,-3.9388,-4.8712,-4.8604,-4.8604,-4.8604,-4.8604,-4.8604,-4.8604,-4.8604,-4.8604,-4.8604,-4.8604,-4.8604,-4.8604,-4.8604,-4.8604,-4.8604,-4.8604,-4.8604,-4.8604,-4.8604,-4.8604,-4.8604,-4.8604,-4.8604,-4.8604,-4.8604,-4.8604,-4.8604,-4.8604,-4.8604,-4.8604,-4.8604,-4.8604,-4.8604,-4.8604,-4.8604,-4.8604,-4.8604,-4.8604,-4.8481,-4.825,-4.765,-4.6696,-4.5449,-4.4926,-4.4687,-4.461,-4.461,-4.461,-4.461,-4.461,-4.461,-4.461,-4.461,-4.461,-4.461,-4.461,-4.461,-4.461,-4.461,-4.461,-4.461,-4.461,-4.461,-4.461,-4.461,-4.461,-4.4534,-4.4435,-4.4205,-4.3988,-4.3808,-4.3596,-4.3384,-4.3305,-4.3305,-4.3305,-4.3305,-4.3305,-4.3305,-4.3305,-4.3305,-4.3305,-4.3305,-4.3305,-4.3305,-4.3305,-4.3305,-4.3305,-4.3305,-4.3305,-4.3305,-4.3305,-4.3305,-4.3305,-4.3305,-4.3305,-4.3305,-4.3305,-4.3305,-4.3305,-4.3305,-4.314,-4.294,-4.2611,-4.2126,-4.1527,-4.0891,-4.0292,-3.9828,-3.9619,-3.9403,-3.9388,-3.9388,-3.9388,-4.8604,-4.8604,-4.8604,-4.8604,-4.8604,-4.8604,-4.8604,-4.8604,-4.8604,-4.8604,-4.8604,-4.8604,-4.8604,-4.8604,-4.8604,-4.8604,-4.8604,-4.8604,-4.8604,-4.8604,-4.8604,-4.8604,-4.8604,-4.8604,-4.8604,-4.8604,-4.8604,-4.8604,-4.8604,-4.8604,-4.8604,-4.8604,-4.8604,-4.8604,-4.8604,-4.8604,-4.8604,-4.8604,-4.8604,-4.8604,-4.8543,-4.7958,-4.6911,-4.5865,-4.5334,-4.4979,-4.4641,-4.461,-4.461,-4.461,-4.461,-4.461,-4.461,-4.461,-4.461,-4.461,-4.461,-4.461,-4.461,-4.461,-4.461,-4.461,-4.461,-4.461,-4.461,-4.461,-4.461,-4.4534,-4.4435,-4.4205,-4.4026,-4.3808,-4.3596,-4.3384,-4.3305,-4.3305,-4.3305,-4.3305,-4.3305,-4.3305,-4.3305,-4.3305,-4.3305,-4.3305,-4.3305,-4.3305,-4.3305,-4.3305,-4.3305,-4.3305,-4.3305,-4.3305,-4.3305,-4.3305,-4.3305,-4.3305,-4.3305,-4.3305,-4.3305,-4.3305,-4.3305,-4.3305,-4.3305,-4.32,-4.2865,-4.2506,-4.2051,-4.1429,-4.0726,-4.0038,-3.9768,-3.9508,-3.9433,-3.9388,-3.9388,-4.8604,-4.8604,-4.8604,-4.8604,-4.8604,-4.8604,-4.8604,-4.8604,-4.8604,-4.8604,-4.8604,-4.8604,-4.8604,-4.8604,-4.8604,-4.8604,-4.8604,-4.8604,-4.8604,-4.8604,-4.8604,-4.8604,-4.8604,-4.8604,-4.8604,-4.8604,-4.8604,-4.8604,-4.8604,-4.8604,-4.8604,-4.8604,-4.8604,-4.8604,-4.8604,-4.8604,-4.8604,-4.8604,-4.8604,-4.8604,-4.845,-4.7927,-4.7142,-4.6018,-4.5757,-4.5311,-4.491,-4.4649,-4.4625,-4.461,-4.461,-4.461,-4.461,-4.461,-4.461,-4.461,-4.461,-4.461,-4.461,-4.461,-4.461,-4.461,-4.461,-4.461,-4.461,-4.4572,-4.4572,-4.4534,-4.4396,-4.4166,-4.3949,-4.3808,-4.3596,-4.3384,-4.3305,-4.3305,-4.3305,-4.3305,-4.3305,-4.3305,-4.3305,-4.3305,-4.3305,-4.3305,-4.3305,-4.3305,-4.3305,-4.3305,-4.3305,-4.3305,-4.3305,-4.3305,-4.3305,-4.3305,-4.3305,-4.3305,-4.3305,-4.3305,-4.3305,-4.3305,-4.3305,-4.3305,-4.3305,-4.3305,-4.3245,-4.2925,-4.2447,-4.1961,-4.1205,-4.0546,-3.9993,-3.9597,-3.9463,-3.9403,-3.9388,-4.8604,-4.8604,-4.8604,-4.8604,-4.8604,-4.8604,-4.8604,-4.8604,-4.8604,-4.8604,-4.8604,-4.8604,-4.8604,-4.8604,-4.8604,-4.8604,-4.8604,-4.8604,-4.8604,-4.8604,-4.8604,-4.8604,-4.8604,-4.8604,-4.8604,-4.8604,-4.8604,-4.8604,-4.8604,-4.8604,-4.8604,-4.8604,-4.8604,-4.8604,-4.8604,-4.8604,-4.8604,-4.8604,-4.8604,-4.8604,-4.8512,-4.7973,-4.7573,-4.705,-4.6296,-4.5572,-4.5295,-4.4895,-4.461,-4.461,-4.461,-4.461,-4.461,-4.461,-4.461,-4.461,-4.461,-4.461,-4.461,-4.461,-4.461,-4.461,-4.461,-4.461,-4.461,-4.4572,-4.4549,-4.4358,-4.4281,-4.4127,-4.3832,-4.3714,-4.3542,-4.3423,-4.3305,-4.3305,-4.3305,-4.3305,-4.3305,-4.3305,-4.3305,-4.3305,-4.3305,-4.3305,-4.3305,-4.3305,-4.3305,-4.3305,-4.3305,-4.3305,-4.3305,-4.3305,-4.3305,-4.3305,-4.3305,-4.3305,-4.3305,-4.3305,-4.3305,-4.3305,-4.3305,-4.3305,-4.3305,-4.3305,-4.3305,-4.3185,-4.2716,-4.2162,-4.1632,-4.104,-4.0457,-3.9933,-3.9484,-3.9418,-3.9403,-4.8604,-4.8604,-4.8604,-4.8604,-4.8604,-4.8604,-4.8604,-4.8604,-4.8604,-4.8604,-4.8604,-4.8604,-4.8604,-4.8604,-4.8604,-4.8604,-4.8604,-4.8604,-4.8604,-4.8604,-4.8604,-4.8604,-4.8604,-4.8604,-4.8604,-4.8604,-4.8604,-4.8604,-4.8604,-4.8604,-4.8604,-4.8604,-4.8604,-4.8604,-4.8604,-4.8604,-4.8604,-4.8604,-4.8604,-4.8604,-4.8527,-4.8312,-4.8004,-4.7619,-4.665,-4.6065,-4.5572,-4.4979,-4.4625,-4.461,-4.461,-4.461,-4.461,-4.461,-4.461,-4.461,-4.461,-4.461,-4.461,-4.461,-4.461,-4.461,-4.461,-4.461,-4.461,-4.4572,-4.4496,-4.432,-4.4166,-4.3988,-4.3714,-4.3557,-4.3423,-4.3329,-4.3305,-4.3305,-4.3305,-4.3305,-4.3305,-4.3305,-4.3305,-4.3305,-4.3305,-4.3305,-4.3305,-4.3305,-4.3305,-4.3305,-4.3305,-4.3305,-4.3305,-4.3305,-4.3305,-4.3305,-4.3305,-4.3305,-4.3305,-4.3305,-4.3305,-4.3305,-4.3305,-4.3305,-4.3305,-4.3305,-4.3305,-4.311,-4.2865,-4.2521,-4.2081,-4.1489,-4.092,-4.0412,-3.9918,-3.9469,-3.9418,-4.8744,-4.8702,-4.862,-4.8604,-4.8604,-4.8604,-4.8604,-4.8604,-4.8604,-4.8604,-4.8604,-4.8604,-4.8604,-4.8604,-4.8604,-4.8604,-4.8604,-4.8604,-4.8604,-4.8604,-4.8604,-4.8604,-4.8604,-4.8604,-4.8604,-4.8604,-4.8604,-4.8604,-4.8604,-4.8604,-4.8604,-4.8604,-4.8604,-4.8604,-4.8604,-4.8604,-4.8604,-4.8604,-4.8604,-4.8604,-4.8589,-4.8589,-4.8296,-4.7819,-4.7204,-4.6603,-4.6065,-4.5249,-4.488,-4.4902,-4.4687,-4.461,-4.461,-4.461,-4.461,-4.461,-4.461,-4.461,-4.461,-4.461,-4.461,-4.461,-4.461,-4.461,-4.4572,-4.4572,-4.4435,-4.4205,-4.4011,-4.3832,-4.3636,-4.3423,-4.3344,-4.3305,-4.3305,-4.3305,-4.3305,-4.3305,-4.3305,-4.3305,-4.3305,-4.3305,-4.3305,-4.3305,-4.3305,-4.3305,-4.3305,-4.3305,-4.3305,-4.3305,-4.3305,-4.3305,-4.3305,-4.3305,-4.3305,-4.3305,-4.3305,-4.3305,-4.3305,-4.3305,-4.3305,-4.3305,-4.3305,-4.3305,-4.3305,-4.323,-4.3105,-4.2806,-4.2545,-4.2036,-4.1474,-4.092,-4.0397,-3.9873,-3.9433,-4.9128,-4.8955,-4.8718,-4.8604,-4.8604,-4.8604,-4.8604,-4.8604,-4.8604,-4.8604,-4.8604,-4.8604,-4.8604,-4.8604,-4.8604,-4.8604,-4.8604,-4.8604,-4.8604,-4.8604,-4.8604,-4.8604,-4.8604,-4.8604,-4.8604,-4.8604,-4.8604,-4.8604,-4.8604,-4.8604,-4.8604,-4.8604,-4.8604,-4.8604,-4.8604,-4.8604,-4.8604,-4.8604,-4.8604,-4.8604,-4.8604,-4.8604,-4.8543,-4.8389,-4.7912,-4.7481,-4.7373,-4.6188,-4.5418,-4.5387,-4.5026,-4.4656,-4.4641,-4.461,-4.461,-4.461,-4.461,-4.461,-4.461,-4.461,-4.461,-4.461,-4.461,-4.4572,-4.4549,-4.4381,-4.4243,-4.4065,-4.3871,-4.3636,-4.3463,-4.329,-4.3305,-4.3305,-4.3305,-4.3305,-4.3305,-4.3305,-4.3305,-4.3305,-4.3305,-4.3305,-4.3305,-4.3305,-4.3305,-4.3305,-4.3305,-4.3305,-4.3305,-4.3305,-4.3305,-4.3305,-4.3305,-4.3305,-4.3305,-4.3305,-4.3305,-4.3305,-4.3305,-4.3305,-4.3305,-4.3305,-4.3305,-4.3305,-4.3305,-4.3305,-4.329,-4.309,-4.2836,-4.2545,-4.2066,-4.1384,-4.0681,-4.0038,-3.9664,-4.9235,-4.9184,-4.9072,-4.8867,-4.8604,-4.8604,-4.8604,-4.8604,-4.8604,-4.8604,-4.8604,-4.8604,-4.8604,-4.8604,-4.8604,-4.8604,-4.8604,-4.8604,-4.8604,-4.8604,-4.8604,-4.8604,-4.8604,-4.8604,-4.8604,-4.8604,-4.8604,-4.8604,-4.8604,-4.8604,-4.8604,-4.8604,-4.8604,-4.8604,-4.8604,-4.8604,-4.8604,-4.8604,-4.8604,-4.8604,-4.8604,-4.8604,-4.8604,-4.8558,-4.7958,-4.765,-4.745,-4.6696,-4.6095,-4.5649,-4.5395,-4.5056,-4.4718,-4.4656,-4.461,-4.461,-4.461,-4.461,-4.461,-4.461,-4.461,-4.461,-4.4572,-4.4549,-4.4473,-4.432,-4.4127,-4.391,-4.3729,-4.3557,-4.3384,-4.329,-4.3305,-4.3305,-4.3305,-4.3305,-4.3305,-4.3305,-4.3305,-4.3305,-4.3305,-4.3305,-4.3305,-4.3305,-4.3305,-4.3305,-4.3305,-4.3305,-4.3305,-4.3305,-4.3305,-4.3305,-4.3305,-4.3305,-4.3305,-4.3305,-4.3305,-4.3305,-4.3305,-4.3305,-4.3305,-4.3305,-4.3305,-4.3305,-4.3305,-4.3305,-4.3305,-4.3305,-4.3125,-4.288,-4.2387,-4.1796,-4.1025,-4.0322,-3.9963,-4.9661,-4.9396,-4.9396,-4.9194,-4.8826,-4.8744,-4.8718,-4.8718,-4.8604,-4.8604,-4.8604,-4.8604,-4.8604,-4.8604,-4.8604,-4.8604,-4.8604,-4.8604,-4.8604,-4.8604,-4.8604,-4.8604,-4.8604,-4.8604,-4.8604,-4.8604,-4.8604,-4.8604,-4.8604,-4.8604,-4.8604,-4.8604,-4.8604,-4.8604,-4.8604,-4.8604,-4.8604,-4.8604,-4.8604,-4.8604,-4.8604,-4.8604,-4.8604,-4.8573,-4.8173,-4.8019,-4.7819,-4.7296,-4.6773,-4.628,-4.5834,-4.5357,-4.4987,-4.471,-4.4625,-4.461,-4.4625,-4.4625,-4.461,-4.461,-4.461,-4.461,-4.461,-4.4496,-4.4358,-4.4243,-4.4026,-4.3754,-4.3636,-4.3518,-4.3305,-4.3305,-4.3305,-4.3305,-4.3305,-4.3305,-4.3305,-4.3305,-4.3305,-4.3305,-4.3305,-4.3319,-4.3319,-4.3319,-4.3305,-4.3305,-4.3305,-4.3305,-4.3305,-4.3305,-4.3305,-4.3305,-4.3305,-4.3305,-4.3305,-4.3305,-4.3305,-4.3305,-4.3305,-4.3305,-4.3305,-4.3305,-4.3305,-4.3305,-4.3305,-4.3305,-4.3305,-4.3305,-4.3305,-4.326,-4.2701,-4.2096,-4.1752,-4.1055,-4.0442,-5.0509,-4.9637,-4.9637,-4.9517,-4.9356,-4.9062,-4.8996,-4.8939,-4.8759,-4.8604,-4.8604,-4.8604,-4.8604,-4.8604,-4.8604,-4.8604,-4.8604,-4.8604,-4.8604,-4.8604,-4.8604,-4.8604,-4.8604,-4.8604,-4.8604,-4.8604,-4.8604,-4.8604,-4.8604,-4.8604,-4.8604,-4.8604,-4.8604,-4.8604,-4.8604,-4.8604,-4.8604,-4.8604,-4.8604,-4.8604,-4.8604,-4.8604,-4.8604,-4.8558,-4.8496,-4.8389,-4.8235,-4.7912,-4.745,-4.7127,-4.6342,-4.5865,-4.5588,-4.5095,-4.4849,-4.471,-4.4741,-4.471,-4.4633,-4.4625,-4.461,-4.461,-4.461,-4.4511,-4.4281,-4.4127,-4.391,-4.3636,-4.3553,-4.3429,-4.3319,-4.3349,-4.3409,-4.3305,-4.3305,-4.3424,-4.3439,-4.3544,-4.3589,-4.3858,-4.3589,-4.3349,-4.3334,-4.3334,-4.3305,-4.3305,-4.3305,-4.3305,-4.3305,-4.3305,-4.3305,-4.3305,-4.3305,-4.3305,-4.3305,-4.3305,-4.3305,-4.3305,-4.3305,-4.3305,-4.3305,-4.3305,-4.3305,-4.3305,-4.3305,-4.3305,-4.3305,-4.3305,-4.3305,-4.326,-4.2895,-4.2425,-4.2156,-4.1811,-4.116,-5.1631,-5.1299,-5.0783,-5.0547,-5.0393,-4.9557,-4.921,-4.9169,-4.898,-4.8759,-4.862,-4.8604,-4.8604,-4.8604,-4.8604,-4.8604,-4.8604,-4.8604,-4.8604,-4.8604,-4.8604,-4.8604,-4.8604,-4.8604,-4.8604,-4.8604,-4.8604,-4.8604,-4.8604,-4.8604,-4.8604,-4.8604,-4.8604,-4.8604,-4.8604,-4.8604,-4.8604,-4.8604,-4.8604,-4.8604,-4.8604,-4.8604,-4.8604,-4.8604,-4.8604,-4.8604,-4.8604,-4.8266,-4.805,-4.7742,-4.6896,-4.665,-4.6326,-4.5849,-4.5649,-4.5511,-4.5526,-4.568,-4.528,-4.4979,-4.4625,-4.4656,-4.4587,-4.4488,-4.4166,-4.4065,-4.3832,-4.3677,-4.3813,-4.3673,-4.3424,-4.3798,-4.3843,-4.3394,-4.3379,-4.3648,-4.3783,-4.3947,-4.4167,-4.4616,-4.4646,-4.4182,-4.4003,-4.3633,-4.3514,-4.3544,-4.3574,-4.3394,-4.3334,-4.3305,-4.3305,-4.3305,-4.3305,-4.3305,-4.3305,-4.3305,-4.3305,-4.3305,-4.3305,-4.3305,-4.3305,-4.3305,-4.3305,-4.3305,-4.3305,-4.3305,-4.3305,-4.3305,-4.3305,-4.317,-4.294,-4.2701,-4.247,-4.2216,-4.1871,-5.2455,-5.2172,-5.1683,-5.148,-5.1273,-5.0002,-4.9396,-4.9275,-4.9144,-4.898,-4.8816,-4.8759,-4.8661,-4.862,-4.8604,-4.8604,-4.8604,-4.8604,-4.8604,-4.8604,-4.8604,-4.8604,-4.8604,-4.8604,-4.8604,-4.8604,-4.8604,-4.8604,-4.8604,-4.8604,-4.8604,-4.8604,-4.8604,-4.8604,-4.8604,-4.8604,-4.8604,-4.8604,-4.8604,-4.8604,-4.8604,-4.8604,-4.8604,-4.8604,-4.8604,-4.8604,-4.8604,-4.8527,-4.8419,-4.8004,-4.7681,-4.7419,-4.7034,-4.6665,-4.6403,-4.6234,-4.6219,-4.6311,-4.5911,-4.5326,-4.5172,-4.5387,-4.4926,-4.4465,-4.4166,-4.405,-4.4013,-4.3988,-4.4148,-4.4182,-4.4122,-4.4511,-4.4407,-4.3932,-4.3977,-4.4317,-4.4451,-4.4646,-4.4751,-4.5229,-4.5289,-4.4915,-4.4541,-4.4137,-4.3768,-4.3828,-4.3873,-4.3663,-4.3484,-4.3469,-4.3439,-4.3394,-4.3349,-4.3334,-4.3319,-4.3305,-4.3305,-4.3305,-4.3305,-4.3305,-4.3305,-4.3305,-4.3305,-4.3305,-4.3305,-4.3305,-4.3305,-4.3305,-4.3305,-4.3305,-4.323,-4.3,-4.2785,-4.259,-4.2372,-5.2975,-5.2333,-5.2227,-5.2227,-5.1941,-5.0538,-4.9646,-4.9381,-4.9316,-4.921,-4.8996,-4.898,-4.8883,-4.8702,-4.8646,-4.8646,-4.8604,-4.8604,-4.8604,-4.8604,-4.8604,-4.8604,-4.8604,-4.8604,-4.8604,-4.8604,-4.8604,-4.8604,-4.8604,-4.8604,-4.8604,-4.8604,-4.8604,-4.8604,-4.8604,-4.8604,-4.8604,-4.8604,-4.8604,-4.8604,-4.8604,-4.8604,-4.8604,-4.8604,-4.8604,-4.8604,-4.8604,-4.8573,-4.8573,-4.8327,-4.8019,-4.7773,-4.7434,-4.7019,-4.6788,-4.668,-4.6757,-4.6542,-4.6542,-4.5988,-4.5895,-4.6018,-4.5403,-4.478,-4.4404,-4.4278,-4.424,-4.4379,-4.4608,-4.4881,-4.508,-4.517,-4.5244,-4.508,-4.502,-4.5155,-4.5259,-4.5349,-4.5409,-4.5544,-4.5529,-4.5259,-4.4915,-4.4485,-4.4347,-4.4407,-4.4466,-4.4362,-4.4152,-4.3913,-4.3798,-4.3574,-4.3514,-4.3394,-4.3349,-4.3319,-4.3305,-4.3305,-4.3305,-4.3305,-4.3305,-4.3305,-4.3305,-4.3305,-4.3305,-4.3305,-4.3305,-4.3305,-4.3305,-4.3305,-4.3305,-4.3245,-4.3015,-4.3075,-4.2925,-5.4044,-5.3781,-5.3281,-5.3043,-5.2906,-5.1905,-5.1054,-5.0361,-4.9781,-4.9396,-4.921,-4.921,-4.9194,-4.9087,-4.8965,-4.8883,-4.88,-4.8718,-4.8604,-4.8604,-4.8604,-4.8604,-4.8604,-4.8604,-4.8604,-4.8604,-4.8604,-4.8604,-4.8604,-4.8604,-4.8604,-4.8604,-4.8604,-4.8604,-4.8604,-4.8604,-4.8604,-4.8604,-4.8604,-4.8604,-4.8604,-4.8604,-4.8604,-4.8604,-4.8604,-4.8604,-4.8604,-4.8604,-4.8604,-4.8496,-4.8419,-4.8312,-4.8281,-4.8127,-4.8019,-4.7896,-4.7357,-4.6742,-4.708,-4.668,-4.6449,-4.661,-4.6054,-4.5489,-4.5041,-4.4747,-4.4654,-4.486,-4.5222,-4.5529,-4.5708,-4.5798,-4.5798,-4.5723,-4.5693,-4.5768,-4.5888,-4.6022,-4.6097,-4.6232,-4.6187,-4.5783,-4.5382,-4.517,-4.5035,-4.5065,-4.508,-4.505,-4.4825,-4.4601,-4.4317,-4.4052,-4.3798,-4.3708,-4.3424,-4.3334,-4.3319,-4.3305,-4.3305,-4.3305,-4.3305,-4.3305,-4.3305,-4.3305,-4.3305,-4.3305,-4.3305,-4.3305,-4.3305,-4.3305,-4.3305,-4.3305,-4.3305,-4.329,-4.3275,-5.4512,-5.4448,-5.4011,-5.3848,-5.3699,-5.2992,-5.2314,-5.172,-5.0978,-5.0384,-4.9924,-4.9924,-4.9701,-4.9291,-4.9184,-4.9062,-4.8939,-4.8857,-4.8718,-4.8604,-4.8671,-4.8604,-4.8604,-4.8646,-4.8604,-4.8604,-4.8604,-4.8604,-4.8604,-4.8604,-4.8604,-4.8604,-4.8604,-4.8604,-4.8604,-4.8604,-4.8604,-4.8604,-4.8604,-4.8604,-4.8604,-4.8604,-4.8604,-4.8604,-4.8604,-4.8604,-4.8604,-4.8604,-4.8604,-4.8604,-4.8604,-4.8604,-4.8604,-4.8573,-4.8573,-4.8389,-4.8035,-4.7727,-4.7835,-4.7373,-4.7209,-4.7037,-4.6686,-4.6133,-4.5733,-4.5435,-4.5378,-4.5496,-4.5927,-4.6277,-4.6352,-4.6396,-4.6292,-4.6187,-4.6247,-4.6322,-4.6486,-4.6666,-4.6845,-4.7025,-4.683,-4.6369,-4.6055,-4.5843,-4.5738,-4.5813,-4.6022,-4.6232,-4.5843,-4.5349,-4.5035,-4.4736,-4.4392,-4.4107,-4.3768,-4.3499,-4.3439,-4.3409,-4.3305,-4.3305,-4.3305,-4.3305,-4.3305,-4.3305,-4.3305,-4.3305,-4.3305,-4.3305,-4.3305,-4.3305,-4.3305,-4.3305,-4.3305,-4.329,-4.329,-5.4512,-5.4512,-5.4512,-5.4448,-5.4399,-5.3732,-5.3449,-5.3399,-5.2665,-5.1813,-5.1032,-5.0897,-5.0477,-5.0065,-4.9829,-4.9686,-4.9606,-4.9501,-4.9365,-4.8836,-4.9147,-4.9172,-4.9147,-4.8877,-4.9253,-4.8944,-4.8769,-4.8852,-4.8646,-4.8604,-4.8604,-4.8604,-4.8604,-4.8604,-4.8604,-4.8604,-4.8604,-4.8604,-4.8604,-4.8604,-4.8604,-4.8604,-4.8604,-4.8604,-4.8604,-4.8604,-4.8604,-4.8604,-4.8604,-4.8604,-4.8604,-4.8604,-4.8604,-4.8604,-4.8604,-4.8573,-4.8389,-4.8389,-4.8296,-4.7942,-4.7942,-4.7676,-4.7186,-4.6787,-4.6475,-4.6048,-4.594,-4.601,-4.6379,-4.6696,-4.683,-4.6875,-4.6815,-4.6785,-4.6815,-4.6845,-4.692,-4.704,-4.71,-4.7204,-4.704,-4.6638,-4.6621,-4.6381,-4.6396,-4.6516,-4.6666,-4.6995,-4.6785,-4.6142,-4.5768,-4.5424,-4.517,-4.474,-4.4172,-4.3902,-4.3663,-4.3544,-4.3499,-4.3499,-4.3648,-4.3514,-4.3305,-4.3305,-4.3305,-4.3305,-4.3305,-4.3305,-4.3305,-4.3305,-4.3305,-4.3305,-4.3305,-4.3305,-4.329,-5.4512,-5.4512,-5.4512,-5.4512,-5.448,-5.4335,-5.4222,-5.4239,-5.4044,-5.3129,-5.2065,-5.1849,-5.1704,-5.1299,-5.0984,-5.0849,-5.0811,-5.0406,-5.0538,-5.0368,-5.029,-5.0096,-5.0384,-5.0174,-5.0329,-5.0267,-4.9931,-4.9219,-4.8852,-4.8687,-4.8604,-4.8604,-4.8604,-4.8604,-4.8604,-4.8604,-4.8604,-4.8604,-4.8604,-4.8604,-4.8604,-4.8604,-4.8604,-4.8604,-4.8604,-4.8604,-4.8604,-4.8604,-4.8604,-4.8604,-4.8604,-4.8604,-4.8604,-4.8604,-4.8604,-4.8604,-4.8573,-4.8604,-4.8558,-4.8347,-4.8326,-4.8164,-4.781,-4.7588,-4.7211,-4.6674,-4.6455,-4.6584,-4.6753,-4.7025,-4.7234,-4.7279,-4.7309,-4.7309,-4.7309,-4.7309,-4.7309,-4.7309,-4.7309,-4.7219,-4.7115,-4.7055,-4.701,-4.7025,-4.707,-4.71,-4.713,-4.7249,-4.7219,-4.683,-4.6486,-4.6187,-4.601,-4.5592,-4.4919,-4.4466,-4.4287,-4.4167,-4.4137,-4.4107,-4.4007,-4.3753,-4.3514,-4.3364,-4.3305,-4.3305,-4.3305,-4.3305,-4.3305,-4.3305,-4.3305,-4.3305,-4.3305,-4.3305,-4.3305,-5.3477,-5.3529,-5.3891,-5.4218,-5.4477,-5.4512,-5.4512,-5.4512,-5.4512,-5.4027,-5.3213,-5.2889,-5.2561,-5.2314,-5.196,-5.178,-5.1707,-5.1394,-5.1075,-5.1091,-5.1203,-5.1016,-5.1091,-5.1203,-5.0978,-5.0881,-5.0245,-4.9566,-4.9203,-4.8687,-4.8604,-4.8646,-4.8646,-4.8646,-4.8604,-4.8604,-4.8604,-4.8604,-4.8604,-4.8604,-4.8604,-4.8604,-4.8604,-4.8604,-4.8604,-4.8604,-4.8604,-4.8604,-4.8604,-4.8604,-4.8604,-4.8327,-4.8327,-4.8435,-4.8404,-4.8343,-4.8373,-4.8604,-4.8604,-4.8563,-4.8495,-4.8244,-4.8076,-4.7743,-4.739,-4.6914,-4.6884,-4.6965,-4.6995,-4.7279,-4.7279,-4.7309,-4.7309,-4.7309,-4.7309,-4.7309,-4.7309,-4.7309,-4.7309,-4.7279,-4.7219,-4.7204,-4.7174,-4.7174,-4.7219,-4.7219,-4.7309,-4.7309,-4.7309,-4.7309,-4.704,-4.6815,-4.6563,-4.6294,-4.5696,-4.5274,-4.4975,-4.4855,-4.4751,-4.4511,-4.4347,-4.4032,-4.3763,-4.3529,-4.3379,-4.3305,-4.3305,-4.3305,-4.3305,-4.3305,-4.3305,-4.3305,-4.3305,-4.3305,-4.3305,-5.2239,-5.2291,-5.2959,-5.3598,-5.4167,-5.4184,-5.4236,-5.4322,-5.4356,-5.4408,-5.4303,-5.3765,-5.3112,-5.27,-5.2439,-5.2191,-5.212,-5.2262,-5.1921,-5.1756,-5.1647,-5.1865,-5.1809,-5.159,-5.159,-5.1294,-5.0745,-5.0361,-5.0049,-4.9574,-4.9213,-4.8944,-4.8811,-4.8785,-4.8728,-4.8604,-4.8604,-4.8604,-4.8604,-4.8604,-4.8604,-4.8604,-4.8604,-4.8604,-4.8604,-4.8604,-4.8604,-4.8604,-4.8604,-4.8604,-4.8589,-4.8389,-4.8142,-4.8235,-4.8189,-4.8127,-4.8173,-4.8404,-4.8558,-4.8563,-4.837,-4.8175,-4.8091,-4.788,-4.7538,-4.7366,-4.7336,-4.7264,-4.7294,-4.7309,-4.7309,-4.7352,-4.7352,-4.7396,-4.7396,-4.7396,-4.7396,-4.7396,-4.7396,-4.7396,-4.7396,-4.7396,-4.7352,-4.7352,-4.7309,-4.7309,-4.7309,-4.7309,-4.7309,-4.7309,-4.7189,-4.704,-4.689,-4.6606,-4.6262,-4.6127,-4.5768,-4.5529,-4.5379,-4.5005,-4.4631,-4.4302,-4.3932,-4.3633,-4.3499,-4.3379,-4.3319,-4.3305,-4.3305,-4.3305,-4.3305,-4.3305,-4.3305,-4.3305,-4.3305,-5.217,-5.2205,-5.236,-5.2546,-5.2653,-5.2653,-5.3011,-5.3563,-5.3615,-5.3925,-5.4308,-5.4399,-5.4158,-5.4044,-5.3864,-5.3616,-5.3332,-5.3332,-5.3449,-5.3466,-5.2974,-5.3043,-5.2974,-5.2574,-5.2503,-5.2131,-5.168,-5.1459,-5.0881,-5.0615,-5.056,-5.0445,-4.9789,-4.9646,-4.9526,-4.9284,-4.8877,-4.8918,-4.8877,-4.8877,-4.8769,-4.8728,-4.8604,-4.8604,-4.8604,-4.8604,-4.8604,-4.8604,-4.8604,-4.8604,-4.8558,-4.845,-4.8173,-4.7958,-4.7942,-4.7927,-4.7973,-4.8235,-4.8389,-4.8682,-4.8604,-4.848,-4.8396,-4.8286,-4.7992,-4.7694,-4.7566,-4.7322,-4.7309,-4.7309,-4.7309,-4.7424,-4.7452,-4.7581,-4.7624,-4.7624,-4.7624,-4.7624,-4.7624,-4.7624,-4.7624,-4.7581,-4.7452,-4.7467,-4.7424,-4.7381,-4.7309,-4.7309,-4.7309,-4.7309,-4.7309,-4.7248,-4.7143,-4.6785,-4.6441,-4.6815,-4.6636,-4.6352,-4.5995,-4.5708,-4.5244,-4.4586,-4.4216,-4.4097,-4.3693,-4.3439,-4.3379,-4.3424,-4.3305,-4.3305,-4.3305,-4.3305,-4.3305,-4.3305,-4.3305]},{"header":{"parameterUnit":"m.s-1","parameterCategory":1,"la1":31.0,"la2":29.5877,"lo1":-88.7671,"lo2":-86.6584,"dy":0.0162,"dx":0.0185,"nx":115,"ny":88,"refTime":"2024-05-24T06:00:00:Z","depth":0,"parameterNumber":3,"parameterNumberName":"V-component_of_WINDS"},"data":[0.0,0.0,0.0,0.0,0.0,0.0,0.0,0.0,0.0,0.0,0.0,0.0,0.0,0.0,0.0,0.0,0.0,0.0,0.0,0.0,0.0,0.0,0.0,0.0,0.0,0.0,0.0,0.0,0.0,0.0,0.0,0.0,0.0,0.0,0.0,0.0,0.0,0.0,0.0,0.0,0.0,0.0,0.0,0.0,0.0,0.0,0.0,0.0,0.0,0.0,0.0,0.0,0.0,0.0,0.0,0.0,0.0,0.0,0.0,0.0,0.0,0.0,0.0,0.0,0.0,0.0,0.0,0.0,0.0,0.0,0.0,0.0,0.0,0.0,0.0,0.0,0.0,0.0,0.0,0.0,0.0,0.0,0.0,0.0,0.0,0.0,0.0,0.0,0.0,0.0,0.0,0.0,0.0,0.0,0.0,0.0,0.0,0.0,0.0,0.0,0.0,0.0,0.0,0.0,0.0,0.0,0.0,0.0,0.0,0.0,0.0,0.0,0.0,0.0,0.0,0.0,0.0,0.0,0.0,0.0,0.0,0.0,0.0,0.0,0.0,0.0,0.0,0.0,0.0,0.0,0.0,0.0,0.0,0.0,0.0,0.0,0.0,0.0,0.0,0.0,0.0,0.0,0.0,0.0,0.0,0.0,0.0,0.0,0.0,0.0,0.0,0.0,0.0,0.0,0.0,0.0,0.0,0.0,0.0,0.0,0.0,0.0,0.0,0.0,0.0,0.0,0.0,0.0,0.0,0.0,0.0,0.0,0.0,0.0,0.0,0.0,0.0,0.0,0.0,0.0,0.0,0.0,0.0,0.0,0.0,0.0,0.0,0.0,0.0,0.0,0.0,0.0,0.0,0.0,0.0,0.0,0.0,0.0,0.0,0.0,0.0,0.0,0.0,0.0,0.0,0.0,0.0,0.0,0.0,0.0,0.0,0.0,0.0,0.0,0.0,0.0,0.0,0.0,0.0,0.0,0.0,0.0,0.0,0.0,0.0,0.0,0.0,0.0,0.0,0.0,0.0,0.0,0.0,0.0,0.0,0.0,0.0,0.0,0.0,0.0,0.0,0.0,0.0,0.0,0.0,0.0,0.0,0.0,0.0,0.0,0.0,0.0,0.0,0.0,0.0,0.0,0.0,0.0,0.0,0.0,0.0,0.0,0.0,0.0,0.0,0.0,0.0,0.0,0.0,0.0,0.0,0.0,0.0,0.0,0.0,0.0,0.0,0.0,0.0,0.0,0.0,0.0,0.0,0.0,0.0,0.0,0.0,0.0,0.0,0.0,0.0,0.0,0.0,0.0,0.0,0.0,0.0,0.0,0.0,0.0,0.0,0.0,0.0,0.0,0.0,0.0,0.0,0.0,0.0,0.0,0.0,0.0,0.0,0.0,0.0,0.0,0.0,0.0,0.0,0.0,0.0,0.0,0.0,0.0,0.0,0.0,0.0,0.0,0.0,0.0,0.0,0.0,0.0,0.0,0.0,0.0,0.0,0.0,0.0,0.0,0.0,0.0,0.0,0.0,0.0,0.0,0.0,0.0,0.0,0.0,0.0,0.0,0.0,0.0,0.0,0.0,0.0,0.0,0.0,0.0,0.0,0.0,0.0,0.0,0.0,0.0,0.0,0.0,0.0,0.0,0.0,0.0,0.0,0.0,0.0,0.0,0.0,0.0,0.0,0.0,0.0,0.0,0.0,0.0,0.0,0.0,0.0,0.0,0.0,0.0,0.0,0.0,0.0,0.0,0.0,0.0,0.0,0.0,0.0,0.0,0.0,0.0,0.0,0.0,0.0,0.0,0.0,0.0,0.0,0.0,0.0,0.0,0.0,0.0,0.0,0.0,0.0,0.0,0.0,0.0,0.0,0.0,0.0,0.0,0.0,0.0,0.0,0.0,0.0,0.0,0.0,0.0,0.0,0.0,0.0,0.0,0.0,0.0,0.0,0.0,0.0,0.0,0.0,0.0,0.0,0.0,0.0,0.0,0.0,0.0,0.0,0.0,0.0,0.0,0.0,0.0,0.0,0.0,0.0,0.0,0.0,0.0,0.0,0.0,0.0,0.0,0.0,0.0,0.0,0.0,0.0,0.0,0.0,0.0,0.0,0.0,0.0,0.0,0.0,0.0,0.0,0.0,0.0,0.0,0.0,0.0,0.0,0.0,0.0,0.0,0.0,0.0,0.0,0.0,0.0,0.0,0.0,0.0,0.0,0.0,0.0,0.0,0.0,0.0,0.0,0.0,0.0,0.0,0.0,0.0,0.0,0.0,0.0,0.0,0.0,0.0,0.0,0.0,0.0,0.0,0.0,0.0,0.0,0.0,0.0,0.0,0.0,0.0,0.0,0.0,0.0,0.0,0.0,0.0,0.0,0.0,0.0,0.0,0.0,0.0,0.0,0.0,0.0,0.0,0.0,0.0,0.0,0.0,0.0,0.0,0.0,0.0,0.0,0.0,0.0,0.0,0.0,0.0,0.0,0.0,0.0,0.0,0.0,0.0,0.0,0.0,0.0,0.0,0.0,0.0,0.0,0.0,0.0,0.0,0.0,0.0,0.0,0.0,0.0,0.0,0.0,0.0,0.0,0.0,0.0,0.0,0.0,0.0,0.0,0.0,0.0,0.0,0.0,0.0,0.0,0.0,0.0,0.0,0.0,0.0,0.0,0.0,0.0,0.0,0.0,0.0,0.0,0.0,0.0,0.0,0.0,0.0,0.0,0.0,0.0,0.0,0.0,0.0,0.0,0.0,0.0,0.0,0.0,0.0,0.0,0.0,0.0,0.0,0.0,0.0,0.0,0.0,0.0,0.0,0.0,0.0,0.0,0.0,0.0,0.0,0.0,0.0,0.0,0.0,0.0,0.0,0.0,0.0,0.0,0.0,0.0,0.0,0.0,0.0,0.0,0.0,0.0,0.0,0.0,0.0,0.0,0.0,0.0,0.0,0.0,0.0,0.0,0.0,0.0,0.0,0.0,0.0,0.0,0.0,0.0,0.0,0.0,0.0,0.0,0.0,0.0,0.0,0.0,0.0,0.0,0.0,0.0,0.0,0.0,0.0,0.0,0.0,0.0,0.0,0.0,0.0,0.0,0.0,0.0,0.0,0.0,0.0,0.0,0.0,0.0,0.0,0.0,0.0,0.0,0.0,0.0,0.0,0.0,0.0,0.0,0.0,0.0,0.0,0.0,0.0,0.0,0.0,0.0,0.0,0.0,0.0,0.0,0.0,0.0,0.0,0.0,0.0,0.0,0.0,0.0,0.0,0.0,0.0,0.0,0.0,0.0,0.0,0.0,0.0,0.0,0.0,0.0,0.0,0.0,0.0,0.0,0.0,0.0,0.0,0.0,0.0,0.0,0.0,0.0,0.0,0.0,0.0,0.0,0.0,0.0,0.0,0.0,0.0,0.0,0.0,0.0,0.0,0.0,0.0,0.0,0.0,0.0,0.0,0.0,0.0,0.0,0.0,0.0,0.0,0.0,0.0,0.0,0.0,0.0,0.0,0.0,0.0,0.0,0.0,0.0,0.0,0.0,0.0,0.0,0.0,0.0,0.0,0.0,0.0,0.0,0.0,0.0,0.0,0.0,0.0,0.0,0.0,0.0,0.0,0.0,0.0,0.0,0.0,0.0,0.0,0.0,0.0,0.0,0.0,0.0,0.0,0.0,0.0,0.0,0.0,0.0,0.0,0.0,0.0,0.0,0.0,0.0,0.0,0.0,0.0,0.0,0.0,0.0,0.0,0.0,0.0,0.0,0.0,0.0,0.0,0.0,0.0,0.0,0.0,0.0,0.0,0.0,0.0,0.0,0.0,0.0,0.0,0.0,0.0,0.0,0.0,0.0,0.0,0.0,0.0,0.0,0.0,0.0,0.0,0.0,0.0,0.0,0.0,0.0,0.0,0.0,0.0,0.0,0.0,0.0,0.0,0.0,0.0,0.0,0.0,0.0,0.0,0.0,0.0,0.0,0.0,0.0,0.0,0.0,0.0,0.0,0.0,0.0,0.0,0.0,0.0,0.0,0.0,0.0,0.0,0.0,0.0,0.0,0.0,0.0,0.0,0.0,0.0,0.0,0.0,0.0,0.0,0.0,0.0,0.0,0.0,0.0,0.0,0.0,0.0,0.0,0.0,0.0,0.0,0.0,0.0,0.0,0.0,0.0,0.0,0.0,0.0,0.0,0.0,0.0,0.0,0.0,0.0,0.0,0.0,0.0,0.0,0.0,0.0,0.0,0.0,0.0,0.0,0.0,0.0,0.0,0.0,0.0,0.0,0.0,0.0,-1.8905,0.0,0.0,0.0,0.0,0.0,0.0,0.0,0.0,0.0,0.0,0.0,0.0,0.0,0.0,0.0,0.0,0.0,0.0,0.0,0.0,0.0,0.0,0.0,0.0,0.0,0.0,0.0,0.0,0.0,0.0,0.0,0.0,0.0,0.0,0.0,0.0,0.0,0.0,0.0,0.0,0.0,0.0,0.0,0.0,0.0,0.0,0.0,0.0,0.0,0.0,0.0,0.0,0.0,0.0,0.0,0.0,0.0,0.0,0.0,0.0,0.0,0.0,0.0,0.0,0.0,0.0,0.0,0.0,0.0,0.0,0.0,0.0,0.0,0.0,0.0,0.0,0.0,0.0,0.0,0.0,0.0,0.0,0.0,0.0,0.0,0.0,0.0,0.0,0.0,0.0,0.0,0.0,0.0,0.0,0.0,0.0,0.0,0.0,0.0,0.0,0.0,0.0,0.0,0.0,0.0,0.0,0.0,0.0,0.0,0.0,-2.1031,-2.0261,-1.9953,-1.9688,-1.9432,0.0,0.0,0.0,0.0,0.0,0.0,0.0,0.0,0.0,0.0,0.0,0.0,0.0,0.0,0.0,0.0,0.0,0.0,0.0,0.0,0.0,0.0,0.0,0.0,0.0,0.0,0.0,0.0,0.0,0.0,0.0,0.0,0.0,0.0,0.0,0.0,0.0,0.0,0.0,0.0,0.0,0.0,0.0,0.0,0.0,0.0,0.0,0.0,0.0,0.0,0.0,0.0,0.0,0.0,0.0,0.0,0.0,0.0,0.0,0.0,0.0,0.0,0.0,0.0,0.0,0.0,0.0,0.0,0.0,0.0,0.0,0.0,0.0,0.0,0.0,0.0,0.0,0.0,0.0,0.0,0.0,0.0,0.0,0.0,0.0,0.0,0.0,0.0,0.0,0.0,0.0,0.0,0.0,0.0,0.0,0.0,0.0,0.0,0.0,0.0,0.0,0.0,0.0,0.0,0.0,0.0,0.0,0.0,0.0,0.0,0.0,0.0,-2.0189,-1.9977,-1.9965,0.0,0.0,0.0,0.0,0.0,0.0,0.0,0.0,0.0,0.0,0.0,0.0,0.0,0.0,0.0,0.0,0.0,0.0,0.0,0.0,0.0,0.0,0.0,0.0,0.0,0.0,0.0,0.0,0.0,0.0,0.0,0.0,0.0,0.0,0.0,0.0,0.0,0.0,0.0,0.0,0.0,0.0,0.0,0.0,0.0,0.0,0.0,0.0,0.0,0.0,0.0,0.0,0.0,0.0,0.0,0.0,0.0,0.0,0.0,0.0,0.0,0.0,0.0,0.0,0.0,0.0,0.0,0.0,0.0,0.0,0.0,0.0,0.0,0.0,0.0,0.0,0.0,0.0,0.0,0.0,0.0,0.0,0.0,0.0,0.0,0.0,0.0,0.0,0.0,0.0,0.0,0.0,0.0,0.0,0.0,0.0,0.0,0.0,0.0,0.0,0.0,0.0,0.0,0.0,0.0,0.0,0.0,0.0,0.0,0.0,-2.0641,-2.0593,-2.0538,0.0,-2.0519,0.0,0.0,0.0,0.0,0.0,0.0,0.0,0.0,0.0,0.0,0.0,0.0,0.0,0.0,0.0,0.0,0.0,0.0,0.0,0.0,0.0,0.0,0.0,0.0,0.0,0.0,0.0,0.0,0.0,0.0,0.0,0.0,0.0,0.0,0.0,0.0,0.0,0.0,0.0,0.0,0.0,0.0,0.0,0.0,0.0,0.0,0.0,0.0,0.0,0.0,0.0,0.0,0.0,0.0,0.0,0.0,0.0,0.0,0.0,0.0,0.0,0.0,0.0,0.0,0.0,0.0,0.0,0.0,0.0,0.0,0.0,0.0,0.0,0.0,0.0,0.0,0.0,0.0,0.0,0.0,0.0,0.0,0.0,0.0,0.0,0.0,0.0,0.0,0.0,0.0,0.0,0.0,0.0,0.0,0.0,0.0,0.0,0.0,0.0,0.0,0.0,0.0,0.0,0.0,0.0,0.0,0.0,0.0,0.0,0.0,-2.0935,-2.0622,-2.0598,-2.0598,0.0,0.0,0.0,0.0,0.0,0.0,0.0,0.0,0.0,0.0,0.0,0.0,0.0,0.0,0.0,0.0,0.0,0.0,0.0,0.0,0.0,0.0,0.0,0.0,0.0,0.0,0.0,0.0,0.0,0.0,0.0,0.0,0.0,0.0,0.0,0.0,0.0,0.0,0.0,0.0,0.0,0.0,0.0,0.0,0.0,0.0,0.0,0.0,0.0,0.0,0.0,0.0,0.0,0.0,0.0,0.0,0.0,0.0,0.0,0.0,0.0,0.0,0.0,0.0,0.0,0.0,0.0,0.0,0.0,0.0,0.0,0.0,0.0,0.0,0.0,0.0,0.0,0.0,0.0,0.0,0.0,0.0,0.0,0.0,0.0,0.0,0.0,0.0,0.0,0.0,0.0,0.0,0.0,0.0,0.0,0.0,0.0,0.0,0.0,0.0,0.0,0.0,0.0,0.0,0.0,0.0,0.0,0.0,0.0,0.0,-2.144,0.0,-2.1067,-2.1026,-2.0911,-2.061,0.0,0.0,0.0,0.0,0.0,0.0,0.0,0.0,0.0,0.0,0.0,0.0,0.0,0.0,0.0,0.0,0.0,0.0,0.0,0.0,0.0,0.0,0.0,0.0,0.0,0.0,0.0,0.0,0.0,0.0,0.0,0.0,0.0,0.0,0.0,0.0,0.0,0.0,0.0,0.0,0.0,0.0,0.0,0.0,0.0,0.0,0.0,0.0,0.0,0.0,0.0,0.0,0.0,0.0,0.0,0.0,0.0,0.0,0.0,0.0,0.0,0.0,0.0,0.0,0.0,0.0,0.0,0.0,0.0,0.0,0.0,0.0,0.0,0.0,0.0,0.0,0.0,0.0,0.0,0.0,0.0,0.0,0.0,0.0,0.0,0.0,0.0,0.0,0.0,0.0,0.0,0.0,0.0,0.0,0.0,0.0,0.0,0.0,0.0,0.0,0.0,0.0,0.0,0.0,0.0,0.0,0.0,0.0,0.0,-2.2137,-2.1644,-2.2113,-2.2113,-2.1644,0.0,0.0,0.0,0.0,0.0,0.0,0.0,0.0,0.0,0.0,0.0,0.0,0.0,0.0,0.0,0.0,0.0,0.0,0.0,0.0,0.0,0.0,0.0,0.0,0.0,0.0,0.0,0.0,0.0,0.0,0.0,0.0,0.0,0.0,0.0,0.0,0.0,0.0,0.0,0.0,0.0,0.0,0.0,0.0,0.0,0.0,0.0,0.0,0.0,0.0,0.0,0.0,0.0,0.0,0.0,0.0,0.0,0.0,0.0,0.0,0.0,0.0,0.0,0.0,0.0,0.0,0.0,0.0,0.0,0.0,0.0,0.0,0.0,0.0,0.0,0.0,0.0,0.0,0.0,0.0,0.0,0.0,0.0,0.0,0.0,0.0,0.0,0.0,0.0,0.0,0.0,0.0,0.0,0.0,0.0,0.0,0.0,0.0,0.0,0.0,0.0,0.0,0.0,0.0,0.0,0.0,0.0,0.0,0.0,-2.1187,-2.1,-2.1662,-2.3107,-2.1909,-2.1308,0.0,0.0,0.0,0.0,0.0,0.0,0.0,0.0,0.0,0.0,0.0,0.0,0.0,0.0,0.0,0.0,0.0,0.0,0.0,0.0,0.0,0.0,0.0,0.0,0.0,0.0,0.0,0.0,0.0,0.0,0.0,0.0,0.0,0.0,0.0,0.0,0.0,0.0,0.0,0.0,0.0,0.0,0.0,0.0,0.0,0.0,0.0,0.0,0.0,0.0,0.0,0.0,0.0,0.0,0.0,0.0,0.0,0.0,0.0,0.0,0.0,0.0,0.0,0.0,0.0,0.0,0.0,0.0,0.0,0.0,0.0,0.0,0.0,0.0,0.0,0.0,0.0,0.0,0.0,0.0,0.0,0.0,0.0,0.0,0.0,0.0,0.0,0.0,0.0,0.0,0.0,0.0,0.0,0.0,0.0,0.0,0.0,0.0,0.0,0.0,0.0,0.0,0.0,0.0,0.0,0.0,0.0,0.0,0.0,-2.0586,0.0,-2.218,0.0,-2.1885,-2.1151,0.0,0.0,0.0,0.0,0.0,0.0,0.0,0.0,0.0,0.0,0.0,0.0,0.0,0.0,0.0,0.0,0.0,0.0,0.0,0.0,0.0,0.0,0.0,0.0,0.0,0.0,0.0,0.0,0.0,0.0,0.0,0.0,0.0,0.0,0.0,0.0,0.0,0.0,0.0,0.0,0.0,0.0,0.0,0.0,0.0,0.0,0.0,0.0,0.0,0.0,0.0,0.0,0.0,0.0,0.0,0.0,0.0,0.0,0.0,0.0,0.0,0.0,0.0,0.0,0.0,0.0,0.0,0.0,0.0,0.0,0.0,0.0,0.0,0.0,0.0,0.0,0.0,0.0,0.0,0.0,0.0,0.0,0.0,0.0,0.0,0.0,0.0,0.0,0.0,0.0,0.0,0.0,0.0,0.0,0.0,0.0,0.0,0.0,0.0,0.0,0.0,0.0,0.0,0.0,0.0,0.0,0.0,0.0,-2.1139,-2.2125,-2.3168,-2.324,-2.2282,-2.2161,-2.1175,0.0,0.0,0.0,0.0,0.0,0.0,0.0,0.0,0.0,0.0,0.0,0.0,0.0,0.0,0.0,0.0,0.0,0.0,0.0,0.0,0.0,0.0,0.0,0.0,0.0,0.0,0.0,0.0,0.0,0.0,0.0,0.0,0.0,0.0,0.0,0.0,0.0,0.0,0.0,0.0,0.0,0.0,0.0,0.0,0.0,0.0,0.0,0.0,0.0,0.0,0.0,0.0,0.0,0.0,0.0,0.0,0.0,0.0,0.0,0.0,0.0,0.0,0.0,0.0,0.0,0.0,0.0,0.0,0.0,0.0,0.0,0.0,0.0,0.0,0.0,0.0,0.0,0.0,0.0,0.0,0.0,0.0,0.0,0.0,0.0,0.0,0.0,0.0,0.0,0.0,0.0,0.0,0.0,0.0,0.0,0.0,0.0,0.0,0.0,0.0,0.0,0.0,0.0,0.0,0.0,0.0,0.0,0.0,0.0,-2.1157,-2.2517,-2.3412,-2.3725,-2.2041,-2.132,0.0,0.0,0.0,0.0,0.0,0.0,0.0,0.0,0.0,0.0,0.0,0.0,0.0,0.0,0.0,0.0,0.0,0.0,0.0,0.0,0.0,0.0,0.0,0.0,0.0,0.0,0.0,0.0,0.0,0.0,0.0,0.0,0.0,0.0,0.0,0.0,0.0,0.0,0.0,0.0,0.0,0.0,0.0,0.0,0.0,0.0,0.0,0.0,0.0,0.0,0.0,0.0,0.0,0.0,0.0,0.0,0.0,0.0,0.0,0.0,0.0,0.0,0.0,0.0,0.0,0.0,0.0,0.0,0.0,0.0,0.0,0.0,0.0,0.0,0.0,0.0,0.0,0.0,0.0,0.0,0.0,0.0,0.0,0.0,0.0,0.0,0.0,0.0,0.0,0.0,0.0,0.0,0.0,0.0,0.0,0.0,0.0,0.0,0.0,0.0,0.0,0.0,0.0,0.0,0.0,0.0,0.0,0.0,0.0,-2.2438,-2.3725,-2.4566,-2.4807,-2.2847,-2.1969,-2.233,0.0,0.0,0.0,0.0,0.0,0.0,0.0,0.0,0.0,0.0,0.0,0.0,0.0,0.0,0.0,0.0,0.0,0.0,0.0,0.0,0.0,0.0,0.0,0.0,0.0,0.0,0.0,0.0,0.0,0.0,0.0,0.0,0.0,0.0,0.0,0.0,0.0,0.0,0.0,0.0,0.0,0.0,0.0,0.0,0.0,0.0,0.0,0.0,0.0,0.0,0.0,0.0,0.0,0.0,0.0,0.0,0.0,0.0,0.0,0.0,0.0,0.0,0.0,0.0,0.0,0.0,0.0,0.0,0.0,0.0,0.0,0.0,0.0,0.0,0.0,0.0,0.0,0.0,0.0,0.0,0.0,0.0,0.0,0.0,0.0,0.0,0.0,0.0,0.0,0.0,0.0,0.0,0.0,0.0,0.0,0.0,0.0,0.0,0.0,0.0,0.0,0.0,0.0,0.0,0.0,0.0,0.0,0.0,-2.5444,-2.66,-2.6686,-2.554,-2.4398,-2.3111,0.0,0.0,0.0,0.0,0.0,0.0,0.0,0.0,0.0,0.0,0.0,0.0,0.0,0.0,0.0,0.0,0.0,0.0,0.0,0.0,0.0,0.0,0.0,0.0,0.0,0.0,0.0,0.0,0.0,0.0,0.0,0.0,0.0,0.0,0.0,0.0,0.0,0.0,0.0,0.0,0.0,0.0,0.0,0.0,0.0,0.0,0.0,0.0,0.0,0.0,0.0,0.0,0.0,0.0,0.0,0.0,0.0,0.0,0.0,0.0,0.0,0.0,0.0,0.0,0.0,0.0,0.0,0.0,0.0,0.0,0.0,0.0,0.0,0.0,0.0,0.0,0.0,0.0,0.0,0.0,0.0,0.0,0.0,0.0,0.0,0.0,0.0,0.0,0.0,0.0,0.0,0.0,0.0,0.0,0.0,0.0,0.0,0.0,0.0,0.0,0.0,0.0,0.0,0.0,0.0,0.0,0.0,0.0,0.0,-2.7155,-2.9793,-3.0084,-2.7707,-2.5504,-2.4133,0.0,0.0,0.0,0.0,0.0,0.0,0.0,0.0,0.0,0.0,0.0,0.0,0.0,0.0,0.0,0.0,0.0,0.0,0.0,0.0,0.0,0.0,0.0,0.0,0.0,0.0,0.0,0.0,0.0,0.0,0.0,0.0,0.0,0.0,0.0,0.0,0.0,0.0,0.0,0.0,0.0,0.0,0.0,0.0,0.0,0.0,0.0,0.0,0.0,0.0,0.0,0.0,0.0,0.0,0.0,0.0,0.0,0.0,0.0,0.0,0.0,0.0,0.0,0.0,0.0,0.0,0.0,0.0,0.0,0.0,0.0,0.0,0.0,0.0,0.0,0.0,0.0,0.0,0.0,0.0,0.0,0.0,0.0,0.0,0.0,0.0,0.0,0.0,0.0,0.0,0.0,0.0,0.0,0.0,0.0,0.0,0.0,0.0,0.0,0.0,0.0,0.0,0.0,0.0,0.0,0.0,0.0,0.0,-2.811,-2.961,-3.2113,-3.2664,-3.1029,-2.8237,-2.6433,0.0,0.0,0.0,0.0,0.0,0.0,0.0,0.0,0.0,0.0,0.0,0.0,0.0,0.0,0.0,0.0,0.0,0.0,0.0,0.0,0.0,0.0,0.0,0.0,0.0,0.0,0.0,0.0,0.0,0.0,0.0,0.0,0.0,0.0,0.0,0.0,0.0,0.0,0.0,0.0,0.0,0.0,0.0,0.0,0.0,0.0,0.0,0.0,0.0,0.0,0.0,0.0,0.0,0.0,0.0,0.0,0.0,0.0,0.0,0.0,0.0,0.0,0.0,0.0,0.0,0.0,0.0,0.0,0.0,0.0,0.0,0.0,0.0,0.0,0.0,0.0,0.0,0.0,0.0,0.0,0.0,0.0,0.0,0.0,0.0,0.0,0.0,0.0,0.0,0.0,0.0,0.0,0.0,0.0,0.0,0.0,0.0,0.0,0.0,0.0,0.0,0.0,0.0,0.0,0.0,0.0,0.0,0.0,-2.9999,-3.238,-3.397,-3.4767,-3.462,-3.1627,-2.9255,0.0,0.0,0.0,0.0,0.0,0.0,0.0,0.0,0.0,0.0,0.0,0.0,0.0,0.0,0.0,0.0,0.0,0.0,0.0,0.0,0.0,0.0,0.0,0.0,0.0,0.0,0.0,0.0,0.0,0.0,0.0,0.0,0.0,0.0,0.0,0.0,0.0,0.0,0.0,0.0,0.0,0.0,0.0,0.0,0.0,0.0,0.0,0.0,0.0,0.0,0.0,0.0,0.0,0.0,0.0,0.0,0.0,0.0,0.0,0.0,0.0,0.0,0.0,0.0,0.0,0.0,0.0,0.0,0.0,0.0,0.0,0.0,0.0,0.0,0.0,0.0,0.0,0.0,0.0,0.0,0.0,0.0,0.0,0.0,0.0,0.0,0.0,0.0,0.0,0.0,0.0,0.0,0.0,0.0,0.0,0.0,0.0,0.0,0.0,0.0,0.0,0.0,0.0,0.0,0.0,0.0,0.0,0.0,-3.2619,-3.3416,-3.6375,-3.7359,-3.6142,-3.2645,-3.0168,0.0,0.0,0.0,0.0,0.0,0.0,0.0,0.0,0.0,0.0,0.0,0.0,0.0,0.0,0.0,0.0,0.0,0.0,0.0,0.0,0.0,0.0,0.0,0.0,0.0,0.0,0.0,0.0,0.0,0.0,0.0,0.0,0.0,0.0,0.0,0.0,0.0,0.0,0.0,0.0,0.0,0.0,0.0,0.0,0.0,0.0,0.0,0.0,-2.3445,0.0,0.0,0.0,0.0,0.0,0.0,0.0,0.0,0.0,0.0,0.0,0.0,0.0,0.0,0.0,0.0,0.0,0.0,0.0,0.0,0.0,0.0,0.0,0.0,0.0,0.0,0.0,0.0,0.0,0.0,0.0,0.0,0.0,0.0,0.0,0.0,0.0,0.0,0.0,0.0,0.0,0.0,0.0,0.0,0.0,0.0,0.0,0.0,0.0,0.0,0.0,0.0,0.0,0.0,0.0,0.0,0.0,0.0,0.0,-3.4556,-3.5504,-3.7689,-3.8529,-3.7647,-3.5171,-3.2843,0.0,0.0,0.0,0.0,0.0,0.0,0.0,0.0,0.0,0.0,0.0,0.0,0.0,0.0,0.0,0.0,0.0,0.0,0.0,0.0,0.0,0.0,0.0,0.0,0.0,0.0,0.0,0.0,0.0,0.0,0.0,0.0,0.0,0.0,0.0,0.0,0.0,0.0,0.0,0.0,0.0,0.0,0.0,0.0,0.0,0.0,0.0,0.0,0.0,0.0,0.0,0.0,0.0,0.0,0.0,0.0,0.0,0.0,0.0,0.0,0.0,0.0,0.0,0.0,0.0,0.0,0.0,0.0,0.0,0.0,0.0,0.0,0.0,0.0,0.0,0.0,0.0,0.0,0.0,0.0,0.0,0.0,0.0,0.0,0.0,0.0,0.0,0.0,0.0,0.0,0.0,0.0,0.0,0.0,0.0,0.0,0.0,0.0,0.0,0.0,0.0,0.0,0.0,0.0,0.0,0.0,0.0,-3.3101,-3.592,-3.7659,-3.8685,-3.9058,-3.8902,-3.7737,-3.5644,-3.249,0.0,0.0,0.0,0.0,0.0,0.0,0.0,0.0,0.0,0.0,0.0,0.0,0.0,0.0,0.0,0.0,0.0,0.0,0.0,0.0,0.0,0.0,0.0,0.0,0.0,0.0,0.0,0.0,0.0,0.0,0.0,0.0,0.0,0.0,0.0,0.0,0.0,0.0,-2.0695,-2.2575,0.0,0.0,0.0,0.0,0.0,0.0,0.0,0.0,-2.4441,0.0,0.0,0.0,0.0,0.0,0.0,0.0,0.0,0.0,0.0,0.0,0.0,0.0,0.0,0.0,0.0,0.0,0.0,0.0,0.0,0.0,0.0,0.0,0.0,0.0,0.0,0.0,0.0,0.0,0.0,0.0,0.0,0.0,0.0,0.0,0.0,0.0,0.0,0.0,0.0,0.0,0.0,0.0,0.0,0.0,0.0,0.0,0.0,0.0,0.0,0.0,0.0,0.0,0.0,0.0,0.0,-3.3159,-3.4533,-3.6291,-3.8627,-3.9817,-3.9915,-3.8944,-3.8145,-3.6079,-3.2581,0.0,0.0,0.0,0.0,0.0,0.0,0.0,0.0,0.0,0.0,0.0,0.0,0.0,0.0,0.0,0.0,0.0,0.0,0.0,0.0,0.0,0.0,0.0,0.0,0.0,0.0,0.0,0.0,0.0,0.0,0.0,0.0,0.0,0.0,0.0,0.0,0.0,0.0,0.0,-2.4621,-2.5944,0.0,0.0,0.0,0.0,0.0,0.0,0.0,0.0,-2.5414,0.0,0.0,0.0,0.0,0.0,0.0,0.0,0.0,0.0,0.0,0.0,0.0,0.0,0.0,0.0,0.0,0.0,0.0,0.0,0.0,0.0,0.0,0.0,0.0,0.0,0.0,0.0,0.0,0.0,0.0,0.0,0.0,0.0,0.0,0.0,0.0,0.0,0.0,0.0,0.0,0.0,0.0,0.0,0.0,0.0,0.0,0.0,0.0,0.0,0.0,0.0,0.0,0.0,0.0,0.0,-3.3234,-3.5784,-3.7861,-3.9338,-4.0238,-4.0112,-3.8944,-3.7664,-3.5517,0.0,0.0,0.0,0.0,0.0,0.0,0.0,0.0,0.0,0.0,0.0,0.0,0.0,0.0,0.0,0.0,0.0,0.0,0.0,0.0,0.0,0.0,0.0,0.0,0.0,0.0,0.0,0.0,0.0,0.0,0.0,0.0,0.0,0.0,0.0,0.0,0.0,0.0,0.0,0.0,-2.6296,-2.7415,-2.8561,0.0,0.0,0.0,0.0,0.0,0.0,-2.6764,-2.6231,0.0,0.0,0.0,0.0,0.0,0.0,0.0,0.0,0.0,0.0,0.0,0.0,0.0,0.0,0.0,0.0,0.0,0.0,0.0,0.0,0.0,0.0,0.0,0.0,0.0,0.0,0.0,0.0,0.0,0.0,0.0,0.0,0.0,0.0,0.0,0.0,0.0,0.0,0.0,0.0,0.0,0.0,0.0,0.0,0.0,0.0,0.0,0.0,0.0,0.0,0.0,0.0,0.0,0.0,0.0,-3.2497,-3.6304,-3.8832,-3.976,-4.0393,-4.0112,-3.893,-3.7327,-3.511,0.0,0.0,0.0,0.0,0.0,0.0,0.0,0.0,0.0,0.0,0.0,0.0,0.0,0.0,0.0,0.0,0.0,0.0,0.0,0.0,0.0,0.0,0.0,0.0,0.0,0.0,0.0,0.0,0.0,0.0,0.0,0.0,0.0,0.0,0.0,0.0,0.0,0.0,0.0,0.0,0.0,-2.9111,-3.0164,-2.9195,0.0,0.0,0.0,0.0,-2.8466,-2.8197,0.0,0.0,0.0,0.0,0.0,0.0,0.0,0.0,0.0,0.0,0.0,0.0,0.0,0.0,0.0,0.0,0.0,0.0,0.0,0.0,0.0,0.0,0.0,0.0,0.0,0.0,0.0,0.0,0.0,0.0,0.0,0.0,0.0,0.0,0.0,0.0,0.0,0.0,0.0,0.0,0.0,0.0,0.0,0.0,0.0,0.0,0.0,0.0,0.0,0.0,0.0,0.0,0.0,0.0,0.0,0.0,-3.2398,-3.5026,-3.7538,-3.9718,-4.0378,-4.0112,-3.8944,-3.8088,-3.577,0.0,0.0,0.0,0.0,0.0,0.0,0.0,0.0,0.0,0.0,0.0,0.0,0.0,0.0,0.0,0.0,0.0,0.0,0.0,0.0,0.0,0.0,0.0,0.0,0.0,0.0,0.0,0.0,0.0,0.0,0.0,0.0,0.0,0.0,0.0,0.0,0.0,0.0,0.0,0.0,0.0,-3.1345,-2.9912,-2.9996,-3.0207,0.0,0.0,-3.0319,-3.0965,-3.1457,0.0,0.0,0.0,0.0,0.0,0.0,0.0,0.0,0.0,0.0,0.0,0.0,0.0,0.0,0.0,0.0,0.0,0.0,0.0,0.0,0.0,0.0,0.0,0.0,0.0,0.0,0.0,0.0,0.0,0.0,0.0,0.0,0.0,0.0,0.0,0.0,0.0,0.0,0.0,0.0,0.0,0.0,0.0,0.0,0.0,0.0,0.0,0.0,0.0,0.0,0.0,0.0,0.0,0.0,0.0,-3.1148,-3.296,-3.6051,-3.855,-4.0224,-4.0561,-4.0112,-3.8944,-3.7271,-3.4851,0.0,0.0,0.0,0.0,0.0,0.0,0.0,0.0,0.0,0.0,0.0,0.0,0.0,0.0,0.0,0.0,0.0,0.0,0.0,0.0,0.0,0.0,0.0,0.0,0.0,0.0,0.0,0.0,0.0,0.0,0.0,0.0,0.0,0.0,0.0,0.0,0.0,0.0,0.0,0.0,0.0,0.0,-3.2112,-3.1845,0.0,0.0,0.0,-3.1808,-3.244,0.0,0.0,0.0,0.0,0.0,0.0,0.0,0.0,0.0,0.0,0.0,0.0,0.0,0.0,0.0,0.0,0.0,0.0,0.0,0.0,0.0,0.0,0.0,0.0,0.0,0.0,0.0,0.0,0.0,0.0,0.0,0.0,0.0,0.0,0.0,0.0,0.0,0.0,0.0,0.0,0.0,0.0,0.0,0.0,0.0,0.0,0.0,0.0,0.0,0.0,0.0,0.0,0.0,0.0,0.0,0.0,0.0,-3.3333,-3.6978,-3.9507,-4.0645,-4.0702,-4.0097,-3.8916,-3.6792,0.0,0.0,0.0,0.0,0.0,0.0,0.0,0.0,0.0,0.0,0.0,0.0,0.0,0.0,0.0,0.0,0.0,0.0,0.0,0.0,0.0,0.0,0.0,0.0,0.0,0.0,0.0,-1.7309,0.0,0.0,0.0,0.0,0.0,0.0,0.0,0.0,0.0,0.0,0.0,0.0,0.0,0.0,-3.2041,-3.374,-3.3621,-3.3593,0.0,0.0,-3.3424,-3.3733,-3.3663,-3.275,0.0,0.0,0.0,0.0,0.0,0.0,0.0,0.0,0.0,0.0,0.0,0.0,0.0,0.0,0.0,0.0,0.0,0.0,0.0,0.0,0.0,0.0,0.0,0.0,0.0,0.0,0.0,0.0,0.0,0.0,0.0,0.0,0.0,0.0,0.0,0.0,0.0,0.0,0.0,0.0,0.0,0.0,0.0,0.0,0.0,0.0,0.0,0.0,0.0,0.0,0.0,0.0,0.0,0.0,0.0,-3.3333,-3.6978,-3.9451,-4.0645,-4.0702,-4.0112,-3.893,-3.7569,-3.5166,0.0,0.0,0.0,0.0,0.0,0.0,0.0,0.0,0.0,0.0,0.0,0.0,0.0,0.0,0.0,0.0,0.0,0.0,0.0,0.0,0.0,0.0,0.0,0.0,0.0,0.0,0.0,0.0,0.0,0.0,0.0,0.0,0.0,0.0,0.0,0.0,0.0,0.0,0.0,0.0,0.0,-3.3796,-3.3403,-3.4773,-3.5681,0.0,0.0,-3.5681,-3.5147,-3.5977,-3.5461,-3.1935,0.0,0.0,0.0,0.0,0.0,0.0,0.0,0.0,0.0,0.0,0.0,0.0,0.0,0.0,0.0,0.0,0.0,0.0,0.0,0.0,0.0,0.0,0.0,0.0,0.0,0.0,0.0,0.0,0.0,0.0,0.0,0.0,0.0,0.0,0.0,0.0,0.0,0.0,0.0,0.0,0.0,0.0,0.0,0.0,0.0,0.0,0.0,0.0,0.0,0.0,0.0,0.0,0.0,-3.1592,-3.3838,-3.7161,-3.9507,-4.0645,-4.0702,-4.0126,-3.8944,-3.7678,-3.5433,0.0,0.0,0.0,0.0,0.0,0.0,0.0,0.0,0.0,0.0,0.0,0.0,0.0,0.0,0.0,0.0,0.0,0.0,0.0,0.0,0.0,0.0,0.0,0.0,0.0,0.0,0.0,0.0,-2.0848,-2.1751,-2.3035,0.0,0.0,0.0,0.0,0.0,0.0,0.0,0.0,0.0,0.0,-3.4121,-3.4922,-3.5667,0.0,0.0,-3.6202,-3.6159,-3.6262,-3.6075,-3.5034,-3.2455,-3.1401,0.0,0.0,0.0,0.0,0.0,0.0,0.0,0.0,0.0,0.0,0.0,0.0,0.0,0.0,0.0,0.0,0.0,0.0,0.0,0.0,0.0,0.0,0.0,0.0,0.0,0.0,0.0,0.0,0.0,0.0,0.0,0.0,0.0,0.0,0.0,0.0,0.0,0.0,0.0,0.0,0.0,0.0,0.0,0.0,0.0,0.0,0.0,0.0,0.0,0.0,0.0,0.0,-3.1719,-3.4175,-3.7288,-3.9507,-4.0674,-4.0702,-4.0126,-3.893,-3.7861,-3.5728,0.0,0.0,0.0,0.0,0.0,0.0,0.0,0.0,0.0,0.0,0.0,0.0,0.0,0.0,0.0,0.0,0.0,0.0,0.0,0.0,0.0,0.0,0.0,0.0,0.0,0.0,0.0,0.0,-2.2441,-2.3062,-2.3534,0.0,0.0,0.0,0.0,0.0,0.0,0.0,0.0,0.0,0.0,-3.4659,-3.6145,-3.6385,-3.6539,-3.6922,-3.6666,-3.6539,-3.6922,-3.6338,-3.5212,-3.3494,0.0,0.0,0.0,0.0,0.0,0.0,0.0,0.0,0.0,0.0,0.0,0.0,0.0,0.0,0.0,0.0,0.0,0.0,0.0,0.0,0.0,0.0,0.0,0.0,0.0,0.0,0.0,-2.3055,0.0,0.0,-2.2184,0.0,0.0,0.0,0.0,0.0,0.0,0.0,0.0,0.0,0.0,0.0,0.0,0.0,0.0,0.0,0.0,0.0,0.0,0.0,0.0,0.0,0.0,-3.1719,-3.4189,-3.7288,-3.9507,-4.0659,-4.0702,-4.0126,-3.8944,-3.8229,-3.615,-3.2483,0.0,0.0,0.0,0.0,0.0,0.0,0.0,0.0,0.0,0.0,0.0,0.0,0.0,0.0,0.0,0.0,0.0,0.0,0.0,0.0,0.0,0.0,0.0,0.0,0.0,0.0,-2.2793,-2.2888,-2.2917,0.0,0.0,0.0,0.0,0.0,0.0,0.0,0.0,0.0,0.0,-3.4101,-3.5597,-3.6806,-3.6964,-3.695,-3.7007,-3.6978,-3.7003,-3.6993,-3.713,-3.6797,0.0,0.0,0.0,0.0,0.0,0.0,0.0,0.0,0.0,0.0,0.0,0.0,0.0,0.0,0.0,0.0,0.0,0.0,0.0,0.0,0.0,0.0,0.0,0.0,0.0,0.0,0.0,-2.6315,-2.498,0.0,0.0,0.0,0.0,0.0,0.0,0.0,0.0,0.0,0.0,0.0,-3.2089,-3.2462,0.0,0.0,0.0,0.0,0.0,0.0,0.0,0.0,0.0,0.0,0.0,0.0,-3.1949,-3.4851,-3.7538,-3.9507,-4.0659,-4.0702,-4.0112,-3.8944,-3.8243,-3.586,-3.1514,0.0,0.0,0.0,0.0,0.0,0.0,0.0,0.0,0.0,0.0,0.0,0.0,0.0,0.0,0.0,0.0,0.0,0.0,0.0,0.0,0.0,0.0,0.0,0.0,0.0,-2.2672,0.0,0.0,0.0,0.0,0.0,0.0,0.0,0.0,0.0,0.0,0.0,-3.1987,-3.3862,-3.5439,-3.6593,-3.7112,-3.7187,-3.7289,0.0,0.0,0.0,0.0,0.0,0.0,0.0,0.0,0.0,0.0,0.0,0.0,0.0,0.0,-3.4123,-3.0411,-2.9249,-2.8957,-2.9094,0.0,0.0,0.0,0.0,0.0,0.0,0.0,0.0,0.0,0.0,0.0,0.0,0.0,0.0,-2.8563,0.0,-2.7158,0.0,0.0,0.0,0.0,0.0,0.0,0.0,0.0,-3.2356,-3.3719,-3.4309,-3.4899,-3.4983,0.0,-3.4183,-3.2412,0.0,0.0,0.0,0.0,0.0,0.0,0.0,0.0,-3.2581,-3.5456,-3.7749,-3.9465,-4.0617,-4.0477,-3.9901,-3.893,-3.7414,-3.5034,-3.1778,-3.0252,-2.843,0.0,0.0,0.0,0.0,0.0,0.0,0.0,0.0,0.0,0.0,0.0,0.0,0.0,0.0,0.0,0.0,0.0,0.0,0.0,0.0,0.0,0.0,0.0,-2.3344,0.0,0.0,0.0,0.0,0.0,0.0,0.0,0.0,0.0,-2.9579,-3.1792,-3.4008,-3.5683,-3.6644,-3.7352,-3.7699,0.0,0.0,0.0,0.0,0.0,0.0,0.0,-3.7165,-3.6859,-3.6916,-3.6782,-3.6085,-3.7049,-3.7701,-3.7171,0.0,0.0,-3.3226,-3.1886,-3.1471,-3.173,-3.1627,-3.1396,-3.1227,-3.171,-3.2019,0.0,0.0,0.0,0.0,0.0,0.0,0.0,0.0,-2.994,-3.0558,0.0,-2.9687,0.0,0.0,0.0,0.0,-2.8157,-3.0993,0.0,0.0,-3.5531,-3.6736,-3.6286,-3.681,-3.7063,-3.7102,-3.7049,-3.6093,-3.4133,-3.0726,0.0,0.0,0.0,0.0,0.0,0.0,-3.3663,-3.6103,-3.8002,-3.9535,-4.0631,-4.0097,-3.9521,-3.8832,-3.5897,-3.4014,-3.3312,-3.1853,-3.0054,-2.7961,-2.6512,0.0,0.0,0.0,0.0,0.0,0.0,0.0,0.0,0.0,0.0,0.0,0.0,0.0,0.0,0.0,0.0,0.0,0.0,0.0,0.0,-2.3688,0.0,0.0,0.0,0.0,0.0,0.0,0.0,0.0,0.0,0.0,-3.1835,-3.3715,-3.587,-3.7661,0.0,0.0,0.0,0.0,-3.8635,-3.8664,-3.915,-3.9467,-3.951,-3.9482,-3.9413,-3.9226,0.0,0.0,-3.8299,-3.9218,-3.9594,-3.8093,-3.8917,-3.9427,-3.8078,-3.6149,-3.5068,-3.5568,-3.4498,-3.3726,-3.4147,-3.4655,-3.5077,-3.4309,0.0,0.0,0.0,0.0,-3.2252,-3.3508,-3.5489,-3.5054,-3.4323,-3.3375,-3.2855,0.0,0.0,0.0,0.0,0.0,0.0,-3.3775,-3.5091,-3.6388,-3.7636,-3.8761,-3.893,-3.8974,-3.8988,-3.8974,-3.8243,-3.6824,-3.5335,-3.2637,-2.8872,0.0,0.0,0.0,0.0,-3.468,-3.6736,-3.8742,-4.0152,-4.0901,-4.035,-3.9475,-3.8401,-3.6363,-3.4988,-3.4391,-3.2965,-3.1379,-2.9517,-2.848,0.0,0.0,0.0,0.0,0.0,0.0,0.0,0.0,0.0,0.0,0.0,0.0,0.0,0.0,0.0,0.0,0.0,0.0,0.0,-2.3211,-2.3545,-2.4542,0.0,0.0,0.0,0.0,0.0,0.0,0.0,0.0,0.0,-3.5627,-3.6592,-3.7692,0.0,0.0,-3.9217,-3.8884,-3.9176,-3.9596,-3.9893,-3.9667,0.0,-4.0151,-3.9782,-3.9536,-3.9616,-4.023,-4.0764,-4.0894,-4.0847,-4.0659,-4.0188,-4.0058,-3.9894,-3.9508,-3.8424,-3.7448,-3.7139,-3.6557,-3.6222,-3.6368,-3.6475,-3.6483,-3.8524,-3.6473,-3.4885,-3.4646,-3.5307,-3.518,-3.6192,-3.7878,-3.7512,-3.6993,-3.6364,-3.5859,-3.461,-3.2876,-3.2511,0.0,0.0,0.0,-3.5503,-3.6824,-3.7735,-3.8693,-3.976,-4.0041,-4.0154,-4.014,-3.9887,-3.9381,-3.865,-3.8032,-3.6019,-3.2609,0.0,0.0,-3.2398,-3.4084,-3.5883,-3.7735,-3.9209,-4.0167,-4.0506,-3.9755,-3.889,-3.7987,-3.6493,-3.5503,-3.5089,-3.3858,-3.2549,-3.1201,-3.0003,-2.8525,0.0,0.0,0.0,0.0,0.0,0.0,0.0,0.0,0.0,0.0,0.0,-2.2131,-2.1284,0.0,0.0,0.0,-2.3098,-2.3989,-2.506,-2.5635,0.0,0.0,0.0,0.0,0.0,0.0,0.0,-3.4748,-3.6446,-3.7796,-3.8696,-3.9131,-3.9509,-3.99,-4.0031,-4.0021,-3.9801,0.0,-4.0415,-4.0682,-4.0639,-4.0682,-4.1071,-4.0715,-4.0388,-4.051,-4.0949,-4.1488,-4.1976,-4.1744,-4.1497,-4.1439,-4.1149,-4.08,-4.0554,-3.9993,-3.9247,-3.8337,-3.7957,-3.7756,-3.7475,-3.7264,-3.7109,-4.2247,-4.146,-3.8608,-3.74,-3.7414,-3.7906,-3.8145,-3.8187,-3.8159,-3.8749,-3.9676,-3.8566,-3.8018,-3.7864,-3.6244,0.0,-3.6356,-3.6922,-3.7512,-3.8102,-3.9297,-3.9845,-3.9887,-4.0421,-4.0702,-4.0674,-4.0126,-3.9859,-3.9816,-3.9324,-3.8438,-3.7189,-3.5531,-3.4899,-3.5358,-3.6005,-3.72,-3.8917,-3.9591,-3.9844,-3.9774,-3.8767,-3.803,-3.7567,-3.639,-3.566,-3.5421,-3.4455,-3.3528,-3.2738,-3.1133,-2.9656,-2.8312,0.0,0.0,0.0,0.0,0.0,0.0,0.0,0.0,0.0,0.0,0.0,0.0,0.0,0.0,0.0,-2.5081,0.0,-2.8269,-2.9073,0.0,0.0,0.0,-3.2104,-3.3513,-3.4795,-3.6075,-3.7375,0.0,0.0,-4.0945,-4.1134,-4.1178,-4.1178,-4.0641,-4.0466,-4.1018,-4.112,-4.1178,-4.1166,-4.1686,-4.2063,-4.1978,-4.1811,-4.1629,-4.1629,-4.1744,-4.1813,-4.2036,-4.2078,-4.2078,-4.2049,-4.2078,-4.1889,-4.1279,-4.1149,-4.076,-3.9361,-3.8806,-3.8406,-3.7867,-3.7514,-3.7303,-4.2486,-4.2289,-4.1559,-4.0969,-4.0491,-4.0168,-4.0308,-4.0688,-4.0238,-3.9943,-3.976,-3.9465,-3.9072,-3.8649,-3.8227,-3.81,-3.8269,-3.8874,-3.9198,-3.9367,-4.0126,-4.0477,-4.0491,-4.0645,-4.0702,-4.0688,-4.0547,-4.0477,-4.0477,-4.0336,-3.9873,-3.9128,-3.8678,-3.7821,-3.668,-3.7678,-3.8691,-3.955,-4.0322,-4.0321,-3.9603,-3.9165,-3.8371,-3.7164,-3.6519,-3.5784,-3.4989,-3.4372,-3.367,-3.2858,-3.2137,-3.0912,-2.9173,-2.7072,0.0,0.0,0.0,0.0,0.0,0.0,0.0,0.0,0.0,-2.5328,-2.2669,0.0,-2.6367,0.0,-2.7163,-2.8438,-2.9615,-3.0084,0.0,0.0,-3.3589,-3.425,-3.7425,-3.7208,-3.7506,-3.9233,-4.0147,-4.0757,-4.1062,-4.1541,-4.1845,-4.186,-4.1715,-4.1482,-4.1192,-4.1555,-4.186,-4.186,-4.1976,-4.2092,-4.2092,-4.2051,-4.2009,-4.198,-4.2009,-4.2036,-4.2092,-4.2092,-4.2092,-4.2092,-4.2092,-4.202,-4.1874,-4.186,-4.1555,-4.0691,-3.9675,-3.8798,-3.8625,-3.8045,-3.751,-4.3399,-4.3399,-4.3385,-4.3188,-4.2795,-4.191,-4.1741,-4.2008,-4.1685,-4.1348,-4.1054,-4.073,-4.0266,-3.969,-3.969,-3.9718,-3.9704,-4.0041,-4.0196,-4.021,-4.0533,-4.0702,-4.0702,-4.0773,-4.0773,-4.0702,-4.0773,-4.0773,-4.0702,-4.0702,-4.0519,-4.0182,-4.0196,-3.9676,-3.8693,-3.9058,-3.9619,-4.0182,-4.0365,-4.0095,-3.9418,-3.9039,-3.8275,-3.7051,-3.6541,-3.5724,-3.4536,-3.3905,-3.324,-3.2525,-3.1943,-3.1017,-2.9746,-2.8253,-2.6732,0.0,0.0,0.0,0.0,0.0,0.0,0.0,0.0,0.0,0.0,0.0,-2.7997,-2.8026,-2.9302,-3.0666,-3.1989,-3.2928,-3.4331,-3.654,-3.6338,-3.6968,-3.9349,-3.8986,-3.9059,-4.0379,-4.0858,-4.1221,-4.1512,-4.186,-4.2092,-4.2092,-4.2092,-4.1961,-4.1671,-4.1874,-4.2092,-4.2092,-4.2092,-4.2092,-4.2092,-4.2092,-4.2092,-4.2092,-4.2092,-4.2092,-4.2092,-4.2092,-4.2092,-4.2092,-4.2092,-4.2092,-4.2092,-4.2092,-4.1947,-4.1555,-4.0662,-3.9743,-3.9151,-3.8568,-3.8059,-4.4425,-4.4425,-4.4425,-4.4425,-4.4326,-4.3273,-4.2781,-4.2697,-4.2626,-4.2584,-4.2556,-4.198,-4.1446,-4.094,-4.0842,-4.0814,-4.0814,-4.0744,-4.0702,-4.0702,-4.0702,-4.0702,-4.0702,-4.0901,-4.0887,-4.0702,-4.0887,-4.0873,-4.0702,-4.0702,-4.0702,-4.0702,-4.0702,-4.0702,-4.0688,-4.0168,-4.0154,-4.0674,-4.014,-3.9646,-3.9329,-3.8766,-3.7992,-3.7014,-3.6505,-3.5522,-3.4036,-3.3384,-3.2787,-3.2125,-3.1454,-3.0839,-3.0292,-2.9157,-2.7924,0.0,-2.6179,0.0,0.0,0.0,0.0,0.0,0.0,0.0,0.0,-2.9137,-2.9846,-3.0259,-3.161,-3.3086,-3.4676,-3.6243,-3.7636,-3.8799,-3.9146,-3.9552,-4.0147,-4.022,-4.0481,-4.1149,-4.1221,-4.1453,-4.1976,-4.2092,-4.2092,-4.2092,-4.2092,-4.2078,-4.2078,-4.2078,-4.2092,-4.2092,-4.2092,-4.2092,-4.2092,-4.2092,-4.2092,-4.2092,-4.2092,-4.2092,-4.2092,-4.2092,-4.2092,-4.2092,-4.2092,-4.2092,-4.2092,-4.2092,-4.2092,-4.2034,-4.1555,-4.0829,-3.9789,-3.9151,-3.8693,-4.4425,-4.4425,-4.4425,-4.4425,-4.4383,-4.4158,-4.3778,-4.3287,-4.2795,-4.2584,-4.257,-4.2458,-4.2331,-4.2191,-4.1671,-4.1446,-4.1418,-4.0926,-4.0702,-4.0702,-4.0702,-4.0702,-4.0702,-4.073,-4.073,-4.0702,-4.073,-4.073,-4.0702,-4.0702,-4.0702,-4.0702,-4.0702,-4.0702,-4.0702,0.0,0.0,0.0,-4.0252,-4.0024,-3.991,-3.8979,-3.7953,-3.6814,-3.6309,0.0,-3.3293,-3.3604,-3.3518,-3.2768,-3.2592,0.0,0.0,0.0,0.0,0.0,0.0,0.0,0.0,0.0,0.0,0.0,-3.0463,-3.0137,-2.899,-3.1315,-3.291,-3.2911,-3.4282,-3.5583,-3.6437,-3.7393,-3.831,-3.9025,-3.96,-4.0191,-4.0815,-4.0902,-4.1163,-4.1816,-4.1889,-4.1947,-4.2049,-4.2092,-4.2092,-4.2092,-4.2092,-4.2092,-4.2092,-4.2092,-4.2092,-4.2092,-4.2092,-4.2092,-4.2092,-4.2092,-4.2092,-4.2092,-4.2092,-4.2092,-4.2092,-4.2092,-4.2092,-4.2092,-4.2092,-4.2092,-4.2092,-4.2092,-4.2092,-4.2092,-4.199,-4.1671,-4.0887,-3.9876,-3.9045,-4.4425,-4.4425,-4.4425,-4.4425,0.0,-4.4425,-4.4228,-4.3919,-4.3624,-4.3329,-4.3034,-4.302,-4.2865,-4.2556,-4.2247,-4.2093,-4.2078,-4.1769,-4.1629,-4.1615,-4.1306,-4.1151,-4.1123,-4.0957,-4.0802,-4.0702,-4.0802,-4.0802,-4.0702,-4.0702,-4.0702,-4.0702,-4.0702,-4.0702,-4.0702,-4.0702,-4.0702,-4.0702,-4.0478,-4.0252,-3.9927,-3.9228,-3.8268,-3.7016,-3.6357,0.0,0.0,0.0,0.0,0.0,0.0,0.0,0.0,0.0,0.0,-2.9772,-2.9525,-2.9543,-2.9794,-3.0165,-3.0697,-3.1519,-3.2402,-3.2597,-3.1707,-3.351,-3.4782,-3.5095,-3.589,-3.6601,-3.7247,-3.8054,-3.8789,-3.944,-4.0141,-4.0858,-4.1453,-4.1599,-4.1715,-4.202,-4.2092,-4.2092,-4.2092,-4.2092,-4.2092,-4.2092,-4.2092,-4.2092,-4.2092,-4.2092,-4.2092,-4.2092,-4.2092,-4.2092,-4.2092,-4.2092,-4.2092,-4.2092,-4.2092,-4.2092,-4.2092,-4.2092,-4.2092,-4.2092,-4.2092,-4.2092,-4.2092,-4.2092,-4.2092,-4.2092,-4.2092,-4.202,-4.1613,-4.0815,-3.989,-4.3804,-4.3818,-4.3865,-4.3818,-4.3818,-4.3818,-4.3818,-4.3851,0.0,0.0,0.0,-4.3666,-4.3371,-4.2907,-4.2795,-4.2784,-4.2725,-4.2626,-4.2584,-4.257,-4.2036,-4.1783,-4.1755,-4.1339,-4.0914,-4.0626,-4.0844,-4.0745,-4.0459,-4.0616,-4.0702,-4.0702,-4.0702,-4.0702,-4.0702,-4.0702,-4.0702,-4.0702,-4.0702,-4.0463,-3.9985,-3.9447,-3.8609,-3.7448,-3.6539,-3.5475,-3.4206,-3.3639,-3.3058,-3.2492,-3.2131,-3.1991,-3.1977,-3.1984,-3.1924,-3.1825,-3.2023,-3.2099,-3.2047,-3.2146,-3.2475,-3.3072,-3.3986,-3.4584,-3.4773,-3.5319,-3.5983,-3.6759,-3.6876,-3.7171,-3.7763,-3.8625,-3.9361,-3.9971,-4.0752,-4.1512,-4.199,-4.2092,-4.2063,-4.2092,-4.2092,-4.2092,-4.2092,-4.2092,-4.2092,-4.2092,-4.2092,-4.2092,-4.2092,-4.2092,-4.2092,-4.2092,-4.2092,-4.2092,-4.2092,-4.2092,-4.2092,-4.2092,-4.2092,-4.2092,-4.2092,-4.2092,-4.2092,-4.2092,-4.2092,-4.2092,-4.2092,-4.2092,-4.2092,-4.2092,-4.199,-4.1918,-4.186,-4.1381,-4.0514,-4.1667,-4.1667,-4.1667,-4.168,-4.168,-4.1617,-4.1667,-4.1815,-4.36,-4.4369,-4.4298,-4.4284,-4.4242,-4.413,-4.361,-4.3371,-4.3329,-4.2823,-4.2584,-4.2584,-4.2486,-4.2444,-4.2402,-4.1827,-4.1065,-4.0343,-4.058,-4.0272,-3.9577,-4.0286,-4.0702,-4.0702,-4.0702,-4.0702,-4.0702,-4.0702,-4.0702,-4.0702,-4.0702,-4.0645,-4.0547,-3.9507,-3.8605,-3.7805,-3.684,-3.5747,-3.4491,-3.4809,-3.4767,-3.4172,-3.3952,-3.3824,-3.3796,-3.334,-3.2854,-3.239,-3.2798,-3.3163,-3.3316,-3.3797,-3.4589,-3.5693,-3.5827,-3.585,-3.5888,-3.6123,-3.6547,-3.7143,-3.7506,-3.8021,-3.8639,-3.9425,-4.0137,-4.0804,-4.1514,-4.2005,-4.2092,-4.2092,-4.2092,-4.2092,-4.2092,-4.2092,-4.2092,-4.2092,-4.2092,-4.2092,-4.2092,-4.2092,-4.2092,-4.2092,-4.2092,-4.2092,-4.2092,-4.2092,-4.2092,-4.2092,-4.2092,-4.2092,-4.2092,-4.2092,-4.2092,-4.2092,-4.2092,-4.2092,-4.2092,-4.2092,-4.2092,-4.2092,-4.2063,-4.202,-4.1657,-4.1308,-4.125,-4.0699,-4.0176,-4.1169,-4.1169,-4.1169,-4.1169,-4.1169,-4.1169,-4.1169,-4.1269,-4.2222,-4.266,-4.2722,-4.3252,-4.3553,-4.3573,-4.3869,-4.3989,-4.3975,-4.311,-4.2739,-4.2651,-4.1773,-4.1329,-4.1382,-4.1274,-4.1032,-4.0672,-4.1021,-4.0962,-4.0556,-4.067,-4.0702,-4.0659,-4.0172,-4.0128,-4.0645,-4.0128,-4.0142,-4.0645,-4.0142,-3.9897,-3.9883,-3.8724,-3.7924,-3.7621,-3.6816,-3.6127,-3.556,-3.5439,-3.5283,-3.5,-3.484,-3.4731,-3.4716,-3.4478,-3.4219,-3.393,-3.419,-3.4381,-3.4467,-3.5046,-3.5624,-3.6189,-3.6465,-3.6571,-3.661,-3.6763,-3.7029,-3.7429,-3.7739,-3.8045,-3.8361,-3.9421,-4.0234,-4.0525,-4.1468,-4.2078,-4.2092,-4.2092,-4.2092,-4.2092,-4.2092,-4.2092,-4.2092,-4.2092,-4.2092,-4.2092,-4.2092,-4.2092,-4.2092,-4.2092,-4.2092,-4.2092,-4.2092,-4.2092,-4.2092,-4.2092,-4.2092,-4.2092,-4.2092,-4.2092,-4.2092,-4.2092,-4.2092,-4.2092,-4.2092,-4.2092,-4.2092,-4.2092,-4.1961,-4.1555,-4.1352,-4.1018,-4.0626,-4.0046,-3.9668,-4.0452,-4.0465,-4.0465,-4.0465,-4.0465,-4.0465,-4.0465,-4.0465,-4.0465,-4.0465,-4.0654,-4.1851,-4.2439,-4.255,-4.3314,-4.3662,-4.3566,-4.2792,-4.2439,-4.2301,-4.1106,-4.0517,-4.0501,-4.0794,-4.0737,-4.0576,-4.0896,-4.0914,-4.0601,-4.0352,-4.015,-3.9996,-3.9268,-3.9356,-4.0329,-3.9577,-3.9678,-4.0559,-3.9502,-3.8988,-3.9169,-3.8228,-3.7615,-3.7366,-3.6833,-3.6542,-3.6528,-3.6052,-3.576,-3.5746,-3.5545,-3.5456,-3.5583,-3.547,-3.5386,-3.5386,-3.54,-3.54,-3.5428,-3.5977,-3.6314,-3.6328,-3.6712,-3.6978,-3.7031,-3.7134,-3.7303,-3.7495,-3.7739,-3.7949,-3.8289,-3.9334,-4.0147,-4.035,-4.1366,-4.2063,-4.2092,-4.2092,-4.2092,-4.2092,-4.2092,-4.2092,-4.2092,-4.2092,-4.2092,-4.2092,-4.2092,-4.2092,-4.2092,-4.2092,-4.2092,-4.2092,-4.2092,-4.2092,-4.2092,-4.2092,-4.2092,-4.2092,-4.2092,-4.2092,-4.2092,-4.2092,-4.2092,-4.2092,-4.2092,-4.2092,-4.2092,-4.2092,-4.1831,-4.1323,-4.0974,-4.0568,-3.977,-3.9291,-3.8986,-3.8332,-3.8279,-3.8384,-3.8279,-3.8396,-3.8384,-3.8384,-3.8384,-3.8279,-3.8291,-3.8582,-4.0465,-4.1319,-4.1356,-4.1518,-4.1631,-4.1568,-4.1419,-4.1369,-4.1319,-4.1167,-4.1091,-4.0913,-4.0602,-3.9899,-3.9229,-3.9511,-3.9133,-3.804,-3.8559,-3.8583,-3.8089,-3.7978,-3.8387,-3.9224,-3.921,-3.9664,-4.0602,-3.8895,-3.8328,-3.9129,-3.8907,-3.8325,-3.7419,-3.7077,-3.6947,-3.6866,-3.6891,-3.6849,-3.6821,-3.6314,-3.6272,-3.6708,-3.6328,-3.6019,-3.6019,-3.6019,-3.6019,-3.6061,-3.6557,-3.688,-3.6933,-3.6922,-3.6978,-3.6978,-3.7017,-3.7095,-3.7341,-3.7701,-3.8122,-3.8774,-3.958,-4.0307,-4.0786,-4.1599,-4.2092,-4.2092,-4.2092,-4.2092,-4.2092,-4.2092,-4.2092,-4.2092,-4.2092,-4.2092,-4.2092,-4.2092,-4.2092,-4.2092,-4.2092,-4.2092,-4.2092,-4.2092,-4.2092,-4.2092,-4.2092,-4.2092,-4.2092,-4.2092,-4.2092,-4.2092,-4.2092,-4.2092,-4.2092,-4.2092,-4.2092,-4.2092,-4.2063,-4.1802,-4.1062,-4.0481,-3.9813,-3.8754,-3.8405,-3.8376,-3.7974,-3.7974,-3.7974,-3.7974,-3.7974,-3.7974,-3.7974,-3.7974,-3.7974,-3.7974,-3.808,-3.8948,-3.9648,-4.0262,-4.0919,-4.1169,-4.1169,-4.0566,-4.0275,-4.016,-3.9609,-3.9299,-3.9326,-3.974,-3.9677,-3.9322,-3.9702,-3.9609,-3.9055,-3.8713,-3.8337,-3.7782,-3.7196,-3.7428,-3.8225,-3.7769,-3.7997,-3.8926,-3.8206,-3.7704,-3.7449,-3.7043,-3.6498,-3.5931,-3.6355,-3.6534,-3.6324,-3.6705,-3.6978,-3.6964,-3.6792,-3.6726,-3.6964,-3.6792,-3.6652,-3.6652,-3.6652,-3.6652,-3.6613,-3.6852,-3.6978,-3.6978,-3.6978,-3.6978,-3.6978,-3.6978,-3.7056,-3.7148,-3.738,-3.7715,-3.8169,-3.9197,-4.0076,-4.0543,-4.1439,-4.2092,-4.2092,-4.2092,-4.2092,-4.2092,-4.2092,-4.2092,-4.2092,-4.2092,-4.2092,-4.2092,-4.2092,-4.2092,-4.2092,-4.2092,-4.2092,-4.2092,-4.2092,-4.2092,-4.2092,-4.2092,-4.2092,-4.2092,-4.2092,-4.2092,-4.2092,-4.2092,-4.2092,-4.2092,-4.2092,-4.2092,-4.2092,-4.1686,-4.1294,-4.0597,-3.9625,-3.8783,-3.8275,-3.8202,-3.8202,-3.7974,-3.7974,-3.7974,-3.7974,-3.7974,-3.7974,-3.7974,-3.7974,-3.7974,-3.7974,-3.7974,-3.7974,-3.8384,-3.9196,-4.0007,-4.03,-4.0198,-3.9506,-3.9144,-3.9092,-3.8332,-3.8027,-3.808,-3.8739,-3.9144,-3.9198,-3.9449,-3.9572,-3.933,-3.8296,-3.7556,-3.7091,-3.6301,-3.6414,-3.7209,-3.6649,-3.679,-3.7704,-3.752,-3.701,-3.6317,-3.5615,-3.5096,-3.4947,-3.5901,-3.6333,-3.5954,-3.6617,-3.6978,-3.6978,-3.6978,-3.6978,-3.6978,-3.6978,-3.6978,-3.6978,-3.6978,-3.6978,-3.6978,-3.6978,-3.6978,-3.6978,-3.6978,-3.6978,-3.6978,-3.6978,-3.6978,-3.7031,-3.7134,-3.7303,-3.7624,-3.891,-3.9798,-4.0058,-4.1253,-4.2078,-4.2092,-4.2092,-4.2092,-4.2092,-4.2092,-4.2092,-4.2092,-4.2092,-4.2092,-4.2092,-4.2092,-4.2092,-4.2092,-4.2092,-4.2092,-4.2092,-4.2092,-4.2092,-4.2092,-4.2092,-4.2092,-4.2092,-4.2092,-4.2092,-4.2092,-4.2092,-4.2092,-4.2092,-4.2092,-4.1932,-4.1715,-4.1279,-4.0757,-3.9944,-3.903,-3.8289,-3.8217,-3.8202,-3.8202,-3.7974,-3.7974,-3.7974,-3.7974,-3.7974,-3.7974,-3.7974,-3.7974,-3.7974,-3.7974,-3.7974,-3.7974,-3.8027,-3.8133,-3.8332,-3.8173,-3.8185,-3.8185,-3.8185,-3.8185,-3.8027,-3.7974,-3.7974,-3.8027,-3.808,-3.8226,-3.8271,-3.8004,-3.7454,-3.641,-3.5704,-3.5706,-3.5296,-3.5416,-3.6263,-3.6298,-3.679,-3.7394,-3.679,-3.6307,-3.6178,-3.5307,-3.5014,-3.5336,-3.6082,-3.6411,-3.6428,-3.6773,-3.6993,-3.6978,-3.6978,-3.6978,-3.6978,-3.6978,-3.6978,-3.6978,-3.6978,-3.6978,-3.6978,-3.6978,-3.6978,-3.6978,-3.6978,-3.6978,-3.6978,-3.6978,-3.6978,-3.6978,-3.7017,-3.7095,-3.7512,-3.8875,-3.979,-4.0,-4.1201,-4.2005,-4.2092,-4.2092,-4.2092,-4.2092,-4.2092,-4.2092,-4.2092,-4.2092,-4.2092,-4.2092,-4.2092,-4.2092,-4.2092,-4.2092,-4.2092,-4.2051,-4.2051,-4.2107,-4.2051,-4.2092,-4.2092,-4.2092,-4.2092,-4.1995,-4.2092,-4.2092,-4.2092,-4.2036,-4.2092,-4.1819,-4.1366,-4.0844,-4.0307,-3.9596,-3.8826,-3.8275,-3.8202,-3.8202,-3.8165,-3.8298,-3.7986,-3.7974,-3.7974,-3.7974,-3.7974,-3.7974,-3.7974,-3.7974,-3.7974,-3.7974,-3.7974,-3.7974,-3.7974,-3.7974,-3.7974,-3.7974,-3.7974,-3.7974,-3.7974,-3.7974,-3.7974,-3.7974,-3.7974,-3.7974,-3.7974,-3.7974,-3.7709,-3.7228,-3.6783,-3.6447,-3.6074,-3.5543,-3.5513,-3.5746,-3.5502,-3.5523,-3.5798,-3.5475,-3.5343,-3.5343,-3.4969,-3.486,-3.5038,-3.5507,-3.5747,-3.563,-3.6292,-3.675,-3.6968,-3.6978,-3.6978,-3.6978,-3.6978,-3.6978,-3.6978,-3.6978,-3.6978,-3.6978,-3.6978,-3.6978,-3.6978,-3.6978,-3.6978,-3.6978,-3.6978,-3.6978,-3.6978,-3.6978,-3.7236,-3.7969,-3.897,-3.9814,-4.0478,-4.1418,-4.2092,-4.2092,-4.2092,-4.2092,-4.2092,-4.2092,-4.2092,-4.2051,-4.2092,-4.2092,-4.2092,-4.2092,-4.2036,-4.2092,-4.2092,-4.1995,-4.1953,-4.1577,-4.1156,-4.1156,-4.1758,-4.2092,-4.2092,-4.2036,-4.166,-4.1521,-4.1856,-4.1912,-4.1489,-4.1601,-4.1478,-4.0859,-3.9935,-3.9483,-3.877,-3.802,-3.8057,-3.8202,-3.7848,-3.7848,-3.8491,-3.8022,-3.7974,-3.7974,-3.7974,-3.7974,-3.7974,-3.7974,-3.7974,-3.7974,-3.7974,-3.7974,-3.7974,-3.7974,-3.7974,-3.7974,-3.7974,-3.7974,-3.7974,-3.7974,-3.7974,-3.7974,-3.7974,-3.7974,-3.7974,-3.7974,-3.7974,-3.7781,-3.7469,-3.7276,-3.7012,-3.6639,-3.6122,-3.5773,-3.5581,-3.5256,-3.5028,-3.4823,-3.4775,-3.4823,-3.4775,-3.4775,-3.4775,-3.4824,-3.5085,-3.5203,-3.5185,-3.604,-3.6607,-3.6761,-3.6684,-3.6573,-3.6612,-3.6847,-3.6978,-3.6978,-3.6978,-3.6978,-3.6978,-3.6978,-3.6978,-3.6978,-3.6978,-3.6978,-3.6978,-3.6978,-3.6978,-3.7007,-3.7217,-3.7619,-3.8413,-3.9278,-4.0103,-4.0795,-4.1577,-4.2078,-4.2092,-4.2092,-4.2092,-4.2092,-4.2092,-4.1953,-4.1675,-4.1619,-4.1409,-4.1241,-4.1184,-4.1226,-4.1535,-4.1325,-4.1311,-4.1451,-4.0717,-4.026,-4.0159,-4.0546,-4.117,-4.1269,-4.1773,-4.1395,-4.1057,-4.1423,-4.1364,-4.097,-4.0755,-4.0676,-4.0153,-3.9176,-3.837,-3.7682,-3.7529,-3.7544,-3.7491,-3.7323,-3.7362,-3.8491,-3.801,-3.7974,-3.7974,-3.7974,-3.7974,-3.7974,-3.7974,-3.7974,-3.7974,-3.7974,-3.7974,-3.7974,-3.7974,-3.7974,-3.7974,-3.7974,-3.7974,-3.7974,-3.7974,-3.7974,-3.7974,-3.7974,-3.7974,-3.7974,-3.7974,-3.7974,-3.7962,-3.789,-3.7505,-3.724,-3.712,-3.6675,-3.6218,-3.5689,-3.5617,-3.5328,-3.4943,-3.4823,-3.4775,-3.4775,-3.4775,-3.4775,-3.4775,-3.4824,-3.4978,-3.5315,-3.6117,-3.652,-3.6455,-3.6062,-3.5736,-3.5937,-3.6494,-3.694,-3.6978,-3.6978,-3.6978,-3.6978,-3.6978,-3.6978,-3.6978,-3.6978,-3.6978,-3.6978,-3.7035,-3.7077,-3.7161,-3.7597,-3.8213,-3.8968,-3.982,-4.0533,-4.0838,-4.1635,-4.2078,-4.2092,-4.2092,-4.2092,-4.2092,-4.2092,-4.1675,-4.0916,-4.0774,-4.0518,-3.9826,-3.9563,-3.9826,-4.0389,-4.01,-3.9826,-4.0159,-3.9855,-3.9254,-3.9197,-3.9241,-3.9812,-4.0303,-4.1085,-4.1254,-4.0661,-4.0646,-4.0238,-3.9872,-3.9618,-3.9554,-3.8758,-3.7845,-3.7186,-3.6674,-3.6805,-3.6975,-3.7039,-3.6961,-3.6883,-3.8491,-3.7998,-3.7974,-3.7974,-3.7974,-3.7974,-3.7974,-3.7974,-3.7974,-3.7974,-3.7974,-3.7974,-3.7974,-3.7974,-3.7974,-3.7974,-3.7974,-3.7974,-3.7974,-3.7974,-3.7974,-3.7974,-3.7974,-3.7974,-3.7974,-3.7974,-3.7974,-3.7974,-3.795,-3.7805,-3.7733,-3.7625,-3.7204,-3.6879,-3.6627,-3.6002,-3.5497,-3.5364,-3.4967,-3.4775,-3.4775,-3.4775,-3.4775,-3.4775,-3.4775,-3.4872,-3.5027,-3.607,-3.6608,-3.6479,-3.6388,-3.6144,-3.5845,-3.595,-3.6375,-3.69,-3.6978,-3.6978,-3.6978,-3.6993,-3.7007,-3.6993,-3.6993,-3.6978,-3.7049,-3.7386,-3.7557,-3.7641,-3.8227,-3.8941,-3.9834,-4.0283,-4.0639,-4.1178,-4.1755,-4.2092,-4.2092,-4.2051,-4.2092,-4.2092,-4.2092,-4.1633,-4.0873,-4.0546,-4.0073,-3.9241,-3.9064,-3.9285,-3.9461,-3.9285,-3.9254,-3.9505,-3.881,-3.8251,-3.8238,-3.8225,-3.8496,-3.9108,-3.9927,-4.0603,-4.0131,-3.9603,-3.9186,-3.8751,-3.8505,-3.8032,-3.7246,-3.6685,-3.6153,-3.5829,-3.5909,-3.6241,-3.6674,-3.661,-3.6334,-3.8791,-3.8286,-3.807,-3.7974,-3.7974,-3.7974,-3.7974,-3.7974,-3.7974,-3.7974,-3.7974,-3.7974,-3.7974,-3.7974,-3.7974,-3.7974,-3.7974,-3.7974,-3.7974,-3.7974,-3.7974,-3.7974,-3.7974,-3.7974,-3.7974,-3.7974,-3.7974,-3.7974,-3.7974,-3.7974,-3.7974,-3.7902,-3.7649,-3.736,-3.7144,-3.6362,-3.5845,-3.5593,-3.51,-3.4775,-3.4775,-3.4775,-3.4775,-3.4775,-3.4775,-3.4775,-3.4896,-3.5968,-3.6457,-3.617,-3.6066,-3.5698,-3.5103,-3.5098,-3.544,-3.5896,-3.6322,-3.6494,-3.6547,-3.7007,-3.733,-3.7304,-3.7235,-3.716,-3.7229,-3.7576,-3.7715,-3.7812,-3.8655,-3.9408,-3.9732,-4.0154,-4.0379,-4.0403,-4.1465,-4.2009,-4.2051,-4.1758,-4.1535,-4.1395,-4.117,-4.0603,-3.9869,-3.9549,-3.9197,-3.8405,-3.8134,-3.8405,-3.8464,-3.8315,-3.8405,-3.8328,-3.7841,-3.7441,-3.7315,-3.7268,-3.7256,-3.7874,-3.863,-3.9166,-3.9241,-3.8737,-3.826,-3.7443,-3.7023,-3.6593,-3.5872,-3.5778,-3.5426,-3.5291,-3.4992,-3.5291,-3.5534,-3.5454,-3.5264,-3.9272,-3.8731,-3.8202,-3.7974,-3.7974,-3.7974,-3.7974,-3.7974,-3.7974,-3.7974,-3.7974,-3.7974,-3.7974,-3.7974,-3.7974,-3.7974,-3.7974,-3.7974,-3.7974,-3.7974,-3.7974,-3.7974,-3.7974,-3.7974,-3.7974,-3.7974,-3.7974,-3.7974,-3.7974,-3.7974,-3.7974,-3.7962,-3.7914,-3.7745,-3.7288,-3.6711,-3.6194,-3.5725,-3.5184,-3.4871,-3.4787,-3.4775,-3.4775,-3.4775,-3.4775,-3.4775,-3.4945,-3.5653,-3.5925,-3.5462,-3.528,-3.4852,-3.4147,-3.4161,-3.4444,-3.4776,-3.533,-3.571,-3.6062,-3.6999,-3.7613,-3.7479,-3.7414,-3.7335,-3.7199,-3.7225,-3.7346,-3.7429,-3.8626,-3.9352,-3.9049,-3.9408,-3.9593,-3.9326,-4.0588,-4.1549,-4.1773,-4.1015,-4.0617,-4.0389,-3.9724,-3.8899,-3.8251,-3.8069,-3.7579,-3.6943,-3.6722,-3.7129,-3.7394,-3.7394,-3.7083,-3.7002,-3.6989,-3.6909,-3.6862,-3.6862,-3.6862,-3.7083,-3.7612,-3.7919,-3.8204,-3.7729,-3.7019,-3.6197,-3.5814,-3.5264,-3.4853,-3.4799,-3.4454,-3.4037,-3.4008,-3.423,-3.4481,-3.4634,-3.4662,-3.9056,-3.8202,-3.8046,-3.7974,-3.7974,-3.7974,-3.7974,-3.7974,-3.7974,-3.7974,-3.7974,-3.7974,-3.7974,-3.7974,-3.7974,-3.7974,-3.7974,-3.7974,-3.7974,-3.7974,-3.7974,-3.7974,-3.7974,-3.7974,-3.7974,-3.7974,-3.7974,-3.7974,-3.7974,-3.7974,-3.7974,-3.7974,-3.7974,-3.7926,-3.7697,-3.7216,-3.6723,-3.6206,-3.5677,-3.5196,-3.4847,-3.4799,-3.4775,-3.4775,-3.4775,-3.4775,-3.4775,-3.5017,-3.5325,-3.5424,-3.4987,-3.4673,-3.4392,-3.4394,-3.464,-3.5193,-3.5591,-3.5802,-3.6029,-3.6884,-3.716,-3.6609,-3.7037,-3.7093,-3.6375,-3.6727,-3.6911,-3.7144,-3.798,-3.8626,-3.8608,-3.8876,-3.9073,-3.9237,-3.9621,-4.0014,-4.0057,-3.9782,-3.9549,-3.9505,-3.9285,-3.863,-3.8024,-3.7671,-3.7361,-3.664,-3.6417,-3.6452,-3.6769,-3.6769,-3.6687,-3.6593,-3.6546,-3.6499,-3.6465,-3.6465,-3.6452,-3.6499,-3.6722,-3.6862,-3.687,-3.656,-3.5671,-3.473,-3.5185,-3.4878,-3.4315,-3.4021,-3.3484,-3.3154,-3.3326,-3.3696,-3.4189,-3.4481,-3.4384,-3.9104,-3.831,-3.807,-3.7974,-3.7974,-3.7974,-3.7974,-3.7974,-3.7974,-3.7974,-3.7974,-3.7974,-3.7974,-3.7974,-3.7974,-3.7974,-3.7974,-3.7974,-3.7974,-3.7974,-3.7974,-3.7974,-3.7974,-3.7974,-3.7974,-3.7974,-3.7974,-3.7974,-3.7974,-3.7974,-3.7974,-3.7974,-3.7974,-3.7974,-3.7914,-3.7457,-3.706,-3.6699,-3.6218,-3.5689,-3.5208,-3.5111,-3.4955,-3.4847,-3.4775,-3.4775,-3.4775,-3.4823,-3.4944,-3.502,-3.4659,-3.4351,-3.4315,-3.4176,-3.4293,-3.4798,-3.5111,-3.5353,-3.555,-3.6429,-3.6849,-3.6475,-3.6757,-3.6584,-3.627,-3.6391,-3.6603,-3.67,-3.758,-3.7984,-3.7887,-3.79,-3.79,-3.7933,-3.7997,-3.836,-3.9033,-3.8899,-3.863,-3.8541,-3.8225,-3.7874,-3.7268,-3.7222,-3.6956,-3.6593,-3.6417,-3.6417,-3.6465,-3.6417,-3.6417,-3.6417,-3.6417,-3.6417,-3.6417,-3.6417,-3.6417,-3.6417,-3.6417,-3.6417,-3.6267,-3.5931,-3.5265,-3.4742,-3.4722,-3.4529,-3.3999,-3.3547,-3.3356,-3.3154,-3.3124,-3.3253,-3.3738,-3.4076,-3.4021,-3.9212,-3.8683,-3.8178,-3.7974,-3.7974,-3.7974,-3.7974,-3.7974,-3.7974,-3.7974,-3.7974,-3.7974,-3.7974,-3.7974,-3.7974,-3.7974,-3.7974,-3.7974,-3.7974,-3.7974,-3.7974,-3.7974,-3.7974,-3.7974,-3.7974,-3.7974,-3.7974,-3.7974,-3.7974,-3.7974,-3.7974,-3.7974,-3.7974,-3.7974,-3.7914,-3.7529,-3.7276,-3.7072,-3.6723,-3.623,-3.5761,-3.5581,-3.534,-3.5064,-3.4847,-3.4775,-3.4775,-3.4775,-3.4836,-3.4811,-3.4318,-3.4198,-3.4113,-3.3716,-3.3618,-3.3817,-3.4444,-3.4774,-3.4873,-3.6005,-3.6638,-3.6385,-3.6273,-3.6225,-3.6053,-3.6018,-3.6031,-3.6031,-3.7183,-3.7302,-3.7095,-3.6687,-3.6687,-3.6722,-3.6593,-3.7302,-3.8283,-3.8147,-3.7671,-3.7638,-3.6896,-3.6499,-3.6417,-3.6417,-3.6417,-3.6499,-3.6417,-3.6417,-3.6417,-3.6417,-3.6417,-3.6417,-3.6417,-3.6417,-3.6417,-3.6417,-3.6417,-3.6417,-3.6417,-3.6405,-3.6342,-3.5994,-3.5491,-3.5113,-3.4908,-3.4362,-3.3674,-3.3343,-3.323,-3.3154,-3.3124,-3.3124,-3.321,-3.3411,-3.3496,-3.8659,-3.8142,-3.8034,-3.7974,-3.7974,-3.7974,-3.7974,-3.7974,-3.7974,-3.7974,-3.7974,-3.7974,-3.7974,-3.7974,-3.7974,-3.7974,-3.7974,-3.7974,-3.7974,-3.7974,-3.7974,-3.7974,-3.7974,-3.7974,-3.7974,-3.7974,-3.7974,-3.7974,-3.7974,-3.7974,-3.7974,-3.7974,-3.7974,-3.7974,-3.7938,-3.7829,-3.7577,-3.7252,-3.7072,-3.6771,-3.6242,-3.5845,-3.5569,-3.534,-3.5016,-3.4787,-3.4775,-3.4775,-3.4775,-3.4739,-3.4667,-3.4546,-3.4522,-3.4438,-3.439,-3.4426,-3.4546,-3.4762,-3.4954,-3.5677,-3.6025,-3.5458,-3.5817,-3.5941,-3.515,-3.5199,-3.515,-3.5199,-3.5584,-3.6108,-3.6288,-3.637,-3.637,-3.6417,-3.6417,-3.6546,-3.6909,-3.6909,-3.6815,-3.6734,-3.6593,-3.6417,-3.6417,-3.6417,-3.6417,-3.6417,-3.6417,-3.6417,-3.6417,-3.6417,-3.6417,-3.6417,-3.6417,-3.6417,-3.6417,-3.6417,-3.6417,-3.6417,-3.6417,-3.6417,-3.6355,-3.6254,-3.578,-3.5353,-3.4939,-3.4349,-3.3721,-3.3332,-3.325,-3.3187,-3.3124,-3.3124,-3.3124,-3.3124,-3.3124,-3.8491,-3.7986,-3.7974,-3.7974,-3.7974,-3.7974,-3.7974,-3.7974,-3.7974,-3.7974,-3.7974,-3.7974,-3.7974,-3.7974,-3.7974,-3.7974,-3.7974,-3.7974,-3.7974,-3.7974,-3.7974,-3.7974,-3.7974,-3.7974,-3.7974,-3.7974,-3.7974,-3.7974,-3.7974,-3.7974,-3.7974,-3.7974,-3.7974,-3.7974,-3.7974,-3.7974,-3.7829,-3.7649,-3.7565,-3.7312,-3.6783,-3.6266,-3.5641,-3.5279,-3.4931,-3.4775,-3.4775,-3.4775,-3.4775,-3.4775,-3.4775,-3.4775,-3.4775,-3.4775,-3.4775,-3.4775,-3.4775,-3.4775,-3.5005,-3.5247,-3.5367,-3.4872,-3.5331,-3.5199,-3.492,-3.4775,-3.4775,-3.4872,-3.5078,-3.5428,-3.592,-3.6098,-3.6228,-3.637,-3.6417,-3.6417,-3.6417,-3.6417,-3.6417,-3.6417,-3.6417,-3.6417,-3.6417,-3.6417,-3.6417,-3.6417,-3.6417,-3.6417,-3.6417,-3.6417,-3.6417,-3.6417,-3.6417,-3.6417,-3.6417,-3.6417,-3.6417,-3.6417,-3.6417,-3.6417,-3.6392,-3.6304,-3.6132,-3.5692,-3.5182,-3.4663,-3.4073,-3.3696,-3.3294,-3.3187,-3.3124,-3.3124,-3.3124,-3.3124,-3.3124,-3.8419,-3.7974,-3.7974,-3.7974,-3.7974,-3.7974,-3.7974,-3.7974,-3.7974,-3.7974,-3.7974,-3.7974,-3.7974,-3.7974,-3.7974,-3.7974,-3.7974,-3.7974,-3.7974,-3.7974,-3.7974,-3.7974,-3.7974,-3.7974,-3.7974,-3.7974,-3.7974,-3.7974,-3.7974,-3.7974,-3.7974,-3.7974,-3.7974,-3.7974,-3.7974,-3.7974,-3.795,-3.789,-3.789,-3.7757,-3.73,-3.6783,-3.6062,-3.5256,-3.4895,-3.4775,-3.4775,-3.4775,-3.4775,-3.4775,-3.4775,-3.4775,-3.4775,-3.4775,-3.4775,-3.4775,-3.4775,-3.4775,-3.4775,-3.486,-3.486,-3.4775,-3.4823,-3.4823,-3.4823,-3.4775,-3.4775,-3.4872,-3.503,-3.538,-3.5872,-3.6015,-3.6146,-3.6323,-3.6417,-3.6417,-3.6417,-3.6417,-3.6417,-3.6417,-3.6417,-3.6417,-3.6417,-3.6417,-3.6417,-3.6417,-3.6417,-3.6417,-3.6417,-3.6417,-3.6417,-3.6417,-3.6417,-3.6417,-3.6417,-3.6417,-3.6417,-3.6417,-3.6417,-3.6417,-3.6417,-3.6367,-3.6241,-3.5918,-3.5454,-3.4926,-3.4412,-3.3972,-3.3596,-3.3269,-3.3124,-3.3124,-3.3124,-3.3124,-3.3124,-3.8058,-3.7974,-3.7974,-3.7974,-3.7974,-3.7974,-3.7974,-3.7974,-3.7974,-3.7974,-3.7974,-3.7974,-3.7974,-3.7974,-3.7974,-3.7974,-3.7974,-3.7974,-3.7974,-3.7974,-3.7974,-3.7974,-3.7974,-3.7974,-3.7974,-3.7974,-3.7974,-3.7974,-3.7974,-3.7974,-3.7974,-3.7974,-3.7974,-3.7974,-3.7974,-3.7974,-3.7974,-3.7974,-3.7974,-3.7878,-3.7697,-3.7228,-3.6483,-3.5509,-3.51,-3.4835,-3.4775,-3.4775,-3.4775,-3.4775,-3.4775,-3.4775,-3.4775,-3.4775,-3.4775,-3.4775,-3.4775,-3.4775,-3.4775,-3.4775,-3.4775,-3.4775,-3.4775,-3.4775,-3.4775,-3.4775,-3.4775,-3.4872,-3.503,-3.532,-3.562,-3.5872,-3.6098,-3.6323,-3.6417,-3.6417,-3.6417,-3.6417,-3.6417,-3.6417,-3.6417,-3.6417,-3.6417,-3.6417,-3.6417,-3.6417,-3.6417,-3.6417,-3.6417,-3.6417,-3.6417,-3.6417,-3.6417,-3.6417,-3.6417,-3.6417,-3.6417,-3.6417,-3.6417,-3.6417,-3.6417,-3.6417,-3.6279,-3.6031,-3.5755,-3.527,-3.4768,-3.4311,-3.3809,-3.342,-3.3244,-3.3136,-3.3124,-3.3124,-3.3124,-3.7974,-3.7974,-3.7974,-3.7974,-3.7974,-3.7974,-3.7974,-3.7974,-3.7974,-3.7974,-3.7974,-3.7974,-3.7974,-3.7974,-3.7974,-3.7974,-3.7974,-3.7974,-3.7974,-3.7974,-3.7974,-3.7974,-3.7974,-3.7974,-3.7974,-3.7974,-3.7974,-3.7974,-3.7974,-3.7974,-3.7974,-3.7974,-3.7974,-3.7974,-3.7974,-3.7974,-3.7974,-3.7974,-3.7974,-3.7974,-3.7926,-3.7469,-3.6651,-3.5833,-3.5339,-3.5063,-3.4799,-3.4775,-3.4775,-3.4775,-3.4775,-3.4775,-3.4775,-3.4775,-3.4775,-3.4775,-3.4775,-3.4775,-3.4775,-3.4775,-3.4775,-3.4775,-3.4775,-3.4775,-3.4775,-3.4775,-3.4775,-3.4872,-3.503,-3.532,-3.5572,-3.5872,-3.6098,-3.6323,-3.6417,-3.6417,-3.6417,-3.6417,-3.6417,-3.6417,-3.6417,-3.6417,-3.6417,-3.6417,-3.6417,-3.6417,-3.6417,-3.6417,-3.6417,-3.6417,-3.6417,-3.6417,-3.6417,-3.6417,-3.6417,-3.6417,-3.6417,-3.6417,-3.6417,-3.6417,-3.6417,-3.6417,-3.6417,-3.6329,-3.5968,-3.5667,-3.5207,-3.4763,-3.4173,-3.3596,-3.337,-3.3224,-3.3162,-3.3124,-3.3124,-3.7974,-3.7974,-3.7974,-3.7974,-3.7974,-3.7974,-3.7974,-3.7974,-3.7974,-3.7974,-3.7974,-3.7974,-3.7974,-3.7974,-3.7974,-3.7974,-3.7974,-3.7974,-3.7974,-3.7974,-3.7974,-3.7974,-3.7974,-3.7974,-3.7974,-3.7974,-3.7974,-3.7974,-3.7974,-3.7974,-3.7974,-3.7974,-3.7974,-3.7974,-3.7974,-3.7974,-3.7974,-3.7974,-3.7974,-3.7974,-3.7853,-3.7445,-3.6831,-3.5954,-3.5749,-3.54,-3.5088,-3.4883,-3.4787,-3.4775,-3.4775,-3.4775,-3.4775,-3.4775,-3.4775,-3.4775,-3.4775,-3.4775,-3.4775,-3.4775,-3.4775,-3.4775,-3.4775,-3.4775,-3.4775,-3.4823,-3.4823,-3.4872,-3.5078,-3.5368,-3.5668,-3.5872,-3.6098,-3.6323,-3.6417,-3.6417,-3.6417,-3.6417,-3.6417,-3.6417,-3.6417,-3.6417,-3.6417,-3.6417,-3.6417,-3.6417,-3.6417,-3.6417,-3.6417,-3.6417,-3.6417,-3.6417,-3.6417,-3.6417,-3.6417,-3.6417,-3.6417,-3.6417,-3.6417,-3.6417,-3.6417,-3.6417,-3.6417,-3.6417,-3.6367,-3.6019,-3.5617,-3.5132,-3.4575,-3.4022,-3.3558,-3.33,-3.3187,-3.3136,-3.3124,-3.7974,-3.7974,-3.7974,-3.7974,-3.7974,-3.7974,-3.7974,-3.7974,-3.7974,-3.7974,-3.7974,-3.7974,-3.7974,-3.7974,-3.7974,-3.7974,-3.7974,-3.7974,-3.7974,-3.7974,-3.7974,-3.7974,-3.7974,-3.7974,-3.7974,-3.7974,-3.7974,-3.7974,-3.7974,-3.7974,-3.7974,-3.7974,-3.7974,-3.7974,-3.7974,-3.7974,-3.7974,-3.7974,-3.7974,-3.7974,-3.7902,-3.7481,-3.7168,-3.6759,-3.617,-3.5605,-3.5388,-3.5076,-3.4775,-3.4775,-3.4775,-3.4775,-3.4775,-3.4775,-3.4775,-3.4775,-3.4775,-3.4775,-3.4775,-3.4775,-3.4775,-3.4775,-3.4775,-3.4775,-3.4775,-3.4823,-3.4884,-3.5126,-3.5223,-3.5416,-3.5812,-3.5955,-3.6133,-3.6275,-3.6417,-3.6417,-3.6417,-3.6417,-3.6417,-3.6417,-3.6417,-3.6417,-3.6417,-3.6417,-3.6417,-3.6417,-3.6417,-3.6417,-3.6417,-3.6417,-3.6417,-3.6417,-3.6417,-3.6417,-3.6417,-3.6417,-3.6417,-3.6417,-3.6417,-3.6417,-3.6417,-3.6417,-3.6417,-3.6417,-3.6417,-3.6317,-3.5843,-3.5378,-3.4856,-3.4437,-3.3947,-3.3508,-3.3131,-3.3149,-3.3136,-3.7974,-3.7974,-3.7974,-3.7974,-3.7974,-3.7974,-3.7974,-3.7974,-3.7974,-3.7974,-3.7974,-3.7974,-3.7974,-3.7974,-3.7974,-3.7974,-3.7974,-3.7974,-3.7974,-3.7974,-3.7974,-3.7974,-3.7974,-3.7974,-3.7974,-3.7974,-3.7974,-3.7974,-3.7974,-3.7974,-3.7974,-3.7974,-3.7974,-3.7974,-3.7974,-3.7974,-3.7974,-3.7974,-3.7974,-3.7974,-3.7914,-3.7745,-3.7505,-3.7204,-3.6447,-3.599,-3.5605,-3.5063,-3.4787,-3.4775,-3.4775,-3.4775,-3.4775,-3.4775,-3.4775,-3.4775,-3.4775,-3.4775,-3.4775,-3.4775,-3.4775,-3.4775,-3.4775,-3.4775,-3.4775,-3.4823,-3.492,-3.5175,-3.5368,-3.562,-3.5955,-3.6146,-3.6275,-3.6358,-3.6417,-3.6417,-3.6417,-3.6417,-3.6417,-3.6417,-3.6417,-3.6417,-3.6417,-3.6417,-3.6417,-3.6417,-3.6417,-3.6417,-3.6417,-3.6417,-3.6417,-3.6417,-3.6417,-3.6417,-3.6417,-3.6417,-3.6417,-3.6417,-3.6417,-3.6417,-3.6417,-3.6417,-3.6417,-3.6417,-3.6417,-3.6254,-3.5968,-3.568,-3.5232,-3.4813,-3.4336,-3.3909,-3.3495,-3.3119,-3.3149,-3.7826,-3.788,-3.7986,-3.7974,-3.7974,-3.7974,-3.7974,-3.7974,-3.7974,-3.7974,-3.7974,-3.7974,-3.7974,-3.7974,-3.7974,-3.7974,-3.7974,-3.7974,-3.7974,-3.7974,-3.7974,-3.7974,-3.7974,-3.7974,-3.7974,-3.7974,-3.7974,-3.7974,-3.7974,-3.7974,-3.7974,-3.7974,-3.7974,-3.7974,-3.7974,-3.7974,-3.7974,-3.7974,-3.7974,-3.7974,-3.7962,-3.7962,-3.7733,-3.736,-3.6879,-3.6411,-3.599,-3.5352,-3.5064,-3.5003,-3.4835,-3.4775,-3.4775,-3.4775,-3.4775,-3.4775,-3.4775,-3.4775,-3.4775,-3.4775,-3.4775,-3.4775,-3.4775,-3.4775,-3.4823,-3.4823,-3.503,-3.532,-3.556,-3.5812,-3.6051,-3.6275,-3.637,-3.6417,-3.6417,-3.6417,-3.6417,-3.6417,-3.6417,-3.6417,-3.6417,-3.6417,-3.6417,-3.6417,-3.6417,-3.6417,-3.6417,-3.6417,-3.6417,-3.6417,-3.6417,-3.6417,-3.6417,-3.6417,-3.6417,-3.6417,-3.6417,-3.6417,-3.6417,-3.6417,-3.6417,-3.6417,-3.6417,-3.6417,-3.6417,-3.6355,-3.6169,-3.5918,-3.5621,-3.5194,-3.4801,-3.4336,-3.3897,-3.3458,-3.3162,-3.7358,-3.7649,-3.7892,-3.7974,-3.7974,-3.7974,-3.7974,-3.7974,-3.7974,-3.7974,-3.7974,-3.7974,-3.7974,-3.7974,-3.7974,-3.7974,-3.7974,-3.7974,-3.7974,-3.7974,-3.7974,-3.7974,-3.7974,-3.7974,-3.7974,-3.7974,-3.7974,-3.7974,-3.7974,-3.7974,-3.7974,-3.7974,-3.7974,-3.7974,-3.7974,-3.7974,-3.7974,-3.7974,-3.7974,-3.7974,-3.7974,-3.7974,-3.7926,-3.7805,-3.7433,-3.7096,-3.7012,-3.6086,-3.5485,-3.5461,-3.5099,-3.4811,-3.4799,-3.4775,-3.4775,-3.4775,-3.4775,-3.4775,-3.4775,-3.4775,-3.4775,-3.4775,-3.4775,-3.4823,-3.4884,-3.5066,-3.5271,-3.5524,-3.5764,-3.6051,-3.6228,-3.6405,-3.6417,-3.6417,-3.6417,-3.6417,-3.6417,-3.6417,-3.6417,-3.6417,-3.6417,-3.6417,-3.6417,-3.6417,-3.6417,-3.6417,-3.6417,-3.6417,-3.6417,-3.6417,-3.6417,-3.6417,-3.6417,-3.6417,-3.6417,-3.6417,-3.6417,-3.6417,-3.6417,-3.6417,-3.6417,-3.6417,-3.6417,-3.6417,-3.6417,-3.6417,-3.6405,-3.6157,-3.5943,-3.5621,-3.5219,-3.4726,-3.4135,-3.3596,-3.3282,-3.7185,-3.7316,-3.74,-3.7667,-3.7974,-3.7974,-3.7974,-3.7974,-3.7974,-3.7974,-3.7974,-3.7974,-3.7974,-3.7974,-3.7974,-3.7974,-3.7974,-3.7974,-3.7974,-3.7974,-3.7974,-3.7974,-3.7974,-3.7974,-3.7974,-3.7974,-3.7974,-3.7974,-3.7974,-3.7974,-3.7974,-3.7974,-3.7974,-3.7974,-3.7974,-3.7974,-3.7974,-3.7974,-3.7974,-3.7974,-3.7974,-3.7974,-3.7974,-3.7938,-3.7469,-3.7228,-3.7072,-3.6483,-3.6014,-3.5665,-3.5387,-3.5123,-3.4859,-3.4811,-3.4775,-3.4775,-3.4775,-3.4775,-3.4775,-3.4775,-3.4775,-3.4775,-3.4823,-3.4884,-3.4981,-3.5175,-3.5416,-3.5716,-3.5968,-3.6146,-3.6323,-3.6405,-3.6417,-3.6417,-3.6417,-3.6417,-3.6417,-3.6417,-3.6417,-3.6417,-3.6417,-3.6417,-3.6417,-3.6417,-3.6417,-3.6417,-3.6417,-3.6417,-3.6417,-3.6417,-3.6417,-3.6417,-3.6417,-3.6417,-3.6417,-3.6417,-3.6417,-3.6417,-3.6417,-3.6417,-3.6417,-3.6417,-3.6417,-3.6417,-3.6417,-3.6417,-3.6417,-3.6417,-3.6267,-3.5981,-3.5567,-3.4994,-3.4424,-3.3834,-3.3533,-3.658,-3.697,-3.697,-3.7239,-3.772,-3.7826,-3.7892,-3.7892,-3.7974,-3.7974,-3.7974,-3.7974,-3.7974,-3.7974,-3.7974,-3.7974,-3.7974,-3.7974,-3.7974,-3.7974,-3.7974,-3.7974,-3.7974,-3.7974,-3.7974,-3.7974,-3.7974,-3.7974,-3.7974,-3.7974,-3.7974,-3.7974,-3.7974,-3.7974,-3.7974,-3.7974,-3.7974,-3.7974,-3.7974,-3.7974,-3.7974,-3.7974,-3.7974,-3.795,-3.7637,-3.7517,-3.736,-3.6952,-3.6543,-3.6158,-3.5809,-3.5437,-3.5148,-3.4931,-3.4787,-3.4775,-3.4787,-3.4787,-3.4775,-3.4775,-3.4775,-3.4775,-3.4775,-3.492,-3.5126,-3.5271,-3.5572,-3.5908,-3.6051,-3.6193,-3.6417,-3.6417,-3.6417,-3.6417,-3.6417,-3.6417,-3.6417,-3.6417,-3.6417,-3.6417,-3.6417,-3.643,-3.643,-3.643,-3.6417,-3.6417,-3.6417,-3.6417,-3.6417,-3.6417,-3.6417,-3.6417,-3.6417,-3.6417,-3.6417,-3.6417,-3.6417,-3.6417,-3.6417,-3.6417,-3.6417,-3.6417,-3.6417,-3.6417,-3.6417,-3.6417,-3.6417,-3.6417,-3.6417,-3.638,-3.583,-3.5245,-3.4956,-3.4449,-3.3935,-3.5367,-3.6646,-3.6646,-3.6808,-3.7024,-3.7477,-3.7596,-3.7637,-3.7838,-3.7974,-3.7974,-3.7974,-3.7974,-3.7974,-3.7974,-3.7974,-3.7974,-3.7974,-3.7974,-3.7974,-3.7974,-3.7974,-3.7974,-3.7974,-3.7974,-3.7974,-3.7974,-3.7974,-3.7974,-3.7974,-3.7974,-3.7974,-3.7974,-3.7974,-3.7974,-3.7974,-3.7974,-3.7974,-3.7974,-3.7974,-3.7974,-3.7974,-3.7974,-3.7938,-3.789,-3.7805,-3.7685,-3.7433,-3.7072,-3.6819,-3.6206,-3.5833,-3.5617,-3.5232,-3.504,-3.4931,-3.4956,-3.4931,-3.4871,-3.4787,-3.4775,-3.4775,-3.4775,-3.4932,-3.5223,-3.5416,-3.5716,-3.6051,-3.6303,-3.636,-3.643,-3.6455,-3.6505,-3.6417,-3.6417,-3.6518,-3.6531,-3.6619,-3.6656,-3.6883,-3.6656,-3.6455,-3.6443,-3.6443,-3.6417,-3.6417,-3.6417,-3.6417,-3.6417,-3.6417,-3.6417,-3.6417,-3.6417,-3.6417,-3.6417,-3.6417,-3.6417,-3.6417,-3.6417,-3.6417,-3.6417,-3.6417,-3.6417,-3.6417,-3.6417,-3.6417,-3.6417,-3.6417,-3.6417,-3.638,-3.5994,-3.552,-3.5295,-3.5006,-3.4537,-3.3529,-3.4035,-3.4902,-3.5312,-3.5532,-3.6754,-3.7251,-3.7304,-3.7584,-3.7838,-3.7986,-3.7974,-3.7974,-3.7974,-3.7974,-3.7974,-3.7974,-3.7974,-3.7974,-3.7974,-3.7974,-3.7974,-3.7974,-3.7974,-3.7974,-3.7974,-3.7974,-3.7974,-3.7974,-3.7974,-3.7974,-3.7974,-3.7974,-3.7974,-3.7974,-3.7974,-3.7974,-3.7974,-3.7974,-3.7974,-3.7974,-3.7974,-3.7974,-3.7974,-3.7974,-3.7974,-3.7974,-3.7709,-3.7541,-3.73,-3.6639,-3.6447,-3.6194,-3.5821,-3.5665,-3.5557,-3.5569,-3.5689,-3.5376,-3.5063,-3.4787,-3.4811,-3.4835,-3.4993,-3.5368,-3.5524,-3.5812,-3.6245,-3.6601,-3.6646,-3.6518,-3.6832,-3.687,-3.6493,-3.648,-3.6707,-3.682,-3.6958,-3.7061,-3.7437,-3.7462,-3.7073,-3.6923,-3.6694,-3.6593,-3.6619,-3.6644,-3.6493,-3.6443,-3.6417,-3.6417,-3.6417,-3.6417,-3.6417,-3.6417,-3.6417,-3.6417,-3.6417,-3.6417,-3.6417,-3.6417,-3.6417,-3.6417,-3.6417,-3.6417,-3.6417,-3.6417,-3.6417,-3.6417,-3.6304,-3.6031,-3.583,-3.5558,-3.5345,-3.5056,-3.2223,-3.268,-3.3484,-3.3832,-3.4179,-3.6079,-3.697,-3.7131,-3.737,-3.7584,-3.7797,-3.7838,-3.7933,-3.7986,-3.7974,-3.7974,-3.7974,-3.7974,-3.7974,-3.7974,-3.7974,-3.7974,-3.7974,-3.7974,-3.7974,-3.7974,-3.7974,-3.7974,-3.7974,-3.7974,-3.7974,-3.7974,-3.7974,-3.7974,-3.7974,-3.7974,-3.7974,-3.7974,-3.7974,-3.7974,-3.7974,-3.7974,-3.7974,-3.7974,-3.7974,-3.7974,-3.7974,-3.7914,-3.7829,-3.7505,-3.7252,-3.7048,-3.6747,-3.6459,-3.6254,-3.6122,-3.611,-3.6182,-3.5869,-3.5412,-3.5292,-3.5461,-3.51,-3.5054,-3.5368,-3.5512,-3.596,-3.6422,-3.6962,-3.7073,-3.7023,-3.7349,-3.7262,-3.6945,-3.6983,-3.7186,-3.7299,-3.7462,-3.755,-3.7952,-3.8002,-3.7688,-3.7374,-3.7036,-3.6807,-3.6857,-3.6895,-3.6719,-3.6568,-3.6556,-3.6531,-3.6493,-3.6455,-3.6443,-3.643,-3.6417,-3.6417,-3.6417,-3.6417,-3.6417,-3.6417,-3.6417,-3.6417,-3.6417,-3.6417,-3.6417,-3.6417,-3.6417,-3.6417,-3.6417,-3.6355,-3.6081,-3.5821,-3.5658,-3.5554,-3.1439,-3.2385,-3.2556,-3.2556,-3.301,-3.5223,-3.6569,-3.6958,-3.7078,-3.7251,-3.7596,-3.7584,-3.7679,-3.788,-3.7921,-3.7921,-3.7974,-3.7974,-3.7974,-3.7974,-3.7974,-3.7974,-3.7974,-3.7974,-3.7974,-3.7974,-3.7974,-3.7974,-3.7974,-3.7974,-3.7974,-3.7974,-3.7974,-3.7974,-3.7974,-3.7974,-3.7974,-3.7974,-3.7974,-3.7974,-3.7974,-3.7974,-3.7974,-3.7974,-3.7974,-3.7974,-3.7974,-3.795,-3.795,-3.7757,-3.7517,-3.7324,-3.706,-3.6735,-3.6555,-3.6471,-3.6531,-3.6362,-3.6362,-3.593,-3.5857,-3.5954,-3.5473,-3.5223,-3.532,-3.5696,-3.6146,-3.6746,-3.7265,-3.7577,-3.7826,-3.7902,-3.7965,-3.7826,-3.7776,-3.7889,-3.7977,-3.8052,-3.8103,-3.8216,-3.8203,-3.7977,-3.7688,-3.741,-3.7211,-3.7262,-3.7312,-3.7224,-3.7048,-3.6847,-3.6832,-3.6644,-3.6593,-3.6493,-3.6455,-3.643,-3.6417,-3.6417,-3.6417,-3.6417,-3.6417,-3.6417,-3.6417,-3.6417,-3.6417,-3.6417,-3.6417,-3.6417,-3.6417,-3.6417,-3.6417,-3.6367,-3.6094,-3.6144,-3.6019,-2.9726,-3.0119,-3.0995,-3.1323,-3.1554,-3.3067,-3.4436,-3.5509,-3.6417,-3.697,-3.7251,-3.7251,-3.7239,-3.7411,-3.7572,-3.7679,-3.7785,-3.7892,-3.7974,-3.7974,-3.7974,-3.7974,-3.7974,-3.7974,-3.7974,-3.7974,-3.7974,-3.7974,-3.7974,-3.7974,-3.7974,-3.7974,-3.7974,-3.7974,-3.7974,-3.7974,-3.7974,-3.7974,-3.7974,-3.7974,-3.7974,-3.7974,-3.7974,-3.7974,-3.7974,-3.7974,-3.7974,-3.7974,-3.7974,-3.789,-3.7829,-3.7745,-3.7721,-3.7601,-3.7517,-3.7421,-3.7,-3.6519,-3.6783,-3.6471,-3.629,-3.6497,-3.6225,-3.6184,-3.6149,-3.6235,-3.6565,-3.7144,-3.7778,-3.8203,-3.8354,-3.8429,-3.8429,-3.8366,-3.8341,-3.8404,-3.8504,-3.8617,-3.868,-3.8793,-3.8755,-3.8417,-3.8165,-3.7902,-3.7789,-3.7814,-3.7826,-3.7801,-3.7613,-3.7425,-3.7186,-3.7046,-3.6832,-3.6757,-3.6518,-3.6443,-3.643,-3.6417,-3.6417,-3.6417,-3.6417,-3.6417,-3.6417,-3.6417,-3.6417,-3.6417,-3.6417,-3.6417,-3.6417,-3.6417,-3.6417,-3.6417,-3.6417,-3.6405,-3.6392,-2.8984,-2.9103,-2.9785,-3.0079,-3.0304,-3.1371,-3.2452,-3.3427,-3.4547,-3.5443,-3.6188,-3.6188,-3.6526,-3.7143,-3.7316,-3.7477,-3.7637,-3.7744,-3.7892,-3.7974,-3.7856,-3.7974,-3.7974,-3.7921,-3.7974,-3.7974,-3.7974,-3.7974,-3.7974,-3.7974,-3.7974,-3.7974,-3.7974,-3.7974,-3.7974,-3.7974,-3.7974,-3.7974,-3.7974,-3.7974,-3.7974,-3.7974,-3.7974,-3.7974,-3.7974,-3.7974,-3.7974,-3.7974,-3.7974,-3.7974,-3.7974,-3.7974,-3.7974,-3.795,-3.795,-3.7805,-3.7529,-3.7288,-3.7372,-3.7012,-3.6967,-3.6998,-3.6969,-3.6943,-3.7034,-3.7122,-3.7407,-3.7755,-3.8367,-3.8831,-3.8894,-3.8931,-3.8843,-3.8755,-3.8806,-3.8868,-3.9007,-3.9157,-3.9308,-3.9459,-3.9295,-3.8994,-3.873,-3.8467,-3.8379,-3.8442,-3.8617,-3.8793,-3.8467,-3.8052,-3.7789,-3.7538,-3.7249,-3.701,-3.6807,-3.6581,-3.6531,-3.6505,-3.6417,-3.6417,-3.6417,-3.6417,-3.6417,-3.6417,-3.6417,-3.6417,-3.6417,-3.6417,-3.6417,-3.6417,-3.6417,-3.6417,-3.6417,-3.6405,-3.6405,-2.8984,-2.8984,-2.8984,-2.9103,-2.9153,-3.0246,-3.0704,-3.0752,-3.1879,-3.3247,-3.4503,-3.4736,-3.5344,-3.5959,-3.6286,-3.6514,-3.6623,-3.6796,-3.6947,-3.7643,-3.7203,-3.7138,-3.7203,-3.759,-3.7031,-3.7471,-3.7761,-3.7655,-3.7921,-3.7974,-3.7974,-3.7974,-3.7974,-3.7974,-3.7974,-3.7974,-3.7974,-3.7974,-3.7974,-3.7974,-3.7974,-3.7974,-3.7974,-3.7974,-3.7974,-3.7974,-3.7974,-3.7974,-3.7974,-3.7974,-3.7974,-3.7974,-3.7974,-3.7974,-3.7974,-3.795,-3.7805,-3.7805,-3.7733,-3.7457,-3.771,-3.7669,-3.7533,-3.7719,-3.7887,-3.7791,-3.7954,-3.8266,-3.883,-3.9182,-3.9295,-3.9333,-3.9283,-3.9258,-3.9283,-3.9308,-3.9371,-3.9471,-3.9521,-3.9609,-3.9471,-3.9221,-3.912,-3.8919,-3.8931,-3.9032,-3.9157,-3.9433,-3.9258,-3.8718,-3.8404,-3.8115,-3.7902,-3.7624,-3.7147,-3.692,-3.6719,-3.6619,-3.6581,-3.6581,-3.6707,-3.6593,-3.6417,-3.6417,-3.6417,-3.6417,-3.6417,-3.6417,-3.6417,-3.6417,-3.6417,-3.6417,-3.6417,-3.6417,-3.6405,-2.8984,-2.8984,-2.8984,-2.8984,-2.9044,-2.9272,-2.944,-2.945,-2.9726,-3.1139,-3.2851,-3.3191,-3.3417,-3.4035,-3.447,-3.4703,-3.4759,-3.5377,-3.5223,-3.5432,-3.5542,-3.5815,-3.5443,-3.5706,-3.5487,-3.5608,-3.6111,-3.7173,-3.7655,-3.7868,-3.7974,-3.7974,-3.7974,-3.7974,-3.7974,-3.7974,-3.7974,-3.7974,-3.7974,-3.7974,-3.7974,-3.7974,-3.7974,-3.7974,-3.7974,-3.7974,-3.7974,-3.7974,-3.7974,-3.7974,-3.7974,-3.7974,-3.7974,-3.7974,-3.7974,-3.7974,-3.795,-3.7974,-3.7938,-3.7858,-3.8012,-3.8311,-3.8286,-3.8622,-3.8745,-3.8475,-3.8465,-3.8829,-3.9144,-3.9459,-3.9634,-3.9672,-3.9697,-3.9697,-3.9697,-3.9697,-3.9697,-3.9697,-3.9697,-3.9622,-3.9534,-3.9484,-3.9446,-3.9459,-3.9496,-3.9521,-3.9546,-3.9647,-3.9622,-3.9295,-3.9007,-3.8755,-3.8693,-3.8341,-3.7775,-3.7312,-3.7161,-3.7061,-3.7036,-3.701,-3.7008,-3.6795,-3.6593,-3.6468,-3.6417,-3.6417,-3.6417,-3.6417,-3.6417,-3.6417,-3.6417,-3.6417,-3.6417,-3.6417,-3.6417,-2.8434,-2.8462,-2.8654,-2.8828,-2.8966,-2.8984,-2.8984,-2.8984,-2.8984,-2.9717,-3.1033,-3.1544,-3.2052,-3.2452,-3.2943,-3.3226,-3.3339,-3.3856,-3.437,-3.438,-3.4213,-3.4492,-3.438,-3.4213,-3.4547,-3.4725,-3.5674,-3.6677,-3.7162,-3.7868,-3.7974,-3.7921,-3.7921,-3.7921,-3.7974,-3.7974,-3.7974,-3.7974,-3.7974,-3.7974,-3.7974,-3.7974,-3.7974,-3.7974,-3.7974,-3.7974,-3.7974,-3.7974,-3.7974,-3.7974,-3.7974,-3.7757,-3.7757,-3.7841,-3.7817,-3.7769,-3.7793,-3.7974,-3.7974,-3.8027,-3.8145,-3.8461,-3.8671,-3.8834,-3.9326,-3.9104,-3.9079,-3.9408,-3.9433,-3.9672,-3.9672,-3.9697,-3.9697,-3.9697,-3.9697,-3.9697,-3.9697,-3.9697,-3.9697,-3.9672,-3.9622,-3.9609,-3.9584,-3.9584,-3.9622,-3.9622,-3.9697,-3.9697,-3.9697,-3.9697,-3.9471,-3.9283,-3.9158,-3.8932,-3.8429,-3.799,-3.7739,-3.7638,-3.755,-3.7349,-3.7211,-3.6948,-3.6722,-3.6606,-3.648,-3.6417,-3.6417,-3.6417,-3.6417,-3.6417,-3.6417,-3.6417,-3.6417,-3.6417,-3.6417,-2.7849,-2.7877,-2.8159,-2.8498,-2.8801,-2.881,-2.8838,-2.8883,-2.8902,-2.8929,-2.9331,-3.0187,-3.1207,-3.1822,-3.2213,-3.2613,-3.2727,-3.2499,-3.3077,-3.3371,-3.354,-3.3201,-3.3325,-3.3663,-3.3663,-3.4112,-3.4958,-3.5509,-3.5947,-3.6599,-3.7084,-3.7471,-3.7708,-3.7773,-3.7814,-3.7974,-3.7974,-3.7974,-3.7974,-3.7974,-3.7974,-3.7974,-3.7974,-3.7974,-3.7974,-3.7974,-3.7974,-3.7974,-3.7974,-3.7974,-3.7962,-3.7805,-3.7613,-3.7685,-3.7649,-3.7601,-3.7637,-3.7817,-3.7938,-3.8027,-3.8303,-3.8579,-3.8684,-3.8945,-3.9362,-3.9569,-3.9544,-3.9659,-3.9685,-3.9697,-3.9697,-3.9645,-3.9645,-3.9594,-3.9594,-3.9594,-3.9594,-3.9594,-3.9594,-3.9594,-3.9594,-3.9594,-3.9645,-3.9645,-3.9697,-3.9697,-3.9697,-3.9697,-3.9697,-3.9697,-3.9597,-3.9471,-3.9346,-3.9107,-3.8818,-3.8705,-3.8404,-3.8203,-3.8078,-3.7764,-3.745,-3.7174,-3.6945,-3.6694,-3.6581,-3.648,-3.643,-3.6417,-3.6417,-3.6417,-3.6417,-3.6417,-3.6417,-3.6417,-3.6417,-2.7813,-2.7831,-2.7914,-2.7939,-2.807,-2.807,-2.8187,-2.848,-2.8507,-2.8673,-2.8952,-2.9153,-2.9558,-2.9726,-3.0011,-3.0412,-3.0869,-3.0869,-3.0704,-3.0713,-3.1516,-3.1401,-3.1516,-3.2217,-3.2332,-3.2892,-3.3561,-3.3899,-3.4725,-3.5113,-3.5157,-3.5322,-3.634,-3.6569,-3.6731,-3.7054,-3.759,-3.7536,-3.759,-3.759,-3.7761,-3.7814,-3.7974,-3.7974,-3.7974,-3.7974,-3.7974,-3.7974,-3.7974,-3.7974,-3.7938,-3.7853,-3.7637,-3.7469,-3.7457,-3.7445,-3.7481,-3.7685,-3.7805,-3.7779,-3.7974,-3.8133,-3.8238,-3.8409,-3.8776,-3.9141,-3.9297,-3.962,-3.9697,-3.9697,-3.9697,-3.953,-3.9465,-3.931,-3.9258,-3.9258,-3.9258,-3.9258,-3.9258,-3.9258,-3.9258,-3.931,-3.9465,-3.9478,-3.953,-3.9581,-3.9697,-3.9697,-3.9697,-3.9697,-3.9697,-3.9558,-3.947,-3.9258,-3.8969,-3.9283,-3.9132,-3.8894,-3.868,-3.8354,-3.7965,-3.7412,-3.7184,-3.7084,-3.6744,-3.6531,-3.648,-3.6518,-3.6417,-3.6417,-3.6417,-3.6417,-3.6417,-3.6417,-3.6417]}]]